<?xml version='1.0' encoding='UTF-8'?><gpx version="1.1" creator="JPX - https://github.com/jenetics/jpx" xmlns="http://www.topografix.com/GPX/1/1"><trk><trkseg><trkpt lat="45.8088991" lon="11.5577411"><ele>1173.0</ele><time>2026-04-19T13:11:57.875Z</time></trkpt><trkpt lat="45.8090085" lon="11.5577244"><ele>1173.0</ele><time>2026-04-19T13:11:59.875Z</time></trkpt><trkpt lat="45.8091279" lon="11.5577015"><ele>1173.0</ele><time>2026-04-19T13:12:01.875Z</time></trkpt><trkpt lat="45.8091935" lon="11.5576824"><ele>1173.0</ele><time>2026-04-19T13:12:02.872Z</time></trkpt><trkpt lat="45.8092615" lon="11.5576642"><ele>1173.0</ele><time>2026-04-19T13:12:03.874Z</time></trkpt><trkpt lat="45.8093311" lon="11.557647"><ele>1173.0</ele><time>2026-04-19T13:12:04.873Z</time></trkpt><trkpt lat="45.8093962" lon="11.5576389"><ele>1173.0</ele><time>2026-04-19T13:12:05.873Z</time></trkpt><trkpt lat="45.8094656" lon="11.5576343"><ele>1173.0</ele><time>2026-04-19T13:12:06.867Z</time></trkpt><trkpt lat="45.8095422" lon="11.5576373"><ele>1173.0</ele><time>2026-04-19T13:12:07.873Z</time></trkpt><trkpt lat="45.8096173" lon="11.557653"><ele>1173.0</ele><time>2026-04-19T13:12:08.871Z</time></trkpt><trkpt lat="45.8096874" lon="11.5576726"><ele>1173.0</ele><time>2026-04-19T13:12:09.879Z</time></trkpt><trkpt lat="45.809763" lon="11.5576891"><ele>1173.0</ele><time>2026-04-19T13:12:10.867Z</time></trkpt><trkpt lat="45.8098507" lon="11.5577101"><ele>1173.0</ele><time>2026-04-19T13:12:11.87Z</time></trkpt><trkpt lat="45.8099302" lon="11.5577212"><ele>1173.0</ele><time>2026-04-19T13:12:12.867Z</time></trkpt><trkpt lat="45.8099954" lon="11.5577168"><ele>1173.0</ele><time>2026-04-19T13:12:13.874Z</time></trkpt><trkpt lat="45.810068" lon="11.5576983"><ele>1173.0</ele><time>2026-04-19T13:12:14.866Z</time></trkpt><trkpt lat="45.8101884" lon="11.5576196"><ele>1173.0</ele><time>2026-04-19T13:12:16.877Z</time></trkpt><trkpt lat="45.8102469" lon="11.557563"><ele>1173.0</ele><time>2026-04-19T13:12:17.868Z</time></trkpt><trkpt lat="45.8103089" lon="11.5575055"><ele>1173.1666666666667</ele><time>2026-04-19T13:12:18.868Z</time></trkpt><trkpt lat="45.8103719" lon="11.5574494"><ele>1173.3333333333333</ele><time>2026-04-19T13:12:19.873Z</time></trkpt><trkpt lat="45.8104354" lon="11.5573978"><ele>1173.5</ele><time>2026-04-19T13:12:20.871Z</time></trkpt><trkpt lat="45.8104991" lon="11.5573445"><ele>1173.6666666666665</ele><time>2026-04-19T13:12:21.872Z</time></trkpt><trkpt lat="45.8105637" lon="11.5572917"><ele>1173.8333333333333</ele><time>2026-04-19T13:12:22.869Z</time></trkpt><trkpt lat="45.8106324" lon="11.5572353"><ele>1174.0</ele><time>2026-04-19T13:12:23.87Z</time></trkpt><trkpt lat="45.8106992" lon="11.5571798"><ele>1174.0</ele><time>2026-04-19T13:12:24.875Z</time></trkpt><trkpt lat="45.8107713" lon="11.557116"><ele>1174.0</ele><time>2026-04-19T13:12:25.875Z</time></trkpt><trkpt lat="45.81084" lon="11.5570638"><ele>1174.0</ele><time>2026-04-19T13:12:26.869Z</time></trkpt><trkpt lat="45.8109029" lon="11.5570375"><ele>1174.0</ele><time>2026-04-19T13:12:27.879Z</time></trkpt><trkpt lat="45.8109748" lon="11.5570208"><ele>1174.0</ele><time>2026-04-19T13:12:28.875Z</time></trkpt><trkpt lat="45.8110552" lon="11.557016"><ele>1174.0</ele><time>2026-04-19T13:12:29.885Z</time></trkpt><trkpt lat="45.8111503" lon="11.5570156"><ele>1174.5</ele><time>2026-04-19T13:12:30.865Z</time></trkpt><trkpt lat="45.8112295" lon="11.5570222"><ele>1175.0</ele><time>2026-04-19T13:12:31.871Z</time></trkpt><trkpt lat="45.8113153" lon="11.5570209"><ele>1175.5</ele><time>2026-04-19T13:12:32.869Z</time></trkpt><trkpt lat="45.8113862" lon="11.5570173"><ele>1176.0</ele><time>2026-04-19T13:12:33.869Z</time></trkpt><trkpt lat="45.8115077" lon="11.5570508"><ele>1176.5</ele><time>2026-04-19T13:12:35.881Z</time></trkpt><trkpt lat="45.8115704" lon="11.5570903"><ele>1177.0</ele><time>2026-04-19T13:12:36.878Z</time></trkpt><trkpt lat="45.8116316" lon="11.5571394"><ele>1177.0</ele><time>2026-04-19T13:12:37.867Z</time></trkpt><trkpt lat="45.8116912" lon="11.5571975"><ele>1177.0</ele><time>2026-04-19T13:12:38.862Z</time></trkpt><trkpt lat="45.811753" lon="11.5572662"><ele>1177.0</ele><time>2026-04-19T13:12:39.865Z</time></trkpt><trkpt lat="45.8118163" lon="11.5573444"><ele>1177.0</ele><time>2026-04-19T13:12:40.867Z</time></trkpt><trkpt lat="45.8118927" lon="11.557434"><ele>1177.0</ele><time>2026-04-19T13:12:41.868Z</time></trkpt><trkpt lat="45.8119718" lon="11.5575107"><ele>1177.0</ele><time>2026-04-19T13:12:42.865Z</time></trkpt><trkpt lat="45.8120557" lon="11.5575932"><ele>1178.0</ele><time>2026-04-19T13:12:43.864Z</time></trkpt><trkpt lat="45.8121433" lon="11.5576614"><ele>1179.0</ele><time>2026-04-19T13:12:44.869Z</time></trkpt><trkpt lat="45.8122358" lon="11.5577335"><ele>1180.0</ele><time>2026-04-19T13:12:45.869Z</time></trkpt><trkpt lat="45.8123183" lon="11.5578036"><ele>1181.0</ele><time>2026-04-19T13:12:46.87Z</time></trkpt><trkpt lat="45.812393" lon="11.5578728"><ele>1182.0</ele><time>2026-04-19T13:12:47.868Z</time></trkpt><trkpt lat="45.8124683" lon="11.5579411"><ele>1182.3333333333333</ele><time>2026-04-19T13:12:48.87Z</time></trkpt><trkpt lat="45.8125423" lon="11.5580127"><ele>1182.6666666666667</ele><time>2026-04-19T13:12:49.868Z</time></trkpt><trkpt lat="45.8126174" lon="11.5580853"><ele>1183.0</ele><time>2026-04-19T13:12:50.871Z</time></trkpt><trkpt lat="45.8126878" lon="11.5581572"><ele>1183.3333333333335</ele><time>2026-04-19T13:12:51.867Z</time></trkpt><trkpt lat="45.8127518" lon="11.5582237"><ele>1183.6666666666667</ele><time>2026-04-19T13:12:52.874Z</time></trkpt><trkpt lat="45.8128034" lon="11.5582846"><ele>1184.0</ele><time>2026-04-19T13:12:53.87Z</time></trkpt><trkpt lat="45.8128581" lon="11.558369"><ele>1182.2</ele><time>2026-04-19T13:12:54.874Z</time></trkpt><trkpt lat="45.8129159" lon="11.5584701"><ele>1180.4</ele><time>2026-04-19T13:12:55.872Z</time></trkpt><trkpt lat="45.812983" lon="11.5585827"><ele>1178.6</ele><time>2026-04-19T13:12:56.869Z</time></trkpt><trkpt lat="45.8130476" lon="11.5586914"><ele>1176.8</ele><time>2026-04-19T13:12:57.876Z</time></trkpt><trkpt lat="45.8131153" lon="11.558791"><ele>1175.0</ele><time>2026-04-19T13:12:58.865Z</time></trkpt><trkpt lat="45.8131811" lon="11.5588841"><ele>1175.2</ele><time>2026-04-19T13:12:59.883Z</time></trkpt><trkpt lat="45.8132546" lon="11.5589796"><ele>1175.4</ele><time>2026-04-19T13:13:00.871Z</time></trkpt><trkpt lat="45.8133381" lon="11.5590736"><ele>1175.6</ele><time>2026-04-19T13:13:01.867Z</time></trkpt><trkpt lat="45.8134292" lon="11.5591588"><ele>1175.8</ele><time>2026-04-19T13:13:02.87Z</time></trkpt><trkpt lat="45.8135236" lon="11.559228"><ele>1176.0</ele><time>2026-04-19T13:13:03.871Z</time></trkpt><trkpt lat="45.813629" lon="11.5592958"><ele>1176.0</ele><time>2026-04-19T13:13:04.878Z</time></trkpt><trkpt lat="45.8137358" lon="11.5593709"><ele>1176.0</ele><time>2026-04-19T13:13:05.872Z</time></trkpt><trkpt lat="45.813834" lon="11.5594396"><ele>1176.0</ele><time>2026-04-19T13:13:06.875Z</time></trkpt><trkpt lat="45.8139202" lon="11.5595016"><ele>1176.0</ele><time>2026-04-19T13:13:07.864Z</time></trkpt><trkpt lat="45.8140037" lon="11.5595705"><ele>1176.0</ele><time>2026-04-19T13:13:08.872Z</time></trkpt><trkpt lat="45.8140835" lon="11.5596497"><ele>1175.3999999999999</ele><time>2026-04-19T13:13:09.884Z</time></trkpt><trkpt lat="45.8141487" lon="11.5597314"><ele>1174.8</ele><time>2026-04-19T13:13:10.868Z</time></trkpt><trkpt lat="45.8142084" lon="11.5598316"><ele>1174.1999999999998</ele><time>2026-04-19T13:13:11.876Z</time></trkpt><trkpt lat="45.8142616" lon="11.5599457"><ele>1173.6</ele><time>2026-04-19T13:13:12.868Z</time></trkpt><trkpt lat="45.8143141" lon="11.5600671"><ele>1173.0</ele><time>2026-04-19T13:13:13.866Z</time></trkpt><trkpt lat="45.8143672" lon="11.5601701"><ele>1173.8</ele><time>2026-04-19T13:13:14.876Z</time></trkpt><trkpt lat="45.8144297" lon="11.5602681"><ele>1174.6</ele><time>2026-04-19T13:13:15.874Z</time></trkpt><trkpt lat="45.8145054" lon="11.5603666"><ele>1175.4</ele><time>2026-04-19T13:13:16.876Z</time></trkpt><trkpt lat="45.8145903" lon="11.5604679"><ele>1176.2</ele><time>2026-04-19T13:13:17.87Z</time></trkpt><trkpt lat="45.8146724" lon="11.5605745"><ele>1177.0</ele><time>2026-04-19T13:13:18.874Z</time></trkpt><trkpt lat="45.8147479" lon="11.5606872"><ele>1177.0</ele><time>2026-04-19T13:13:19.872Z</time></trkpt><trkpt lat="45.8148244" lon="11.5608149"><ele>1177.0</ele><time>2026-04-19T13:13:20.877Z</time></trkpt><trkpt lat="45.8148942" lon="11.5609422"><ele>1177.0</ele><time>2026-04-19T13:13:21.88Z</time></trkpt><trkpt lat="45.8149686" lon="11.5610785"><ele>1177.0</ele><time>2026-04-19T13:13:22.879Z</time></trkpt><trkpt lat="45.8150447" lon="11.5612117"><ele>1177.4</ele><time>2026-04-19T13:13:23.873Z</time></trkpt><trkpt lat="45.8151233" lon="11.5613438"><ele>1177.8000000000002</ele><time>2026-04-19T13:13:24.869Z</time></trkpt><trkpt lat="45.8151984" lon="11.561467"><ele>1178.2</ele><time>2026-04-19T13:13:25.874Z</time></trkpt><trkpt lat="45.815263" lon="11.5615744"><ele>1178.6000000000001</ele><time>2026-04-19T13:13:26.873Z</time></trkpt><trkpt lat="45.8153234" lon="11.561681"><ele>1179.0</ele><time>2026-04-19T13:13:27.871Z</time></trkpt><trkpt lat="45.8153836" lon="11.5617999"><ele>1179.0</ele><time>2026-04-19T13:13:28.866Z</time></trkpt><trkpt lat="45.8154432" lon="11.561924"><ele>1179.0</ele><time>2026-04-19T13:13:29.872Z</time></trkpt><trkpt lat="45.8154978" lon="11.5620535"><ele>1179.0</ele><time>2026-04-19T13:13:30.878Z</time></trkpt><trkpt lat="45.8155497" lon="11.5621844"><ele>1179.0</ele><time>2026-04-19T13:13:31.872Z</time></trkpt><trkpt lat="45.8155924" lon="11.562298"><ele>1179.0</ele><time>2026-04-19T13:13:32.878Z</time></trkpt><trkpt lat="45.8156398" lon="11.5623948"><ele>1178.0</ele><time>2026-04-19T13:13:33.865Z</time></trkpt><trkpt lat="45.815699" lon="11.5624872"><ele>1177.0</ele><time>2026-04-19T13:13:34.874Z</time></trkpt><trkpt lat="45.8157694" lon="11.5625831"><ele>1176.0</ele><time>2026-04-19T13:13:35.87Z</time></trkpt><trkpt lat="45.8158467" lon="11.5626814"><ele>1175.0</ele><time>2026-04-19T13:13:36.865Z</time></trkpt><trkpt lat="45.8159362" lon="11.562779"><ele>1174.0</ele><time>2026-04-19T13:13:37.871Z</time></trkpt><trkpt lat="45.8160279" lon="11.5628845"><ele>1172.5</ele><time>2026-04-19T13:13:38.873Z</time></trkpt><trkpt lat="45.8161261" lon="11.5629899"><ele>1171.0</ele><time>2026-04-19T13:13:39.879Z</time></trkpt><trkpt lat="45.8162335" lon="11.5630985"><ele>1169.5</ele><time>2026-04-19T13:13:40.87Z</time></trkpt><trkpt lat="45.8163436" lon="11.5632079"><ele>1168.0</ele><time>2026-04-19T13:13:41.882Z</time></trkpt><trkpt lat="45.8164582" lon="11.5633177"><ele>1168.0</ele><time>2026-04-19T13:13:42.878Z</time></trkpt><trkpt lat="45.8165789" lon="11.5634282"><ele>1168.0</ele><time>2026-04-19T13:13:43.874Z</time></trkpt><trkpt lat="45.8166986" lon="11.5635344"><ele>1168.0</ele><time>2026-04-19T13:13:44.869Z</time></trkpt><trkpt lat="45.8168194" lon="11.5636366"><ele>1168.0</ele><time>2026-04-19T13:13:45.862Z</time></trkpt><trkpt lat="45.8169271" lon="11.5637272"><ele>1167.8333333333333</ele><time>2026-04-19T13:13:46.871Z</time></trkpt><trkpt lat="45.8170265" lon="11.56381"><ele>1167.6666666666665</ele><time>2026-04-19T13:13:47.876Z</time></trkpt><trkpt lat="45.8171066" lon="11.5638763"><ele>1167.5</ele><time>2026-04-19T13:13:48.881Z</time></trkpt><trkpt lat="45.817173" lon="11.5639328"><ele>1167.3333333333333</ele><time>2026-04-19T13:13:49.876Z</time></trkpt><trkpt lat="45.817237" lon="11.5640048"><ele>1167.1666666666667</ele><time>2026-04-19T13:13:50.871Z</time></trkpt><trkpt lat="45.8172878" lon="11.564086"><ele>1167.0</ele><time>2026-04-19T13:13:51.872Z</time></trkpt><trkpt lat="45.8173349" lon="11.5641865"><ele>1167.0</ele><time>2026-04-19T13:13:52.871Z</time></trkpt><trkpt lat="45.8173763" lon="11.5642998"><ele>1167.0</ele><time>2026-04-19T13:13:53.873Z</time></trkpt><trkpt lat="45.8174138" lon="11.5644316"><ele>1167.0</ele><time>2026-04-19T13:13:54.872Z</time></trkpt><trkpt lat="45.8174479" lon="11.5645729"><ele>1167.0</ele><time>2026-04-19T13:13:55.873Z</time></trkpt><trkpt lat="45.8174821" lon="11.5647225"><ele>1167.0</ele><time>2026-04-19T13:13:56.876Z</time></trkpt><trkpt lat="45.8175197" lon="11.5648768"><ele>1166.2</ele><time>2026-04-19T13:13:57.871Z</time></trkpt><trkpt lat="45.8175548" lon="11.5650203"><ele>1165.4</ele><time>2026-04-19T13:13:58.875Z</time></trkpt><trkpt lat="45.8175927" lon="11.5651643"><ele>1164.6</ele><time>2026-04-19T13:13:59.871Z</time></trkpt><trkpt lat="45.8176308" lon="11.5653018"><ele>1163.8</ele><time>2026-04-19T13:14:00.872Z</time></trkpt><trkpt lat="45.8176628" lon="11.5654119"><ele>1163.0</ele><time>2026-04-19T13:14:01.874Z</time></trkpt><trkpt lat="45.8176939" lon="11.5655139"><ele>1162.6666666666667</ele><time>2026-04-19T13:14:02.872Z</time></trkpt><trkpt lat="45.8177337" lon="11.5656172"><ele>1162.3333333333335</ele><time>2026-04-19T13:14:03.875Z</time></trkpt><trkpt lat="45.8177787" lon="11.5657121"><ele>1162.0</ele><time>2026-04-19T13:14:04.879Z</time></trkpt><trkpt lat="45.8178351" lon="11.5657986"><ele>1161.6666666666667</ele><time>2026-04-19T13:14:05.877Z</time></trkpt><trkpt lat="45.8179046" lon="11.5658858"><ele>1161.3333333333333</ele><time>2026-04-19T13:14:06.878Z</time></trkpt><trkpt lat="45.8179802" lon="11.5659653"><ele>1161.0</ele><time>2026-04-19T13:14:07.873Z</time></trkpt><trkpt lat="45.818058" lon="11.5660327"><ele>1161.0</ele><time>2026-04-19T13:14:08.875Z</time></trkpt><trkpt lat="45.8181371" lon="11.5660899"><ele>1161.0</ele><time>2026-04-19T13:14:09.87Z</time></trkpt><trkpt lat="45.8182165" lon="11.566132"><ele>1161.0</ele><time>2026-04-19T13:14:10.871Z</time></trkpt><trkpt lat="45.8183002" lon="11.5661571"><ele>1161.0</ele><time>2026-04-19T13:14:11.865Z</time></trkpt><trkpt lat="45.8183912" lon="11.5661868"><ele>1161.0</ele><time>2026-04-19T13:14:12.874Z</time></trkpt><trkpt lat="45.8184734" lon="11.5662149"><ele>1161.0</ele><time>2026-04-19T13:14:13.876Z</time></trkpt><trkpt lat="45.8185516" lon="11.5662276"><ele>1160.8333333333333</ele><time>2026-04-19T13:14:14.865Z</time></trkpt><trkpt lat="45.8186328" lon="11.5662233"><ele>1160.6666666666667</ele><time>2026-04-19T13:14:15.881Z</time></trkpt><trkpt lat="45.8187216" lon="11.5661998"><ele>1160.5</ele><time>2026-04-19T13:14:16.872Z</time></trkpt><trkpt lat="45.8188131" lon="11.5661588"><ele>1160.3333333333335</ele><time>2026-04-19T13:14:17.875Z</time></trkpt><trkpt lat="45.8188941" lon="11.566118"><ele>1160.1666666666667</ele><time>2026-04-19T13:14:18.867Z</time></trkpt><trkpt lat="45.8189644" lon="11.5660916"><ele>1160.0</ele><time>2026-04-19T13:14:19.867Z</time></trkpt><trkpt lat="45.8190402" lon="11.5660834"><ele>1160.0</ele><time>2026-04-19T13:14:20.872Z</time></trkpt><trkpt lat="45.8191259" lon="11.5660871"><ele>1160.0</ele><time>2026-04-19T13:14:21.874Z</time></trkpt><trkpt lat="45.8192212" lon="11.5660978"><ele>1160.0</ele><time>2026-04-19T13:14:22.873Z</time></trkpt><trkpt lat="45.8193141" lon="11.5660999"><ele>1160.0</ele><time>2026-04-19T13:14:23.867Z</time></trkpt><trkpt lat="45.8194154" lon="11.5660914"><ele>1160.0</ele><time>2026-04-19T13:14:24.878Z</time></trkpt><trkpt lat="45.8195159" lon="11.5660844"><ele>1160.2</ele><time>2026-04-19T13:14:25.868Z</time></trkpt><trkpt lat="45.8196361" lon="11.5660869"><ele>1160.4</ele><time>2026-04-19T13:14:26.882Z</time></trkpt><trkpt lat="45.8197536" lon="11.5660863"><ele>1160.6</ele><time>2026-04-19T13:14:27.877Z</time></trkpt><trkpt lat="45.8198557" lon="11.5660858"><ele>1160.8</ele><time>2026-04-19T13:14:28.874Z</time></trkpt><trkpt lat="45.819952" lon="11.5660837"><ele>1161.0</ele><time>2026-04-19T13:14:29.87Z</time></trkpt><trkpt lat="45.8200532" lon="11.5660824"><ele>1161.3999999999999</ele><time>2026-04-19T13:14:30.867Z</time></trkpt><trkpt lat="45.820151" lon="11.5660821"><ele>1161.8</ele><time>2026-04-19T13:14:31.872Z</time></trkpt><trkpt lat="45.8202516" lon="11.566081"><ele>1162.1999999999998</ele><time>2026-04-19T13:14:32.869Z</time></trkpt><trkpt lat="45.8203464" lon="11.566079"><ele>1162.6</ele><time>2026-04-19T13:14:33.872Z</time></trkpt><trkpt lat="45.8204325" lon="11.5660766"><ele>1163.0</ele><time>2026-04-19T13:14:34.871Z</time></trkpt><trkpt lat="45.8205122" lon="11.5660723"><ele>1163.0</ele><time>2026-04-19T13:14:35.875Z</time></trkpt><trkpt lat="45.8205971" lon="11.5660681"><ele>1163.0</ele><time>2026-04-19T13:14:36.869Z</time></trkpt><trkpt lat="45.8206683" lon="11.5660686"><ele>1163.0</ele><time>2026-04-19T13:14:37.874Z</time></trkpt><trkpt lat="45.8207404" lon="11.5660766"><ele>1163.0</ele><time>2026-04-19T13:14:38.872Z</time></trkpt><trkpt lat="45.8208113" lon="11.56609"><ele>1163.0</ele><time>2026-04-19T13:14:39.868Z</time></trkpt><trkpt lat="45.8209244" lon="11.5661307"><ele>1163.0</ele><time>2026-04-19T13:14:41.87Z</time></trkpt><trkpt lat="45.8209931" lon="11.5661686"><ele>1163.0</ele><time>2026-04-19T13:14:43.871Z</time></trkpt><trkpt lat="45.821087" lon="11.5662225"><ele>1163.0</ele><time>2026-04-19T13:14:45.87Z</time></trkpt><trkpt lat="45.8209925" lon="11.5661427"><ele>1163.0</ele><time>2026-04-19T13:14:57.866Z</time></trkpt><trkpt lat="45.8209281" lon="11.5661163"><ele>1163.0</ele><time>2026-04-19T13:14:58.866Z</time></trkpt><trkpt lat="45.8208481" lon="11.5660892"><ele>1163.0</ele><time>2026-04-19T13:14:59.869Z</time></trkpt><trkpt lat="45.8207617" lon="11.5660714"><ele>1163.0</ele><time>2026-04-19T13:15:00.878Z</time></trkpt><trkpt lat="45.820674" lon="11.5660634"><ele>1163.0</ele><time>2026-04-19T13:15:01.874Z</time></trkpt><trkpt lat="45.8205691" lon="11.5660607"><ele>1163.0</ele><time>2026-04-19T13:15:02.867Z</time></trkpt><trkpt lat="45.8204592" lon="11.5660585"><ele>1163.0</ele><time>2026-04-19T13:15:03.869Z</time></trkpt><trkpt lat="45.8203439" lon="11.5660575"><ele>1163.0</ele><time>2026-04-19T13:15:04.87Z</time></trkpt><trkpt lat="45.8202265" lon="11.5660589"><ele>1163.0</ele><time>2026-04-19T13:15:05.873Z</time></trkpt><trkpt lat="45.8201202" lon="11.5660598"><ele>1162.6</ele><time>2026-04-19T13:15:06.863Z</time></trkpt><trkpt lat="45.8200124" lon="11.5660616"><ele>1162.1999999999998</ele><time>2026-04-19T13:15:07.871Z</time></trkpt><trkpt lat="45.8199084" lon="11.5660623"><ele>1161.8</ele><time>2026-04-19T13:15:08.868Z</time></trkpt><trkpt lat="45.8198009" lon="11.5660672"><ele>1161.3999999999999</ele><time>2026-04-19T13:15:09.873Z</time></trkpt><trkpt lat="45.8196863" lon="11.5660689"><ele>1161.0</ele><time>2026-04-19T13:15:10.868Z</time></trkpt><trkpt lat="45.8195735" lon="11.5660702"><ele>1161.0</ele><time>2026-04-19T13:15:11.868Z</time></trkpt><trkpt lat="45.8194663" lon="11.5660718"><ele>1161.0</ele><time>2026-04-19T13:15:12.87Z</time></trkpt><trkpt lat="45.819358" lon="11.5660783"><ele>1161.0</ele><time>2026-04-19T13:15:13.871Z</time></trkpt><trkpt lat="45.8192669" lon="11.5660805"><ele>1161.0</ele><time>2026-04-19T13:15:14.868Z</time></trkpt><trkpt lat="45.8191772" lon="11.5660773"><ele>1161.0</ele><time>2026-04-19T13:15:15.872Z</time></trkpt><trkpt lat="45.8190941" lon="11.5660791"><ele>1160.8333333333333</ele><time>2026-04-19T13:15:16.871Z</time></trkpt><trkpt lat="45.8190014" lon="11.5660943"><ele>1160.6666666666667</ele><time>2026-04-19T13:15:17.875Z</time></trkpt><trkpt lat="45.8189111" lon="11.5661192"><ele>1160.5</ele><time>2026-04-19T13:15:18.876Z</time></trkpt><trkpt lat="45.8188188" lon="11.5661546"><ele>1160.3333333333335</ele><time>2026-04-19T13:15:19.869Z</time></trkpt><trkpt lat="45.8187425" lon="11.5661836"><ele>1160.1666666666667</ele><time>2026-04-19T13:15:20.867Z</time></trkpt><trkpt lat="45.8186676" lon="11.5662101"><ele>1160.0</ele><time>2026-04-19T13:15:21.87Z</time></trkpt><trkpt lat="45.8185923" lon="11.5662174"><ele>1160.2</ele><time>2026-04-19T13:15:22.865Z</time></trkpt><trkpt lat="45.8185079" lon="11.5662128"><ele>1160.4</ele><time>2026-04-19T13:15:23.87Z</time></trkpt><trkpt lat="45.818419" lon="11.5661956"><ele>1160.6</ele><time>2026-04-19T13:15:24.87Z</time></trkpt><trkpt lat="45.8183248" lon="11.5661692"><ele>1160.8</ele><time>2026-04-19T13:15:25.875Z</time></trkpt><trkpt lat="45.8182315" lon="11.566135"><ele>1161.0</ele><time>2026-04-19T13:15:26.874Z</time></trkpt><trkpt lat="45.8181474" lon="11.5660908"><ele>1161.0</ele><time>2026-04-19T13:15:27.875Z</time></trkpt><trkpt lat="45.8180616" lon="11.5660277"><ele>1161.0</ele><time>2026-04-19T13:15:28.878Z</time></trkpt><trkpt lat="45.8179803" lon="11.5659607"><ele>1161.0</ele><time>2026-04-19T13:15:29.865Z</time></trkpt><trkpt lat="45.817908" lon="11.5658824"><ele>1161.0</ele><time>2026-04-19T13:15:30.874Z</time></trkpt><trkpt lat="45.8178383" lon="11.5657932"><ele>1161.0</ele><time>2026-04-19T13:15:31.87Z</time></trkpt><trkpt lat="45.8177827" lon="11.5657037"><ele>1161.0</ele><time>2026-04-19T13:15:32.865Z</time></trkpt><trkpt lat="45.817735" lon="11.5656015"><ele>1161.0</ele><time>2026-04-19T13:15:33.872Z</time></trkpt><trkpt lat="45.8176973" lon="11.565493"><ele>1161.0</ele><time>2026-04-19T13:15:34.872Z</time></trkpt><trkpt lat="45.8176645" lon="11.5653749"><ele>1161.0</ele><time>2026-04-19T13:15:35.875Z</time></trkpt><trkpt lat="45.8176321" lon="11.5652491"><ele>1161.0</ele><time>2026-04-19T13:15:36.883Z</time></trkpt><trkpt lat="45.8175954" lon="11.5651094"><ele>1161.5</ele><time>2026-04-19T13:15:37.871Z</time></trkpt><trkpt lat="45.8175599" lon="11.5649685"><ele>1162.0</ele><time>2026-04-19T13:15:38.865Z</time></trkpt><trkpt lat="45.8175188" lon="11.564806"><ele>1162.5</ele><time>2026-04-19T13:15:39.874Z</time></trkpt><trkpt lat="45.8174789" lon="11.5646423"><ele>1163.0</ele><time>2026-04-19T13:15:40.869Z</time></trkpt><trkpt lat="45.8174428" lon="11.5644884"><ele>1163.6666666666667</ele><time>2026-04-19T13:15:41.872Z</time></trkpt><trkpt lat="45.8174076" lon="11.5643482"><ele>1164.3333333333335</ele><time>2026-04-19T13:15:42.871Z</time></trkpt><trkpt lat="45.8173694" lon="11.5642291"><ele>1165.0</ele><time>2026-04-19T13:15:43.875Z</time></trkpt><trkpt lat="45.8173273" lon="11.564129"><ele>1165.6666666666667</ele><time>2026-04-19T13:15:44.874Z</time></trkpt><trkpt lat="45.8172759" lon="11.5640369"><ele>1166.3333333333333</ele><time>2026-04-19T13:15:45.867Z</time></trkpt><trkpt lat="45.8172126" lon="11.5639545"><ele>1167.0</ele><time>2026-04-19T13:15:46.864Z</time></trkpt><trkpt lat="45.817143" lon="11.5638779"><ele>1167.0</ele><time>2026-04-19T13:15:47.873Z</time></trkpt><trkpt lat="45.8170667" lon="11.5638086"><ele>1167.0</ele><time>2026-04-19T13:15:48.868Z</time></trkpt><trkpt lat="45.8169813" lon="11.5637396"><ele>1167.0</ele><time>2026-04-19T13:15:49.87Z</time></trkpt><trkpt lat="45.8168862" lon="11.5636642"><ele>1167.0</ele><time>2026-04-19T13:15:50.875Z</time></trkpt><trkpt lat="45.8167876" lon="11.563583"><ele>1167.0</ele><time>2026-04-19T13:15:51.872Z</time></trkpt><trkpt lat="45.8166839" lon="11.5634981"><ele>1167.25</ele><time>2026-04-19T13:15:52.874Z</time></trkpt><trkpt lat="45.8165818" lon="11.5634129"><ele>1167.5</ele><time>2026-04-19T13:15:53.874Z</time></trkpt><trkpt lat="45.816478" lon="11.5633217"><ele>1167.75</ele><time>2026-04-19T13:15:54.872Z</time></trkpt><trkpt lat="45.8163726" lon="11.5632246"><ele>1168.0</ele><time>2026-04-19T13:15:55.868Z</time></trkpt><trkpt lat="45.8162695" lon="11.5631213"><ele>1168.0</ele><time>2026-04-19T13:15:56.867Z</time></trkpt><trkpt lat="45.8161663" lon="11.5630184"><ele>1168.0</ele><time>2026-04-19T13:15:57.876Z</time></trkpt><trkpt lat="45.8160671" lon="11.5629128"><ele>1168.0</ele><time>2026-04-19T13:15:58.867Z</time></trkpt><trkpt lat="45.8159719" lon="11.5628101"><ele>1168.0</ele><time>2026-04-19T13:15:59.865Z</time></trkpt><trkpt lat="45.8158911" lon="11.5627227"><ele>1169.2</ele><time>2026-04-19T13:16:00.867Z</time></trkpt><trkpt lat="45.8158081" lon="11.5626294"><ele>1170.4</ele><time>2026-04-19T13:16:01.865Z</time></trkpt><trkpt lat="45.8157413" lon="11.5625497"><ele>1171.6000000000001</ele><time>2026-04-19T13:16:02.873Z</time></trkpt><trkpt lat="45.8156852" lon="11.5624619"><ele>1172.8</ele><time>2026-04-19T13:16:03.868Z</time></trkpt><trkpt lat="45.8156318" lon="11.562354"><ele>1174.0</ele><time>2026-04-19T13:16:04.87Z</time></trkpt><trkpt lat="45.8155812" lon="11.5622345"><ele>1174.0</ele><time>2026-04-19T13:16:05.874Z</time></trkpt><trkpt lat="45.8155299" lon="11.5621075"><ele>1174.0</ele><time>2026-04-19T13:16:06.863Z</time></trkpt><trkpt lat="45.8154748" lon="11.5619762"><ele>1174.0</ele><time>2026-04-19T13:16:07.874Z</time></trkpt><trkpt lat="45.8154126" lon="11.5618439"><ele>1174.0</ele><time>2026-04-19T13:16:08.871Z</time></trkpt><trkpt lat="45.815347" lon="11.561711"><ele>1174.0</ele><time>2026-04-19T13:16:09.878Z</time></trkpt><trkpt lat="45.8152745" lon="11.5615782"><ele>1173.75</ele><time>2026-04-19T13:16:10.873Z</time></trkpt><trkpt lat="45.815196" lon="11.5614393"><ele>1173.5</ele><time>2026-04-19T13:16:11.874Z</time></trkpt><trkpt lat="45.8151153" lon="11.5613009"><ele>1173.25</ele><time>2026-04-19T13:16:12.872Z</time></trkpt><trkpt lat="45.8150373" lon="11.5611625"><ele>1173.0</ele><time>2026-04-19T13:16:13.874Z</time></trkpt><trkpt lat="45.8149562" lon="11.5610151"><ele>1174.0</ele><time>2026-04-19T13:16:14.876Z</time></trkpt><trkpt lat="45.814877" lon="11.5608741"><ele>1175.0</ele><time>2026-04-19T13:16:15.871Z</time></trkpt><trkpt lat="45.8147933" lon="11.5607431"><ele>1176.0</ele><time>2026-04-19T13:16:16.874Z</time></trkpt><trkpt lat="45.8147054" lon="11.5606184"><ele>1177.0</ele><time>2026-04-19T13:16:17.868Z</time></trkpt><trkpt lat="45.8146179" lon="11.5605054"><ele>1177.0</ele><time>2026-04-19T13:16:18.875Z</time></trkpt><trkpt lat="45.8145447" lon="11.5604129"><ele>1177.0</ele><time>2026-04-19T13:16:19.877Z</time></trkpt><trkpt lat="45.8144692" lon="11.5603144"><ele>1177.0</ele><time>2026-04-19T13:16:20.87Z</time></trkpt><trkpt lat="45.8144042" lon="11.5602126"><ele>1177.0</ele><time>2026-04-19T13:16:21.864Z</time></trkpt><trkpt lat="45.8143509" lon="11.5601079"><ele>1177.0</ele><time>2026-04-19T13:16:22.868Z</time></trkpt><trkpt lat="45.8142964" lon="11.5599903"><ele>1176.8</ele><time>2026-04-19T13:16:23.87Z</time></trkpt><trkpt lat="45.8142378" lon="11.5598705"><ele>1176.6</ele><time>2026-04-19T13:16:24.87Z</time></trkpt><trkpt lat="45.8141707" lon="11.5597586"><ele>1176.3999999999999</ele><time>2026-04-19T13:16:25.871Z</time></trkpt><trkpt lat="45.8140986" lon="11.5596624"><ele>1176.2</ele><time>2026-04-19T13:16:26.872Z</time></trkpt><trkpt lat="45.8140137" lon="11.5595738"><ele>1176.0</ele><time>2026-04-19T13:16:27.875Z</time></trkpt><trkpt lat="45.8139217" lon="11.5594947"><ele>1176.0</ele><time>2026-04-19T13:16:28.875Z</time></trkpt><trkpt lat="45.8138264" lon="11.5594207"><ele>1176.0</ele><time>2026-04-19T13:16:29.867Z</time></trkpt><trkpt lat="45.8137254" lon="11.5593431"><ele>1176.0</ele><time>2026-04-19T13:16:30.87Z</time></trkpt><trkpt lat="45.8136259" lon="11.5592685"><ele>1176.0</ele><time>2026-04-19T13:16:31.878Z</time></trkpt><trkpt lat="45.8135202" lon="11.5591936"><ele>1174.2</ele><time>2026-04-19T13:16:32.873Z</time></trkpt><trkpt lat="45.8134298" lon="11.559124"><ele>1172.3999999999999</ele><time>2026-04-19T13:16:33.873Z</time></trkpt><trkpt lat="45.8133449" lon="11.5590437"><ele>1170.6</ele><time>2026-04-19T13:16:34.872Z</time></trkpt><trkpt lat="45.8132595" lon="11.5589495"><ele>1168.8</ele><time>2026-04-19T13:16:35.875Z</time></trkpt><trkpt lat="45.8131755" lon="11.5588443"><ele>1167.0</ele><time>2026-04-19T13:16:36.869Z</time></trkpt><trkpt lat="45.813093" lon="11.5587319"><ele>1168.6</ele><time>2026-04-19T13:16:37.873Z</time></trkpt><trkpt lat="45.8130224" lon="11.5586247"><ele>1170.2</ele><time>2026-04-19T13:16:38.871Z</time></trkpt><trkpt lat="45.8129591" lon="11.5585229"><ele>1171.8</ele><time>2026-04-19T13:16:39.869Z</time></trkpt><trkpt lat="45.8128989" lon="11.5584243"><ele>1173.4</ele><time>2026-04-19T13:16:40.869Z</time></trkpt><trkpt lat="45.812835" lon="11.558332"><ele>1175.0</ele><time>2026-04-19T13:16:41.877Z</time></trkpt><trkpt lat="45.8127684" lon="11.55824"><ele>1175.0</ele><time>2026-04-19T13:16:42.867Z</time></trkpt><trkpt lat="45.8127024" lon="11.5581562"><ele>1175.0</ele><time>2026-04-19T13:16:43.873Z</time></trkpt><trkpt lat="45.8126309" lon="11.5580742"><ele>1175.0</ele><time>2026-04-19T13:16:44.87Z</time></trkpt><trkpt lat="45.8125561" lon="11.5579969"><ele>1175.0</ele><time>2026-04-19T13:16:45.87Z</time></trkpt><trkpt lat="45.8124754" lon="11.557918"><ele>1175.0</ele><time>2026-04-19T13:16:46.871Z</time></trkpt><trkpt lat="45.8123897" lon="11.5578401"><ele>1176.1666666666667</ele><time>2026-04-19T13:16:47.871Z</time></trkpt><trkpt lat="45.8123081" lon="11.5577717"><ele>1177.3333333333335</ele><time>2026-04-19T13:16:48.873Z</time></trkpt><trkpt lat="45.8122268" lon="11.5577083"><ele>1178.5</ele><time>2026-04-19T13:16:49.871Z</time></trkpt><trkpt lat="45.8121426" lon="11.5576452"><ele>1179.6666666666667</ele><time>2026-04-19T13:16:50.871Z</time></trkpt><trkpt lat="45.8120646" lon="11.5575868"><ele>1180.8333333333333</ele><time>2026-04-19T13:16:51.868Z</time></trkpt><trkpt lat="45.8119969" lon="11.5575282"><ele>1182.0</ele><time>2026-04-19T13:16:52.87Z</time></trkpt><trkpt lat="45.8119244" lon="11.557458"><ele>1182.0</ele><time>2026-04-19T13:16:53.872Z</time></trkpt><trkpt lat="45.8118534" lon="11.5573817"><ele>1182.0</ele><time>2026-04-19T13:16:54.869Z</time></trkpt><trkpt lat="45.8117886" lon="11.5573034"><ele>1182.0</ele><time>2026-04-19T13:16:55.877Z</time></trkpt><trkpt lat="45.8117254" lon="11.5572333"><ele>1182.0</ele><time>2026-04-19T13:16:56.874Z</time></trkpt><trkpt lat="45.8116667" lon="11.5571717"><ele>1182.0</ele><time>2026-04-19T13:16:57.87Z</time></trkpt><trkpt lat="45.8115985" lon="11.5571093"><ele>1182.0</ele><time>2026-04-19T13:16:58.87Z</time></trkpt><trkpt lat="45.8115289" lon="11.5570646"><ele>1182.6666666666667</ele><time>2026-04-19T13:16:59.866Z</time></trkpt><trkpt lat="45.8114582" lon="11.5570353"><ele>1183.3333333333333</ele><time>2026-04-19T13:17:00.879Z</time></trkpt><trkpt lat="45.8113774" lon="11.5570176"><ele>1184.0</ele><time>2026-04-19T13:17:01.87Z</time></trkpt><trkpt lat="45.8112923" lon="11.5570138"><ele>1184.6666666666665</ele><time>2026-04-19T13:17:02.868Z</time></trkpt><trkpt lat="45.8112061" lon="11.5570141"><ele>1185.3333333333333</ele><time>2026-04-19T13:17:03.867Z</time></trkpt><trkpt lat="45.811124" lon="11.557005"><ele>1186.0</ele><time>2026-04-19T13:17:04.873Z</time></trkpt><trkpt lat="45.8110378" lon="11.5569953"><ele>1185.6666666666665</ele><time>2026-04-19T13:17:05.875Z</time></trkpt><trkpt lat="45.8109632" lon="11.5570005"><ele>1185.3333333333333</ele><time>2026-04-19T13:17:06.881Z</time></trkpt><trkpt lat="45.8108927" lon="11.5570226"><ele>1185.0</ele><time>2026-04-19T13:17:07.871Z</time></trkpt><trkpt lat="45.8108238" lon="11.5570576"><ele>1184.6666666666667</ele><time>2026-04-19T13:17:08.868Z</time></trkpt><trkpt lat="45.8107526" lon="11.5571147"><ele>1184.3333333333335</ele><time>2026-04-19T13:17:09.871Z</time></trkpt><trkpt lat="45.8106759" lon="11.5571851"><ele>1184.0</ele><time>2026-04-19T13:17:10.869Z</time></trkpt><trkpt lat="45.8105938" lon="11.557252"><ele>1182.0</ele><time>2026-04-19T13:17:11.877Z</time></trkpt><trkpt lat="45.8105086" lon="11.5573172"><ele>1180.0</ele><time>2026-04-19T13:17:12.874Z</time></trkpt><trkpt lat="45.8104267" lon="11.5573869"><ele>1178.0</ele><time>2026-04-19T13:17:13.866Z</time></trkpt><trkpt lat="45.8103482" lon="11.5574583"><ele>1176.0</ele><time>2026-04-19T13:17:14.87Z</time></trkpt><trkpt lat="45.8102757" lon="11.5575251"><ele>1174.0</ele><time>2026-04-19T13:17:15.868Z</time></trkpt><trkpt lat="45.8101985" lon="11.5575938"><ele>1173.857142857143</ele><time>2026-04-19T13:17:16.867Z</time></trkpt><trkpt lat="45.8101412" lon="11.5576439"><ele>1173.7142857142858</ele><time>2026-04-19T13:17:17.873Z</time></trkpt><trkpt lat="45.8100838" lon="11.5576814"><ele>1173.5714285714287</ele><time>2026-04-19T13:17:18.865Z</time></trkpt><trkpt lat="45.8100195" lon="11.5576992"><ele>1173.4285714285716</ele><time>2026-04-19T13:17:19.867Z</time></trkpt><trkpt lat="45.8099447" lon="11.5577017"><ele>1173.2857142857142</ele><time>2026-04-19T13:17:20.87Z</time></trkpt><trkpt lat="45.809863" lon="11.5576942"><ele>1173.1428571428573</ele><time>2026-04-19T13:17:21.865Z</time></trkpt><trkpt lat="45.8097862" lon="11.5576757"><ele>1173.0</ele><time>2026-04-19T13:17:22.875Z</time></trkpt><trkpt lat="45.8097028" lon="11.5576543"><ele>1173.0</ele><time>2026-04-19T13:17:23.874Z</time></trkpt><trkpt lat="45.80962" lon="11.5576424"><ele>1173.0</ele><time>2026-04-19T13:17:24.872Z</time></trkpt><trkpt lat="45.8095449" lon="11.5576396"><ele>1173.0</ele><time>2026-04-19T13:17:25.871Z</time></trkpt><trkpt lat="45.8094579" lon="11.5576412"><ele>1173.0</ele><time>2026-04-19T13:17:26.868Z</time></trkpt><trkpt lat="45.8093732" lon="11.557649"><ele>1173.0</ele><time>2026-04-19T13:17:27.865Z</time></trkpt><trkpt lat="45.8092934" lon="11.5576567"><ele>1173.0</ele><time>2026-04-19T13:17:28.874Z</time></trkpt><trkpt lat="45.8092215" lon="11.557667"><ele>1173.0</ele><time>2026-04-19T13:17:29.866Z</time></trkpt><trkpt lat="45.8091531" lon="11.5576832"><ele>1173.0</ele><time>2026-04-19T13:17:30.876Z</time></trkpt><trkpt lat="45.8090842" lon="11.5576995"><ele>1173.0</ele><time>2026-04-19T13:17:31.866Z</time></trkpt><trkpt lat="45.8090182" lon="11.5577139"><ele>1173.0</ele><time>2026-04-19T13:17:32.867Z</time></trkpt><trkpt lat="45.8089043" lon="11.5577478"><ele>1173.0</ele><time>2026-04-19T13:17:34.878Z</time></trkpt><trkpt lat="45.8088353" lon="11.5577701"><ele>1173.0</ele><time>2026-04-19T13:17:36.874Z</time></trkpt><trkpt lat="45.8087624" lon="11.5578389"><ele>1172.1666666666667</ele><time>2026-04-19T13:19:46.875Z</time></trkpt><trkpt lat="45.808692" lon="11.5578992"><ele>1171.3333333333333</ele><time>2026-04-19T13:19:48.866Z</time></trkpt><trkpt lat="45.8086467" lon="11.5579674"><ele>1170.5</ele><time>2026-04-19T13:20:31.874Z</time></trkpt><trkpt lat="45.808538" lon="11.5580715"><ele>1169.6666666666665</ele><time>2026-04-19T13:20:33.871Z</time></trkpt><trkpt lat="45.8084679" lon="11.5581179"><ele>1168.8333333333333</ele><time>2026-04-19T13:20:34.872Z</time></trkpt><trkpt lat="45.8083943" lon="11.5581546"><ele>1168.0</ele><time>2026-04-19T13:20:35.869Z</time></trkpt><trkpt lat="45.8083109" lon="11.558186"><ele>1165.4</ele><time>2026-04-19T13:20:36.874Z</time></trkpt><trkpt lat="45.8082242" lon="11.5582146"><ele>1162.8</ele><time>2026-04-19T13:20:37.876Z</time></trkpt><trkpt lat="45.8081345" lon="11.5582383"><ele>1160.2</ele><time>2026-04-19T13:20:38.868Z</time></trkpt><trkpt lat="45.8080439" lon="11.5582484"><ele>1157.6</ele><time>2026-04-19T13:20:39.878Z</time></trkpt><trkpt lat="45.8079497" lon="11.5582487"><ele>1155.0</ele><time>2026-04-19T13:20:40.874Z</time></trkpt><trkpt lat="45.8078589" lon="11.5582347"><ele>1155.0</ele><time>2026-04-19T13:20:41.869Z</time></trkpt><trkpt lat="45.8077666" lon="11.5582215"><ele>1155.0</ele><time>2026-04-19T13:20:42.865Z</time></trkpt><trkpt lat="45.807674" lon="11.5581998"><ele>1155.0</ele><time>2026-04-19T13:20:43.865Z</time></trkpt><trkpt lat="45.8075829" lon="11.5581704"><ele>1155.0</ele><time>2026-04-19T13:20:44.877Z</time></trkpt><trkpt lat="45.8075027" lon="11.5581294"><ele>1155.0</ele><time>2026-04-19T13:20:45.875Z</time></trkpt><trkpt lat="45.8074345" lon="11.5580713"><ele>1155.0</ele><time>2026-04-19T13:20:46.879Z</time></trkpt><trkpt lat="45.8073728" lon="11.558005"><ele>1153.5</ele><time>2026-04-19T13:20:47.877Z</time></trkpt><trkpt lat="45.8073173" lon="11.557923"><ele>1152.0</ele><time>2026-04-19T13:20:48.869Z</time></trkpt><trkpt lat="45.8072694" lon="11.5578324"><ele>1150.5</ele><time>2026-04-19T13:20:49.866Z</time></trkpt><trkpt lat="45.8072224" lon="11.557738"><ele>1149.0</ele><time>2026-04-19T13:20:50.874Z</time></trkpt><trkpt lat="45.8071693" lon="11.557654"><ele>1147.5</ele><time>2026-04-19T13:20:51.868Z</time></trkpt><trkpt lat="45.8071206" lon="11.5575782"><ele>1146.0</ele><time>2026-04-19T13:20:52.87Z</time></trkpt><trkpt lat="45.8070668" lon="11.5575067"><ele>1145.5</ele><time>2026-04-19T13:20:53.881Z</time></trkpt><trkpt lat="45.8070054" lon="11.5574482"><ele>1145.0</ele><time>2026-04-19T13:20:54.876Z</time></trkpt><trkpt lat="45.8069281" lon="11.5573942"><ele>1144.5</ele><time>2026-04-19T13:20:55.881Z</time></trkpt><trkpt lat="45.8068434" lon="11.5573469"><ele>1144.0</ele><time>2026-04-19T13:20:56.884Z</time></trkpt><trkpt lat="45.8067614" lon="11.5573042"><ele>1143.5</ele><time>2026-04-19T13:20:57.867Z</time></trkpt><trkpt lat="45.806683" lon="11.5572542"><ele>1143.0</ele><time>2026-04-19T13:20:58.874Z</time></trkpt><trkpt lat="45.8066065" lon="11.5572013"><ele>1143.0</ele><time>2026-04-19T13:20:59.87Z</time></trkpt><trkpt lat="45.8065389" lon="11.5571336"><ele>1143.0</ele><time>2026-04-19T13:21:00.867Z</time></trkpt><trkpt lat="45.8064777" lon="11.5570543"><ele>1143.0</ele><time>2026-04-19T13:21:01.876Z</time></trkpt><trkpt lat="45.8064151" lon="11.556969"><ele>1143.0</ele><time>2026-04-19T13:21:02.876Z</time></trkpt><trkpt lat="45.8063523" lon="11.5568888"><ele>1143.0</ele><time>2026-04-19T13:21:03.879Z</time></trkpt><trkpt lat="45.8062972" lon="11.5568212"><ele>1143.0</ele><time>2026-04-19T13:21:04.88Z</time></trkpt><trkpt lat="45.8062437" lon="11.5567583"><ele>1142.1666666666667</ele><time>2026-04-19T13:21:05.868Z</time></trkpt><trkpt lat="45.8061539" lon="11.5566531"><ele>1141.3333333333333</ele><time>2026-04-19T13:21:07.876Z</time></trkpt><trkpt lat="45.8061014" lon="11.5565834"><ele>1140.5</ele><time>2026-04-19T13:21:09.872Z</time></trkpt><trkpt lat="45.8060366" lon="11.5565399"><ele>1139.6666666666665</ele><time>2026-04-19T13:21:33.867Z</time></trkpt><trkpt lat="45.8059636" lon="11.5564312"><ele>1138.8333333333333</ele><time>2026-04-19T13:21:35.882Z</time></trkpt><trkpt lat="45.8059069" lon="11.5563642"><ele>1138.0</ele><time>2026-04-19T13:21:36.871Z</time></trkpt><trkpt lat="45.8058452" lon="11.556292"><ele>1138.0</ele><time>2026-04-19T13:21:37.869Z</time></trkpt><trkpt lat="45.8057686" lon="11.5562107"><ele>1138.0</ele><time>2026-04-19T13:21:38.873Z</time></trkpt><trkpt lat="45.8056875" lon="11.5561234"><ele>1138.0</ele><time>2026-04-19T13:21:39.886Z</time></trkpt><trkpt lat="45.8056063" lon="11.55603"><ele>1138.0</ele><time>2026-04-19T13:21:40.867Z</time></trkpt><trkpt lat="45.8055255" lon="11.5559317"><ele>1138.0</ele><time>2026-04-19T13:21:41.871Z</time></trkpt><trkpt lat="45.8054494" lon="11.5558243"><ele>1140.4</ele><time>2026-04-19T13:21:42.865Z</time></trkpt><trkpt lat="45.8053811" lon="11.5557051"><ele>1142.8</ele><time>2026-04-19T13:21:43.864Z</time></trkpt><trkpt lat="45.8053162" lon="11.5555815"><ele>1145.2</ele><time>2026-04-19T13:21:44.862Z</time></trkpt><trkpt lat="45.8052461" lon="11.5554651"><ele>1147.6</ele><time>2026-04-19T13:21:45.867Z</time></trkpt><trkpt lat="45.8051684" lon="11.5553588"><ele>1150.0</ele><time>2026-04-19T13:21:46.862Z</time></trkpt><trkpt lat="45.8050868" lon="11.5552556"><ele>1150.0</ele><time>2026-04-19T13:21:47.869Z</time></trkpt><trkpt lat="45.8050025" lon="11.5551484"><ele>1150.0</ele><time>2026-04-19T13:21:48.863Z</time></trkpt><trkpt lat="45.8049187" lon="11.5550379"><ele>1150.0</ele><time>2026-04-19T13:21:49.862Z</time></trkpt><trkpt lat="45.8048405" lon="11.5549271"><ele>1150.0</ele><time>2026-04-19T13:21:50.865Z</time></trkpt><trkpt lat="45.8047632" lon="11.5548333"><ele>1150.0</ele><time>2026-04-19T13:21:51.868Z</time></trkpt><trkpt lat="45.8046834" lon="11.5547556"><ele>1150.0</ele><time>2026-04-19T13:21:52.868Z</time></trkpt><trkpt lat="45.8046074" lon="11.5546912"><ele>1150.0</ele><time>2026-04-19T13:21:53.869Z</time></trkpt><trkpt lat="45.8045324" lon="11.5546389"><ele>1150.0</ele><time>2026-04-19T13:21:54.872Z</time></trkpt><trkpt lat="45.8044525" lon="11.554593"><ele>1150.0</ele><time>2026-04-19T13:21:55.871Z</time></trkpt><trkpt lat="45.8043783" lon="11.5545498"><ele>1150.0</ele><time>2026-04-19T13:21:56.877Z</time></trkpt><trkpt lat="45.8043" lon="11.5545064"><ele>1150.0</ele><time>2026-04-19T13:21:57.87Z</time></trkpt><trkpt lat="45.8042218" lon="11.554462"><ele>1149.0</ele><time>2026-04-19T13:21:58.866Z</time></trkpt><trkpt lat="45.8041505" lon="11.5544147"><ele>1148.0</ele><time>2026-04-19T13:21:59.87Z</time></trkpt><trkpt lat="45.8040838" lon="11.5543543"><ele>1147.0</ele><time>2026-04-19T13:22:00.871Z</time></trkpt><trkpt lat="45.8040244" lon="11.5542867"><ele>1146.0</ele><time>2026-04-19T13:22:01.873Z</time></trkpt><trkpt lat="45.8039744" lon="11.5542121"><ele>1145.0</ele><time>2026-04-19T13:22:02.87Z</time></trkpt><trkpt lat="45.8039303" lon="11.5541383"><ele>1144.0</ele><time>2026-04-19T13:22:03.867Z</time></trkpt><trkpt lat="45.8038864" lon="11.5540718"><ele>1143.0</ele><time>2026-04-19T13:22:04.864Z</time></trkpt><trkpt lat="45.8038442" lon="11.5540021"><ele>1143.0</ele><time>2026-04-19T13:22:05.873Z</time></trkpt><trkpt lat="45.8037997" lon="11.5539187"><ele>1143.0</ele><time>2026-04-19T13:22:06.867Z</time></trkpt><trkpt lat="45.8037586" lon="11.553818"><ele>1143.0</ele><time>2026-04-19T13:22:07.866Z</time></trkpt><trkpt lat="45.8037157" lon="11.5537116"><ele>1143.0</ele><time>2026-04-19T13:22:08.876Z</time></trkpt><trkpt lat="45.8036721" lon="11.5535933"><ele>1143.0</ele><time>2026-04-19T13:22:09.871Z</time></trkpt><trkpt lat="45.8036245" lon="11.5534646"><ele>1143.0</ele><time>2026-04-19T13:22:10.864Z</time></trkpt><trkpt lat="45.8035702" lon="11.5533258"><ele>1143.2</ele><time>2026-04-19T13:22:11.872Z</time></trkpt><trkpt lat="45.8035056" lon="11.5531901"><ele>1143.4</ele><time>2026-04-19T13:22:12.871Z</time></trkpt><trkpt lat="45.8034441" lon="11.5530697"><ele>1143.6000000000001</ele><time>2026-04-19T13:22:13.864Z</time></trkpt><trkpt lat="45.8033782" lon="11.5529446"><ele>1143.8</ele><time>2026-04-19T13:22:14.869Z</time></trkpt><trkpt lat="45.8032814" lon="11.5528434"><ele>1144.0</ele><time>2026-04-19T13:22:15.87Z</time></trkpt><trkpt lat="45.8031825" lon="11.5527164"><ele>1144.0</ele><time>2026-04-19T13:22:16.874Z</time></trkpt><trkpt lat="45.8030883" lon="11.5526091"><ele>1144.0</ele><time>2026-04-19T13:22:17.876Z</time></trkpt><trkpt lat="45.802998" lon="11.5524996"><ele>1144.0</ele><time>2026-04-19T13:22:18.876Z</time></trkpt><trkpt lat="45.8029093" lon="11.5523808"><ele>1144.0</ele><time>2026-04-19T13:22:19.868Z</time></trkpt><trkpt lat="45.8028242" lon="11.5522659"><ele>1144.0</ele><time>2026-04-19T13:22:20.871Z</time></trkpt><trkpt lat="45.8027444" lon="11.5521627"><ele>1144.0</ele><time>2026-04-19T13:22:21.882Z</time></trkpt><trkpt lat="45.8026783" lon="11.5520566"><ele>1144.0</ele><time>2026-04-19T13:22:22.883Z</time></trkpt><trkpt lat="45.80262" lon="11.551949"><ele>1144.0</ele><time>2026-04-19T13:22:23.872Z</time></trkpt><trkpt lat="45.8025755" lon="11.5518279"><ele>1144.0</ele><time>2026-04-19T13:22:24.878Z</time></trkpt><trkpt lat="45.8025331" lon="11.5516845"><ele>1140.5</ele><time>2026-04-19T13:22:25.875Z</time></trkpt><trkpt lat="45.8024959" lon="11.5515156"><ele>1137.0</ele><time>2026-04-19T13:22:26.875Z</time></trkpt><trkpt lat="45.8024605" lon="11.5513524"><ele>1133.5</ele><time>2026-04-19T13:22:27.874Z</time></trkpt><trkpt lat="45.8024291" lon="11.5511961"><ele>1130.0</ele><time>2026-04-19T13:22:28.87Z</time></trkpt><trkpt lat="45.8024004" lon="11.5510287"><ele>1130.0</ele><time>2026-04-19T13:22:29.866Z</time></trkpt><trkpt lat="45.8023749" lon="11.5508619"><ele>1130.0</ele><time>2026-04-19T13:22:30.869Z</time></trkpt><trkpt lat="45.802353" lon="11.550706"><ele>1130.0</ele><time>2026-04-19T13:22:31.876Z</time></trkpt><trkpt lat="45.8023349" lon="11.5505557"><ele>1130.0</ele><time>2026-04-19T13:22:32.869Z</time></trkpt><trkpt lat="45.8023188" lon="11.550422"><ele>1130.0</ele><time>2026-04-19T13:22:33.874Z</time></trkpt><trkpt lat="45.8022977" lon="11.5503075"><ele>1130.8333333333335</ele><time>2026-04-19T13:22:34.871Z</time></trkpt><trkpt lat="45.8022657" lon="11.5502038"><ele>1131.6666666666667</ele><time>2026-04-19T13:22:35.873Z</time></trkpt><trkpt lat="45.8022225" lon="11.5501085"><ele>1132.5</ele><time>2026-04-19T13:22:36.877Z</time></trkpt><trkpt lat="45.8021577" lon="11.5500319"><ele>1133.3333333333333</ele><time>2026-04-19T13:22:37.869Z</time></trkpt><trkpt lat="45.8020736" lon="11.54996"><ele>1134.1666666666665</ele><time>2026-04-19T13:22:38.875Z</time></trkpt><trkpt lat="45.8019903" lon="11.5498898"><ele>1135.0</ele><time>2026-04-19T13:22:39.86Z</time></trkpt><trkpt lat="45.8019322" lon="11.5498382"><ele>1135.0</ele><time>2026-04-19T13:22:40.865Z</time></trkpt><trkpt lat="45.8018792" lon="11.5496768"><ele>1135.0</ele><time>2026-04-19T13:22:42.87Z</time></trkpt><trkpt lat="45.8018733" lon="11.5495521"><ele>1135.0</ele><time>2026-04-19T13:22:43.866Z</time></trkpt><trkpt lat="45.8018761" lon="11.5494104"><ele>1135.0</ele><time>2026-04-19T13:22:44.866Z</time></trkpt><trkpt lat="45.8018749" lon="11.5492538"><ele>1135.0</ele><time>2026-04-19T13:22:45.869Z</time></trkpt><trkpt lat="45.8018585" lon="11.5491164"><ele>1135.3333333333333</ele><time>2026-04-19T13:22:46.867Z</time></trkpt><trkpt lat="45.8018339" lon="11.5490116"><ele>1135.6666666666665</ele><time>2026-04-19T13:22:47.871Z</time></trkpt><trkpt lat="45.8017978" lon="11.5489296"><ele>1136.0</ele><time>2026-04-19T13:22:48.866Z</time></trkpt><trkpt lat="45.8017032" lon="11.5488458"><ele>1136.3333333333333</ele><time>2026-04-19T13:22:50.873Z</time></trkpt><trkpt lat="45.8016373" lon="11.5488479"><ele>1136.6666666666667</ele><time>2026-04-19T13:22:51.876Z</time></trkpt><trkpt lat="45.8015651" lon="11.5488758"><ele>1137.0</ele><time>2026-04-19T13:22:52.874Z</time></trkpt><trkpt lat="45.8014811" lon="11.5489262"><ele>1131.75</ele><time>2026-04-19T13:22:53.864Z</time></trkpt><trkpt lat="45.8013845" lon="11.5489866"><ele>1126.5</ele><time>2026-04-19T13:22:54.872Z</time></trkpt><trkpt lat="45.8012751" lon="11.5490475"><ele>1121.25</ele><time>2026-04-19T13:22:55.874Z</time></trkpt><trkpt lat="45.8011614" lon="11.549103"><ele>1116.0</ele><time>2026-04-19T13:22:56.869Z</time></trkpt><trkpt lat="45.8010456" lon="11.5491511"><ele>1115.8</ele><time>2026-04-19T13:22:57.874Z</time></trkpt><trkpt lat="45.8009295" lon="11.5491831"><ele>1115.6</ele><time>2026-04-19T13:22:58.871Z</time></trkpt><trkpt lat="45.8008143" lon="11.5492051"><ele>1115.4</ele><time>2026-04-19T13:22:59.872Z</time></trkpt><trkpt lat="45.8007063" lon="11.5492362"><ele>1115.2</ele><time>2026-04-19T13:23:00.877Z</time></trkpt><trkpt lat="45.80061" lon="11.5492849"><ele>1115.0</ele><time>2026-04-19T13:23:01.877Z</time></trkpt><trkpt lat="45.8005251" lon="11.5493535"><ele>1115.0</ele><time>2026-04-19T13:23:02.872Z</time></trkpt><trkpt lat="45.8004426" lon="11.549443"><ele>1115.0</ele><time>2026-04-19T13:23:03.878Z</time></trkpt><trkpt lat="45.8003671" lon="11.5495391"><ele>1115.0</ele><time>2026-04-19T13:23:04.872Z</time></trkpt><trkpt lat="45.8003013" lon="11.5495945"><ele>1115.0</ele><time>2026-04-19T13:23:05.872Z</time></trkpt><trkpt lat="45.8002299" lon="11.5496147"><ele>1115.0</ele><time>2026-04-19T13:23:06.869Z</time></trkpt><trkpt lat="45.8001457" lon="11.5496185"><ele>1115.0</ele><time>2026-04-19T13:23:07.878Z</time></trkpt><trkpt lat="45.800051" lon="11.5496197"><ele>1113.5</ele><time>2026-04-19T13:23:08.869Z</time></trkpt><trkpt lat="45.7999656" lon="11.5496402"><ele>1112.0</ele><time>2026-04-19T13:23:09.866Z</time></trkpt><trkpt lat="45.7998882" lon="11.5496827"><ele>1110.5</ele><time>2026-04-19T13:23:10.876Z</time></trkpt><trkpt lat="45.7998147" lon="11.5497499"><ele>1109.0</ele><time>2026-04-19T13:23:11.876Z</time></trkpt><trkpt lat="45.799748" lon="11.5498391"><ele>1107.5</ele><time>2026-04-19T13:23:12.869Z</time></trkpt><trkpt lat="45.7996816" lon="11.5499424"><ele>1106.0</ele><time>2026-04-19T13:23:13.87Z</time></trkpt><trkpt lat="45.7996099" lon="11.5500496"><ele>1106.0</ele><time>2026-04-19T13:23:14.876Z</time></trkpt><trkpt lat="45.7995352" lon="11.5501489"><ele>1106.0</ele><time>2026-04-19T13:23:15.871Z</time></trkpt><trkpt lat="45.7994619" lon="11.5502309"><ele>1106.0</ele><time>2026-04-19T13:23:16.878Z</time></trkpt><trkpt lat="45.7993843" lon="11.5502984"><ele>1106.0</ele><time>2026-04-19T13:23:17.878Z</time></trkpt><trkpt lat="45.7993019" lon="11.5503371"><ele>1106.0</ele><time>2026-04-19T13:23:18.866Z</time></trkpt><trkpt lat="45.7992134" lon="11.5503451"><ele>1107.0</ele><time>2026-04-19T13:23:19.874Z</time></trkpt><trkpt lat="45.7991153" lon="11.5503327"><ele>1108.0</ele><time>2026-04-19T13:23:20.875Z</time></trkpt><trkpt lat="45.7990141" lon="11.5503025"><ele>1109.0</ele><time>2026-04-19T13:23:21.873Z</time></trkpt><trkpt lat="45.7989149" lon="11.5502546"><ele>1110.0</ele><time>2026-04-19T13:23:22.869Z</time></trkpt><trkpt lat="45.7988176" lon="11.550196"><ele>1111.0</ele><time>2026-04-19T13:23:23.875Z</time></trkpt><trkpt lat="45.798728" lon="11.5501329"><ele>1111.0</ele><time>2026-04-19T13:23:24.875Z</time></trkpt><trkpt lat="45.7986374" lon="11.5500602"><ele>1111.0</ele><time>2026-04-19T13:23:25.867Z</time></trkpt><trkpt lat="45.7985588" lon="11.549978"><ele>1111.0</ele><time>2026-04-19T13:23:26.872Z</time></trkpt><trkpt lat="45.7984872" lon="11.5498846"><ele>1111.0</ele><time>2026-04-19T13:23:27.874Z</time></trkpt><trkpt lat="45.798428" lon="11.5497791"><ele>1111.0</ele><time>2026-04-19T13:23:28.867Z</time></trkpt><trkpt lat="45.7983875" lon="11.5496697"><ele>1109.0</ele><time>2026-04-19T13:23:29.867Z</time></trkpt><trkpt lat="45.798368" lon="11.549559"><ele>1107.0</ele><time>2026-04-19T13:23:30.865Z</time></trkpt><trkpt lat="45.7983686" lon="11.5494458"><ele>1105.0</ele><time>2026-04-19T13:23:31.867Z</time></trkpt><trkpt lat="45.7983858" lon="11.5493293"><ele>1103.0</ele><time>2026-04-19T13:23:32.868Z</time></trkpt><trkpt lat="45.7984045" lon="11.5492113"><ele>1101.0</ele><time>2026-04-19T13:23:33.872Z</time></trkpt><trkpt lat="45.7984105" lon="11.549102"><ele>1099.0</ele><time>2026-04-19T13:23:34.877Z</time></trkpt><trkpt lat="45.7983902" lon="11.549006"><ele>1099.0</ele><time>2026-04-19T13:23:35.873Z</time></trkpt><trkpt lat="45.7983468" lon="11.5489308"><ele>1099.0</ele><time>2026-04-19T13:23:36.872Z</time></trkpt><trkpt lat="45.7982817" lon="11.5488679"><ele>1099.0</ele><time>2026-04-19T13:23:37.869Z</time></trkpt><trkpt lat="45.7982003" lon="11.5488146"><ele>1099.0</ele><time>2026-04-19T13:23:38.865Z</time></trkpt><trkpt lat="45.7981141" lon="11.5487454"><ele>1099.0</ele><time>2026-04-19T13:23:39.871Z</time></trkpt><trkpt lat="45.7980375" lon="11.5486538"><ele>1099.0</ele><time>2026-04-19T13:23:40.874Z</time></trkpt><trkpt lat="45.7979756" lon="11.5485413"><ele>1100.8</ele><time>2026-04-19T13:23:41.871Z</time></trkpt><trkpt lat="45.7979215" lon="11.5484057"><ele>1102.6000000000001</ele><time>2026-04-19T13:23:42.868Z</time></trkpt><trkpt lat="45.7978678" lon="11.5482974"><ele>1104.4</ele><time>2026-04-19T13:23:43.869Z</time></trkpt><trkpt lat="45.7978049" lon="11.5482257"><ele>1106.2</ele><time>2026-04-19T13:23:44.88Z</time></trkpt><trkpt lat="45.7977281" lon="11.5481833"><ele>1108.0</ele><time>2026-04-19T13:23:45.867Z</time></trkpt><trkpt lat="45.797635" lon="11.5481609"><ele>1103.0</ele><time>2026-04-19T13:23:46.877Z</time></trkpt><trkpt lat="45.797535" lon="11.5481438"><ele>1098.0</ele><time>2026-04-19T13:23:47.871Z</time></trkpt><trkpt lat="45.7974281" lon="11.5481085"><ele>1093.0</ele><time>2026-04-19T13:23:48.869Z</time></trkpt><trkpt lat="45.7973173" lon="11.5480566"><ele>1088.0</ele><time>2026-04-19T13:23:49.866Z</time></trkpt><trkpt lat="45.7972023" lon="11.5479984"><ele>1083.0</ele><time>2026-04-19T13:23:50.872Z</time></trkpt><trkpt lat="45.7970848" lon="11.5479419"><ele>1083.0</ele><time>2026-04-19T13:23:51.881Z</time></trkpt><trkpt lat="45.7969702" lon="11.5479021"><ele>1083.0</ele><time>2026-04-19T13:23:52.872Z</time></trkpt><trkpt lat="45.7968558" lon="11.547868"><ele>1083.0</ele><time>2026-04-19T13:23:53.871Z</time></trkpt><trkpt lat="45.7967467" lon="11.5478396"><ele>1083.0</ele><time>2026-04-19T13:23:54.877Z</time></trkpt><trkpt lat="45.7966448" lon="11.5478133"><ele>1083.0</ele><time>2026-04-19T13:23:55.87Z</time></trkpt><trkpt lat="45.7965453" lon="11.5477846"><ele>1083.6666666666667</ele><time>2026-04-19T13:23:56.87Z</time></trkpt><trkpt lat="45.7964571" lon="11.5477557"><ele>1084.3333333333333</ele><time>2026-04-19T13:23:57.865Z</time></trkpt><trkpt lat="45.7963758" lon="11.5477172"><ele>1085.0</ele><time>2026-04-19T13:23:58.872Z</time></trkpt><trkpt lat="45.7962997" lon="11.5476692"><ele>1085.6666666666665</ele><time>2026-04-19T13:23:59.87Z</time></trkpt><trkpt lat="45.7962261" lon="11.5476062"><ele>1086.3333333333333</ele><time>2026-04-19T13:24:00.886Z</time></trkpt><trkpt lat="45.7961512" lon="11.5475227"><ele>1087.0</ele><time>2026-04-19T13:24:01.87Z</time></trkpt><trkpt lat="45.7960821" lon="11.5474289"><ele>1087.0</ele><time>2026-04-19T13:24:02.879Z</time></trkpt><trkpt lat="45.7960255" lon="11.5473392"><ele>1087.0</ele><time>2026-04-19T13:24:03.88Z</time></trkpt><trkpt lat="45.7959826" lon="11.5472494"><ele>1087.0</ele><time>2026-04-19T13:24:04.865Z</time></trkpt><trkpt lat="45.7959504" lon="11.5471667"><ele>1087.0</ele><time>2026-04-19T13:24:05.867Z</time></trkpt><trkpt lat="45.7959186" lon="11.5470268"><ele>1087.0</ele><time>2026-04-19T13:24:07.872Z</time></trkpt><trkpt lat="45.7958796" lon="11.5469409"><ele>1087.0</ele><time>2026-04-19T13:24:09.871Z</time></trkpt><trkpt lat="45.7958315" lon="11.5468514"><ele>1086.4</ele><time>2026-04-19T13:24:12.874Z</time></trkpt><trkpt lat="45.7958328" lon="11.5467509"><ele>1085.8000000000002</ele><time>2026-04-19T13:24:15.864Z</time></trkpt><trkpt lat="45.7958748" lon="11.5466701"><ele>1085.2</ele><time>2026-04-19T13:26:09.864Z</time></trkpt><trkpt lat="45.7959448" lon="11.5465474"><ele>1084.6000000000001</ele><time>2026-04-19T13:26:11.868Z</time></trkpt><trkpt lat="45.7960421" lon="11.5464393"><ele>1084.0</ele><time>2026-04-19T13:26:13.87Z</time></trkpt><trkpt lat="45.7961603" lon="11.5463806"><ele>1084.0</ele><time>2026-04-19T13:26:15.875Z</time></trkpt><trkpt lat="45.796225" lon="11.5463669"><ele>1084.0</ele><time>2026-04-19T13:26:16.869Z</time></trkpt><trkpt lat="45.796296" lon="11.5463732"><ele>1084.0</ele><time>2026-04-19T13:26:17.868Z</time></trkpt><trkpt lat="45.7963674" lon="11.5463877"><ele>1084.0</ele><time>2026-04-19T13:26:18.869Z</time></trkpt><trkpt lat="45.7964358" lon="11.54641"><ele>1084.0</ele><time>2026-04-19T13:26:19.866Z</time></trkpt><trkpt lat="45.7965071" lon="11.5464504"><ele>1084.0</ele><time>2026-04-19T13:26:20.868Z</time></trkpt><trkpt lat="45.7965758" lon="11.5464901"><ele>1084.0</ele><time>2026-04-19T13:26:21.871Z</time></trkpt><trkpt lat="45.7966399" lon="11.5465312"><ele>1084.0</ele><time>2026-04-19T13:26:22.866Z</time></trkpt><trkpt lat="45.7967029" lon="11.546572"><ele>1084.0</ele><time>2026-04-19T13:26:23.867Z</time></trkpt><trkpt lat="45.7967674" lon="11.5466119"><ele>1084.0</ele><time>2026-04-19T13:26:24.87Z</time></trkpt><trkpt lat="45.7968303" lon="11.5466544"><ele>1084.0</ele><time>2026-04-19T13:26:25.87Z</time></trkpt><trkpt lat="45.7969373" lon="11.5467116"><ele>1084.0</ele><time>2026-04-19T13:26:27.868Z</time></trkpt><trkpt lat="45.7970398" lon="11.5467458"><ele>1084.0</ele><time>2026-04-19T13:26:29.871Z</time></trkpt><trkpt lat="45.7971212" lon="11.5467396"><ele>1085.5</ele><time>2026-04-19T13:26:31.868Z</time></trkpt><trkpt lat="45.7972139" lon="11.5467033"><ele>1087.0</ele><time>2026-04-19T13:26:33.876Z</time></trkpt><trkpt lat="45.7973205" lon="11.5466227"><ele>1088.5</ele><time>2026-04-19T13:26:35.868Z</time></trkpt><trkpt lat="45.7973778" lon="11.5465781"><ele>1090.0</ele><time>2026-04-19T13:26:36.872Z</time></trkpt><trkpt lat="45.7974377" lon="11.5465301"><ele>1091.5</ele><time>2026-04-19T13:26:37.863Z</time></trkpt><trkpt lat="45.7974992" lon="11.5464791"><ele>1093.0</ele><time>2026-04-19T13:26:38.868Z</time></trkpt><trkpt lat="45.7975575" lon="11.546428"><ele>1093.0</ele><time>2026-04-19T13:26:39.869Z</time></trkpt><trkpt lat="45.7976135" lon="11.5463726"><ele>1093.0</ele><time>2026-04-19T13:26:40.868Z</time></trkpt><trkpt lat="45.797697" lon="11.5462515"><ele>1093.0</ele><time>2026-04-19T13:26:42.866Z</time></trkpt><trkpt lat="45.7977401" lon="11.5461604"><ele>1093.0</ele><time>2026-04-19T13:26:43.868Z</time></trkpt><trkpt lat="45.7977795" lon="11.5460678"><ele>1093.0</ele><time>2026-04-19T13:26:44.871Z</time></trkpt><trkpt lat="45.7978235" lon="11.5459742"><ele>1093.0</ele><time>2026-04-19T13:26:45.867Z</time></trkpt><trkpt lat="45.7978723" lon="11.5458819"><ele>1090.75</ele><time>2026-04-19T13:26:46.864Z</time></trkpt><trkpt lat="45.7979348" lon="11.5457422"><ele>1088.5</ele><time>2026-04-19T13:26:48.866Z</time></trkpt><trkpt lat="45.7979626" lon="11.5455822"><ele>1086.25</ele><time>2026-04-19T13:26:50.868Z</time></trkpt><trkpt lat="45.7979579" lon="11.5454887"><ele>1084.0</ele><time>2026-04-19T13:26:51.867Z</time></trkpt><trkpt lat="45.7965758" lon="11.5464901"><ele>1084.0</ele><time>2026-04-19T13:26:21.871Z</time></trkpt><trkpt lat="45.7966399" lon="11.5465312"><ele>1084.0</ele><time>2026-04-19T13:26:22.866Z</time></trkpt><trkpt lat="45.7967029" lon="11.546572"><ele>1084.0</ele><time>2026-04-19T13:26:23.867Z</time></trkpt><trkpt lat="45.7967674" lon="11.5466119"><ele>1084.0</ele><time>2026-04-19T13:26:24.87Z</time></trkpt><trkpt lat="45.7968303" lon="11.5466544"><ele>1084.0</ele><time>2026-04-19T13:26:25.87Z</time></trkpt><trkpt lat="45.7969373" lon="11.5467116"><ele>1084.0</ele><time>2026-04-19T13:26:27.868Z</time></trkpt><trkpt lat="45.7970398" lon="11.5467458"><ele>1085.5</ele><time>2026-04-19T13:26:29.871Z</time></trkpt><trkpt lat="45.7971212" lon="11.5467396"><ele>1087.0</ele><time>2026-04-19T13:26:31.868Z</time></trkpt><trkpt lat="45.7972139" lon="11.5467033"><ele>1088.5</ele><time>2026-04-19T13:26:33.876Z</time></trkpt><trkpt lat="45.7973205" lon="11.5466227"><ele>1090.0</ele><time>2026-04-19T13:26:35.868Z</time></trkpt><trkpt lat="45.7973778" lon="11.5465781"><ele>1091.5</ele><time>2026-04-19T13:26:36.872Z</time></trkpt><trkpt lat="45.7974377" lon="11.5465301"><ele>1093.0</ele><time>2026-04-19T13:26:37.863Z</time></trkpt><trkpt lat="45.7974992" lon="11.5464791"><ele>1093.0</ele><time>2026-04-19T13:26:38.868Z</time></trkpt><trkpt lat="45.7975575" lon="11.546428"><ele>1093.0</ele><time>2026-04-19T13:26:39.869Z</time></trkpt><trkpt lat="45.7976135" lon="11.5463726"><ele>1093.0</ele><time>2026-04-19T13:26:40.868Z</time></trkpt><trkpt lat="45.797697" lon="11.5462515"><ele>1093.0</ele><time>2026-04-19T13:26:42.866Z</time></trkpt><trkpt lat="45.7977401" lon="11.5461604"><ele>1093.0</ele><time>2026-04-19T13:26:43.868Z</time></trkpt><trkpt lat="45.7977795" lon="11.5460678"><ele>1093.0</ele><time>2026-04-19T13:26:44.871Z</time></trkpt><trkpt lat="45.7978235" lon="11.5459742"><ele>1097.4</ele><time>2026-04-19T13:26:45.867Z</time></trkpt><trkpt lat="45.7978723" lon="11.5458819"><ele>1101.8</ele><time>2026-04-19T13:26:46.864Z</time></trkpt><trkpt lat="45.7979348" lon="11.5457422"><ele>1106.2</ele><time>2026-04-19T13:26:48.866Z</time></trkpt><trkpt lat="45.7979626" lon="11.5455822"><ele>1110.6</ele><time>2026-04-19T13:26:50.868Z</time></trkpt><trkpt lat="45.7979579" lon="11.5454887"><ele>1115.0</ele><time>2026-04-19T13:26:51.867Z</time></trkpt><trkpt lat="45.7979418" lon="11.5453855"><ele>1115.1666666666667</ele><time>2026-04-19T13:26:52.867Z</time></trkpt><trkpt lat="45.7979179" lon="11.5452772"><ele>1115.3333333333335</ele><time>2026-04-19T13:26:53.864Z</time></trkpt><trkpt lat="45.7978941" lon="11.5451638"><ele>1115.5</ele><time>2026-04-19T13:26:54.863Z</time></trkpt><trkpt lat="45.7978755" lon="11.5450694"><ele>1115.6666666666667</ele><time>2026-04-19T13:26:55.87Z</time></trkpt><trkpt lat="45.7978563" lon="11.5449635"><ele>1115.8333333333333</ele><time>2026-04-19T13:26:56.868Z</time></trkpt><trkpt lat="45.7978355" lon="11.5448355"><ele>1116.0</ele><time>2026-04-19T13:26:57.868Z</time></trkpt><trkpt lat="45.7978236" lon="11.544706"><ele>1116.0</ele><time>2026-04-19T13:26:58.867Z</time></trkpt><trkpt lat="45.7978167" lon="11.54457"><ele>1116.0</ele><time>2026-04-19T13:26:59.868Z</time></trkpt><trkpt lat="45.7978107" lon="11.5444314"><ele>1116.0</ele><time>2026-04-19T13:27:00.877Z</time></trkpt><trkpt lat="45.7978062" lon="11.5442907"><ele>1116.0</ele><time>2026-04-19T13:27:01.879Z</time></trkpt><trkpt lat="45.7977997" lon="11.5441525"><ele>1116.0</ele><time>2026-04-19T13:27:02.867Z</time></trkpt><trkpt lat="45.7977924" lon="11.5440153"><ele>1116.8</ele><time>2026-04-19T13:27:03.871Z</time></trkpt><trkpt lat="45.7977886" lon="11.5438754"><ele>1117.6</ele><time>2026-04-19T13:27:04.861Z</time></trkpt><trkpt lat="45.79779" lon="11.5437348"><ele>1118.4</ele><time>2026-04-19T13:27:05.87Z</time></trkpt><trkpt lat="45.797798" lon="11.5435899"><ele>1119.2</ele><time>2026-04-19T13:27:06.874Z</time></trkpt><trkpt lat="45.7978143" lon="11.5434425"><ele>1120.0</ele><time>2026-04-19T13:27:07.873Z</time></trkpt><trkpt lat="45.7978338" lon="11.5432891"><ele>1120.0</ele><time>2026-04-19T13:27:08.875Z</time></trkpt><trkpt lat="45.7978551" lon="11.5431388"><ele>1120.0</ele><time>2026-04-19T13:27:09.872Z</time></trkpt><trkpt lat="45.7978749" lon="11.5430002"><ele>1120.0</ele><time>2026-04-19T13:27:10.864Z</time></trkpt><trkpt lat="45.7978931" lon="11.5428614"><ele>1120.0</ele><time>2026-04-19T13:27:11.873Z</time></trkpt><trkpt lat="45.7979128" lon="11.5427178"><ele>1120.0</ele><time>2026-04-19T13:27:12.871Z</time></trkpt><trkpt lat="45.7979317" lon="11.5425742"><ele>1119.4</ele><time>2026-04-19T13:27:13.871Z</time></trkpt><trkpt lat="45.7979553" lon="11.5424321"><ele>1118.8</ele><time>2026-04-19T13:27:14.864Z</time></trkpt><trkpt lat="45.7979836" lon="11.5422929"><ele>1118.2</ele><time>2026-04-19T13:27:15.862Z</time></trkpt><trkpt lat="45.7980142" lon="11.5421538"><ele>1117.6</ele><time>2026-04-19T13:27:16.866Z</time></trkpt><trkpt lat="45.7980427" lon="11.5420322"><ele>1117.0</ele><time>2026-04-19T13:27:17.873Z</time></trkpt><trkpt lat="45.7980753" lon="11.541913"><ele>1115.1666666666665</ele><time>2026-04-19T13:27:18.868Z</time></trkpt><trkpt lat="45.7981062" lon="11.5417971"><ele>1113.3333333333333</ele><time>2026-04-19T13:27:19.87Z</time></trkpt><trkpt lat="45.7981363" lon="11.5416726"><ele>1111.5</ele><time>2026-04-19T13:27:20.868Z</time></trkpt><trkpt lat="45.798164" lon="11.5415575"><ele>1109.6666666666667</ele><time>2026-04-19T13:27:21.865Z</time></trkpt><trkpt lat="45.7981982" lon="11.5414452"><ele>1107.8333333333335</ele><time>2026-04-19T13:27:22.87Z</time></trkpt><trkpt lat="45.7982357" lon="11.54133"><ele>1106.0</ele><time>2026-04-19T13:27:23.871Z</time></trkpt><trkpt lat="45.7982801" lon="11.5412204"><ele>1103.6</ele><time>2026-04-19T13:27:24.868Z</time></trkpt><trkpt lat="45.7983297" lon="11.541111"><ele>1101.1999999999998</ele><time>2026-04-19T13:27:25.863Z</time></trkpt><trkpt lat="45.7983894" lon="11.5410009"><ele>1098.8000000000002</ele><time>2026-04-19T13:27:26.872Z</time></trkpt><trkpt lat="45.7984449" lon="11.5408949"><ele>1096.4</ele><time>2026-04-19T13:27:27.866Z</time></trkpt><trkpt lat="45.7985047" lon="11.5407912"><ele>1094.0</ele><time>2026-04-19T13:27:28.87Z</time></trkpt><trkpt lat="45.7985624" lon="11.5406951"><ele>1097.1666666666667</ele><time>2026-04-19T13:27:29.871Z</time></trkpt><trkpt lat="45.798618" lon="11.5405988"><ele>1100.3333333333335</ele><time>2026-04-19T13:27:30.87Z</time></trkpt><trkpt lat="45.7986755" lon="11.540496"><ele>1103.5</ele><time>2026-04-19T13:27:31.868Z</time></trkpt><trkpt lat="45.7987303" lon="11.5404"><ele>1106.6666666666667</ele><time>2026-04-19T13:27:32.874Z</time></trkpt><trkpt lat="45.7987818" lon="11.5403052"><ele>1109.8333333333333</ele><time>2026-04-19T13:27:33.87Z</time></trkpt><trkpt lat="45.7988353" lon="11.5402121"><ele>1113.0</ele><time>2026-04-19T13:27:34.866Z</time></trkpt><trkpt lat="45.7988909" lon="11.5401258"><ele>1113.0</ele><time>2026-04-19T13:27:35.873Z</time></trkpt><trkpt lat="45.7989506" lon="11.540045"><ele>1113.0</ele><time>2026-04-19T13:27:36.869Z</time></trkpt><trkpt lat="45.7990173" lon="11.5399668"><ele>1113.0</ele><time>2026-04-19T13:27:37.883Z</time></trkpt><trkpt lat="45.7990854" lon="11.5398909"><ele>1113.0</ele><time>2026-04-19T13:27:38.865Z</time></trkpt><trkpt lat="45.7991429" lon="11.5398243"><ele>1113.0</ele><time>2026-04-19T13:27:39.875Z</time></trkpt><trkpt lat="45.7992214" lon="11.5396993"><ele>1113.0</ele><time>2026-04-19T13:27:41.867Z</time></trkpt><trkpt lat="45.7992532" lon="11.5395561"><ele>1113.8</ele><time>2026-04-19T13:27:43.865Z</time></trkpt><trkpt lat="45.7992377" lon="11.5394179"><ele>1114.6</ele><time>2026-04-19T13:27:45.873Z</time></trkpt><trkpt lat="45.799175" lon="11.539304"><ele>1115.4</ele><time>2026-04-19T13:27:47.867Z</time></trkpt><trkpt lat="45.7990679" lon="11.5392369"><ele>1116.2</ele><time>2026-04-19T13:27:49.877Z</time></trkpt><trkpt lat="45.7990001" lon="11.5392135"><ele>1117.0</ele><time>2026-04-19T13:27:50.868Z</time></trkpt><trkpt lat="45.7989272" lon="11.5391917"><ele>1117.0</ele><time>2026-04-19T13:27:51.864Z</time></trkpt><trkpt lat="45.7988534" lon="11.5391683"><ele>1117.0</ele><time>2026-04-19T13:27:52.868Z</time></trkpt><trkpt lat="45.7987696" lon="11.5391432"><ele>1117.0</ele><time>2026-04-19T13:27:53.862Z</time></trkpt><trkpt lat="45.7986921" lon="11.5391197"><ele>1117.0</ele><time>2026-04-19T13:27:54.867Z</time></trkpt><trkpt lat="45.7986127" lon="11.5390901"><ele>1117.0</ele><time>2026-04-19T13:27:55.87Z</time></trkpt><trkpt lat="45.7985334" lon="11.5390636"><ele>1117.0</ele><time>2026-04-19T13:27:56.863Z</time></trkpt><trkpt lat="45.7984207" lon="11.5390181"><ele>1118.6666666666665</ele><time>2026-04-19T13:27:58.864Z</time></trkpt><trkpt lat="45.7983138" lon="11.5389632"><ele>1120.3333333333333</ele><time>2026-04-19T13:28:00.88Z</time></trkpt><trkpt lat="45.7982205" lon="11.5388656"><ele>1122.0</ele><time>2026-04-19T13:28:02.867Z</time></trkpt><trkpt lat="45.7981747" lon="11.5387992"><ele>1123.6666666666667</ele><time>2026-04-19T13:28:03.868Z</time></trkpt><trkpt lat="45.7981331" lon="11.5387259"><ele>1125.3333333333335</ele><time>2026-04-19T13:28:04.869Z</time></trkpt><trkpt lat="45.7980961" lon="11.5386501"><ele>1127.0</ele><time>2026-04-19T13:28:05.862Z</time></trkpt><trkpt lat="45.7980555" lon="11.5385718"><ele>1127.0</ele><time>2026-04-19T13:28:06.868Z</time></trkpt><trkpt lat="45.7980156" lon="11.5384879"><ele>1127.0</ele><time>2026-04-19T13:28:07.862Z</time></trkpt><trkpt lat="45.7979717" lon="11.5384068"><ele>1127.0</ele><time>2026-04-19T13:28:08.869Z</time></trkpt><trkpt lat="45.7979235" lon="11.5383093"><ele>1127.0</ele><time>2026-04-19T13:28:09.867Z</time></trkpt><trkpt lat="45.7978691" lon="11.5382244"><ele>1127.0</ele><time>2026-04-19T13:28:10.862Z</time></trkpt><trkpt lat="45.7978312" lon="11.5381443"><ele>1127.0</ele><time>2026-04-19T13:28:11.868Z</time></trkpt><trkpt lat="45.7977889" lon="11.5380609"><ele>1127.0</ele><time>2026-04-19T13:28:12.866Z</time></trkpt><trkpt lat="45.7977467" lon="11.5379761"><ele>1127.0</ele><time>2026-04-19T13:28:13.867Z</time></trkpt><trkpt lat="45.7977049" lon="11.5378971"><ele>1127.0</ele><time>2026-04-19T13:28:14.862Z</time></trkpt><trkpt lat="45.7976685" lon="11.5378072"><ele>1127.0</ele><time>2026-04-19T13:28:15.864Z</time></trkpt><trkpt lat="45.7976348" lon="11.5377192"><ele>1127.0</ele><time>2026-04-19T13:28:16.869Z</time></trkpt><trkpt lat="45.7975854" lon="11.537583"><ele>1127.0</ele><time>2026-04-19T13:28:18.869Z</time></trkpt><trkpt lat="45.7975407" lon="11.5374437"><ele>1127.0</ele><time>2026-04-19T13:28:20.867Z</time></trkpt><trkpt lat="45.7974987" lon="11.5372888"><ele>1128.5</ele><time>2026-04-19T13:28:22.87Z</time></trkpt><trkpt lat="45.7974638" lon="11.5371443"><ele>1130.0</ele><time>2026-04-19T13:28:24.866Z</time></trkpt><trkpt lat="45.7974305" lon="11.5369837"><ele>1131.5</ele><time>2026-04-19T13:28:26.868Z</time></trkpt><trkpt lat="45.7973883" lon="11.5368328"><ele>1133.0</ele><time>2026-04-19T13:28:28.866Z</time></trkpt><trkpt lat="45.7973288" lon="11.5366937"><ele>1133.0</ele><time>2026-04-19T13:28:30.869Z</time></trkpt><trkpt lat="45.7972575" lon="11.5365736"><ele>1133.0</ele><time>2026-04-19T13:28:32.865Z</time></trkpt><trkpt lat="45.7971712" lon="11.536458"><ele>1133.0</ele><time>2026-04-19T13:28:34.869Z</time></trkpt><trkpt lat="45.7971223" lon="11.5363933"><ele>1133.0</ele><time>2026-04-19T13:28:35.871Z</time></trkpt><trkpt lat="45.7970733" lon="11.5363338"><ele>1133.0</ele><time>2026-04-19T13:28:36.866Z</time></trkpt><trkpt lat="45.7969824" lon="11.5362623"><ele>1131.8</ele><time>2026-04-19T13:28:38.873Z</time></trkpt><trkpt lat="45.7968892" lon="11.536177"><ele>1130.6</ele><time>2026-04-19T13:28:40.871Z</time></trkpt><trkpt lat="45.7968171" lon="11.5360929"><ele>1129.4</ele><time>2026-04-19T13:28:42.864Z</time></trkpt><trkpt lat="45.7967747" lon="11.5360041"><ele>1128.2</ele><time>2026-04-19T13:28:44.865Z</time></trkpt><trkpt lat="45.7967622" lon="11.5358652"><ele>1127.0</ele><time>2026-04-19T13:28:47.87Z</time></trkpt><trkpt lat="45.7967654" lon="11.5357156"><ele>1127.0</ele><time>2026-04-19T13:28:49.871Z</time></trkpt><trkpt lat="45.7967801" lon="11.5356261"><ele>1127.0</ele><time>2026-04-19T13:28:50.87Z</time></trkpt><trkpt lat="45.7968091" lon="11.5354536"><ele>1127.0</ele><time>2026-04-19T13:28:52.87Z</time></trkpt><trkpt lat="45.7968267" lon="11.5352831"><ele>1127.0</ele><time>2026-04-19T13:28:54.876Z</time></trkpt><trkpt lat="45.796863" lon="11.5351841"><ele>1127.0</ele><time>2026-04-19T13:28:55.862Z</time></trkpt><trkpt lat="45.796875" lon="11.5350648"><ele>1132.6666666666667</ele><time>2026-04-19T13:28:56.868Z</time></trkpt><trkpt lat="45.796887" lon="11.5349521"><ele>1138.3333333333335</ele><time>2026-04-19T13:28:57.869Z</time></trkpt><trkpt lat="45.7968917" lon="11.5348516"><ele>1144.0</ele><time>2026-04-19T13:28:58.867Z</time></trkpt><trkpt lat="45.7968949" lon="11.5347593"><ele>1149.6666666666667</ele><time>2026-04-19T13:28:59.867Z</time></trkpt><trkpt lat="45.7968993" lon="11.5345937"><ele>1155.3333333333333</ele><time>2026-04-19T13:29:01.869Z</time></trkpt><trkpt lat="45.7968767" lon="11.53444"><ele>1161.0</ele><time>2026-04-19T13:29:03.863Z</time></trkpt><trkpt lat="45.7968791" lon="11.5342864"><ele>1162.1666666666667</ele><time>2026-04-19T13:29:05.872Z</time></trkpt><trkpt lat="45.7968938" lon="11.5341237"><ele>1163.3333333333333</ele><time>2026-04-19T13:29:07.872Z</time></trkpt><trkpt lat="45.7969136" lon="11.534017"><ele>1164.5</ele><time>2026-04-19T13:29:08.867Z</time></trkpt><trkpt lat="45.7969226" lon="11.5339094"><ele>1165.6666666666665</ele><time>2026-04-19T13:29:09.867Z</time></trkpt><trkpt lat="45.796941" lon="11.5338216"><ele>1166.8333333333333</ele><time>2026-04-19T13:29:10.874Z</time></trkpt><trkpt lat="45.7969432" lon="11.5336766"><ele>1168.0</ele><time>2026-04-19T13:29:12.872Z</time></trkpt><trkpt lat="45.7969143" lon="11.5335386"><ele>1168.6666666666665</ele><time>2026-04-19T13:29:14.865Z</time></trkpt><trkpt lat="45.7968925" lon="11.5333636"><ele>1169.3333333333333</ele><time>2026-04-19T13:29:16.878Z</time></trkpt><trkpt lat="45.7968571" lon="11.5332686"><ele>1170.0</ele><time>2026-04-19T13:29:17.866Z</time></trkpt><trkpt lat="45.7968317" lon="11.5331788"><ele>1170.6666666666667</ele><time>2026-04-19T13:29:18.867Z</time></trkpt><trkpt lat="45.7968038" lon="11.533072"><ele>1171.3333333333335</ele><time>2026-04-19T13:29:20.872Z</time></trkpt><trkpt lat="45.7967735" lon="11.5329451"><ele>1172.0</ele><time>2026-04-19T13:29:22.868Z</time></trkpt><trkpt lat="45.7967728" lon="11.5328227"><ele>1165.0</ele><time>2026-04-19T13:29:24.867Z</time></trkpt><trkpt lat="45.7967897" lon="11.5326575"><ele>1158.0</ele><time>2026-04-19T13:29:26.867Z</time></trkpt><trkpt lat="45.7968285" lon="11.5324752"><ele>1151.0</ele><time>2026-04-19T13:29:28.863Z</time></trkpt><trkpt lat="45.7968008" lon="11.5322903"><ele>1144.0</ele><time>2026-04-19T13:29:30.871Z</time></trkpt><trkpt lat="45.7967756" lon="11.5321805"><ele>1144.0</ele><time>2026-04-19T13:29:31.87Z</time></trkpt><trkpt lat="45.7967532" lon="11.5320705"><ele>1144.0</ele><time>2026-04-19T13:29:32.866Z</time></trkpt><trkpt lat="45.7967236" lon="11.5319657"><ele>1144.0</ele><time>2026-04-19T13:29:33.878Z</time></trkpt><trkpt lat="45.7967093" lon="11.5318772"><ele>1144.0</ele><time>2026-04-19T13:29:34.869Z</time></trkpt><trkpt lat="45.7967008" lon="11.5317091"><ele>1144.0</ele><time>2026-04-19T13:29:36.866Z</time></trkpt><trkpt lat="45.7967149" lon="11.5315015"><ele>1144.1666666666665</ele><time>2026-04-19T13:29:38.869Z</time></trkpt><trkpt lat="45.7967309" lon="11.5314004"><ele>1144.3333333333333</ele><time>2026-04-19T13:29:39.862Z</time></trkpt><trkpt lat="45.7967639" lon="11.5313185"><ele>1144.5</ele><time>2026-04-19T13:29:40.875Z</time></trkpt><trkpt lat="45.7967864" lon="11.5311722"><ele>1144.6666666666667</ele><time>2026-04-19T13:29:42.873Z</time></trkpt><trkpt lat="45.7968154" lon="11.5310659"><ele>1144.8333333333335</ele><time>2026-04-19T13:29:44.867Z</time></trkpt><trkpt lat="45.7968661" lon="11.5309891"><ele>1145.0</ele><time>2026-04-19T13:29:56.881Z</time></trkpt><trkpt lat="45.7969352" lon="11.5308905"><ele>1150.3333333333335</ele><time>2026-04-19T13:29:59.87Z</time></trkpt><trkpt lat="45.7970042" lon="11.5307954"><ele>1155.6666666666667</ele><time>2026-04-19T13:30:01.875Z</time></trkpt><trkpt lat="45.7970725" lon="11.5306832"><ele>1161.0</ele><time>2026-04-19T13:30:03.872Z</time></trkpt><trkpt lat="45.7971104" lon="11.5305967"><ele>1166.3333333333333</ele><time>2026-04-19T13:30:05.867Z</time></trkpt><trkpt lat="45.7971366" lon="11.5305062"><ele>1171.6666666666665</ele><time>2026-04-19T13:30:07.876Z</time></trkpt><trkpt lat="45.7971765" lon="11.5304228"><ele>1177.0</ele><time>2026-04-19T13:30:09.87Z</time></trkpt><trkpt lat="45.7971966" lon="11.5303239"><ele>1177.6</ele><time>2026-04-19T13:30:11.877Z</time></trkpt><trkpt lat="45.7971932" lon="11.5302255"><ele>1178.2</ele><time>2026-04-19T13:30:41.871Z</time></trkpt><trkpt lat="45.7972035" lon="11.5299866"><ele>1178.8</ele><time>2026-04-19T13:30:43.869Z</time></trkpt><trkpt lat="45.7972147" lon="11.5298974"><ele>1179.4</ele><time>2026-04-19T13:30:44.864Z</time></trkpt><trkpt lat="45.7972307" lon="11.5297999"><ele>1180.0</ele><time>2026-04-19T13:30:45.87Z</time></trkpt><trkpt lat="45.797261" lon="11.5296246"><ele>1179.6666666666665</ele><time>2026-04-19T13:30:47.86Z</time></trkpt><trkpt lat="45.7972603" lon="11.5294724"><ele>1179.3333333333333</ele><time>2026-04-19T13:30:49.864Z</time></trkpt><trkpt lat="45.7972778" lon="11.52938"><ele>1179.0</ele><time>2026-04-19T13:30:50.866Z</time></trkpt><trkpt lat="45.7972957" lon="11.5292762"><ele>1178.6666666666667</ele><time>2026-04-19T13:30:51.866Z</time></trkpt><trkpt lat="45.7973246" lon="11.5291302"><ele>1178.3333333333335</ele><time>2026-04-19T13:30:53.861Z</time></trkpt><trkpt lat="45.7973449" lon="11.5290344"><ele>1178.0</ele><time>2026-04-19T13:30:54.879Z</time></trkpt><trkpt lat="45.7973623" lon="11.5289324"><ele>1178.0</ele><time>2026-04-19T13:30:55.866Z</time></trkpt><trkpt lat="45.797405" lon="11.5287824"><ele>1178.0</ele><time>2026-04-19T13:30:57.87Z</time></trkpt><trkpt lat="45.7974467" lon="11.5285971"><ele>1178.0</ele><time>2026-04-19T13:30:59.872Z</time></trkpt><trkpt lat="45.797464" lon="11.5285101"><ele>1178.0</ele><time>2026-04-19T13:31:00.869Z</time></trkpt><trkpt lat="45.7975011" lon="11.5283505"><ele>1178.0</ele><time>2026-04-19T13:31:02.873Z</time></trkpt><trkpt lat="45.7975217" lon="11.5282625"><ele>1176.8</ele><time>2026-04-19T13:31:03.862Z</time></trkpt><trkpt lat="45.7975567" lon="11.5280953"><ele>1175.6</ele><time>2026-04-19T13:31:05.87Z</time></trkpt><trkpt lat="45.7975779" lon="11.528004"><ele>1174.4</ele><time>2026-04-19T13:31:06.872Z</time></trkpt><trkpt lat="45.7975884" lon="11.5278499"><ele>1173.2</ele><time>2026-04-19T13:31:08.873Z</time></trkpt><trkpt lat="45.7976224" lon="11.527655"><ele>1172.0</ele><time>2026-04-19T13:31:10.869Z</time></trkpt><trkpt lat="45.7976342" lon="11.5275663"><ele>1171.2</ele><time>2026-04-19T13:31:11.87Z</time></trkpt><trkpt lat="45.7976625" lon="11.5274433"><ele>1170.4</ele><time>2026-04-19T13:31:13.869Z</time></trkpt><trkpt lat="45.7976752" lon="11.5272753"><ele>1169.6</ele><time>2026-04-19T13:31:15.878Z</time></trkpt><trkpt lat="45.7977061" lon="11.5271876"><ele>1168.8</ele><time>2026-04-19T13:31:16.875Z</time></trkpt><trkpt lat="45.7977215" lon="11.5270909"><ele>1168.0</ele><time>2026-04-19T13:31:17.866Z</time></trkpt><trkpt lat="45.7977367" lon="11.5269193"><ele>1176.6</ele><time>2026-04-19T13:31:19.865Z</time></trkpt><trkpt lat="45.797775" lon="11.5267451"><ele>1185.1999999999998</ele><time>2026-04-19T13:31:21.864Z</time></trkpt><trkpt lat="45.7977892" lon="11.5266526"><ele>1193.8</ele><time>2026-04-19T13:31:22.866Z</time></trkpt><trkpt lat="45.7978082" lon="11.5265572"><ele>1202.3999999999999</ele><time>2026-04-19T13:31:23.866Z</time></trkpt><trkpt lat="45.7978287" lon="11.5263952"><ele>1211.0</ele><time>2026-04-19T13:31:25.869Z</time></trkpt><trkpt lat="45.7978266" lon="11.5262388"><ele>1210.8333333333335</ele><time>2026-04-19T13:31:27.87Z</time></trkpt><trkpt lat="45.7978373" lon="11.5260981"><ele>1210.6666666666667</ele><time>2026-04-19T13:31:29.869Z</time></trkpt><trkpt lat="45.7978505" lon="11.5260052"><ele>1210.5</ele><time>2026-04-19T13:31:30.873Z</time></trkpt><trkpt lat="45.7978635" lon="11.5259111"><ele>1210.3333333333333</ele><time>2026-04-19T13:31:31.865Z</time></trkpt><trkpt lat="45.7978588" lon="11.5257332"><ele>1210.1666666666665</ele><time>2026-04-19T13:31:33.865Z</time></trkpt><trkpt lat="45.7978635" lon="11.5256312"><ele>1210.0</ele><time>2026-04-19T13:31:34.866Z</time></trkpt><trkpt lat="45.7978681" lon="11.5255293"><ele>1210.0</ele><time>2026-04-19T13:31:35.87Z</time></trkpt><trkpt lat="45.7978657" lon="11.5254233"><ele>1210.0</ele><time>2026-04-19T13:31:36.876Z</time></trkpt><trkpt lat="45.7978686" lon="11.5253257"><ele>1210.0</ele><time>2026-04-19T13:31:37.862Z</time></trkpt><trkpt lat="45.7978826" lon="11.525228"><ele>1210.0</ele><time>2026-04-19T13:31:38.864Z</time></trkpt><trkpt lat="45.7978919" lon="11.5250598"><ele>1210.0</ele><time>2026-04-19T13:31:40.878Z</time></trkpt><trkpt lat="45.7979079" lon="11.5248946"><ele>1210.0</ele><time>2026-04-19T13:31:42.866Z</time></trkpt><trkpt lat="45.7979244" lon="11.5247384"><ele>1210.2</ele><time>2026-04-19T13:31:44.864Z</time></trkpt><trkpt lat="45.7979357" lon="11.5246162"><ele>1210.4</ele><time>2026-04-19T13:31:46.868Z</time></trkpt><trkpt lat="45.7979428" lon="11.5244602"><ele>1210.6</ele><time>2026-04-19T13:31:48.871Z</time></trkpt><trkpt lat="45.7979339" lon="11.5242966"><ele>1210.8</ele><time>2026-04-19T13:31:50.873Z</time></trkpt><trkpt lat="45.7979351" lon="11.5241244"><ele>1211.0</ele><time>2026-04-19T13:31:52.867Z</time></trkpt><trkpt lat="45.7979225" lon="11.5239505"><ele>1211.6</ele><time>2026-04-19T13:31:54.864Z</time></trkpt><trkpt lat="45.7979216" lon="11.5237842"><ele>1212.1999999999998</ele><time>2026-04-19T13:31:56.87Z</time></trkpt><trkpt lat="45.7979129" lon="11.5236902"><ele>1212.8000000000002</ele><time>2026-04-19T13:31:57.872Z</time></trkpt><trkpt lat="45.7979012" lon="11.5235471"><ele>1213.4</ele><time>2026-04-19T13:31:59.874Z</time></trkpt><trkpt lat="45.7978759" lon="11.5233859"><ele>1214.0</ele><time>2026-04-19T13:32:01.867Z</time></trkpt><trkpt lat="45.7978476" lon="11.5232381"><ele>1214.0</ele><time>2026-04-19T13:32:03.868Z</time></trkpt><trkpt lat="45.7978347" lon="11.5231429"><ele>1214.0</ele><time>2026-04-19T13:32:04.878Z</time></trkpt><trkpt lat="45.7978192" lon="11.5229814"><ele>1214.0</ele><time>2026-04-19T13:32:06.868Z</time></trkpt><trkpt lat="45.7978258" lon="11.5228409"><ele>1214.0</ele><time>2026-04-19T13:32:08.876Z</time></trkpt><trkpt lat="45.7978209" lon="11.5227473"><ele>1214.0</ele><time>2026-04-19T13:32:09.87Z</time></trkpt><trkpt lat="45.797844" lon="11.5226441"><ele>1214.0</ele><time>2026-04-19T13:32:11.872Z</time></trkpt><trkpt lat="45.7978813" lon="11.5225192"><ele>1213.8333333333335</ele><time>2026-04-19T13:32:13.866Z</time></trkpt><trkpt lat="45.7979248" lon="11.5223866"><ele>1213.6666666666667</ele><time>2026-04-19T13:32:15.864Z</time></trkpt><trkpt lat="45.7979617" lon="11.522244"><ele>1213.5</ele><time>2026-04-19T13:32:17.879Z</time></trkpt><trkpt lat="45.7979931" lon="11.5221311"><ele>1213.3333333333333</ele><time>2026-04-19T13:32:19.866Z</time></trkpt><trkpt lat="45.798019" lon="11.5220351"><ele>1213.1666666666665</ele><time>2026-04-19T13:32:21.866Z</time></trkpt><trkpt lat="45.7980627" lon="11.5219406"><ele>1213.0</ele><time>2026-04-19T13:32:23.872Z</time></trkpt><trkpt lat="45.7981352" lon="11.5218676"><ele>1213.0</ele><time>2026-04-19T13:32:26.863Z</time></trkpt><trkpt lat="45.7981961" lon="11.5218307"><ele>1213.0</ele><time>2026-04-19T13:32:28.87Z</time></trkpt><trkpt lat="45.7982773" lon="11.5217769"><ele>1213.0</ele><time>2026-04-19T13:32:30.863Z</time></trkpt><trkpt lat="45.7983747" lon="11.5217241"><ele>1213.0</ele><time>2026-04-19T13:32:32.863Z</time></trkpt><trkpt lat="45.7984694" lon="11.5216611"><ele>1213.0</ele><time>2026-04-19T13:32:34.867Z</time></trkpt><trkpt lat="45.7985551" lon="11.5215795"><ele>1216.4</ele><time>2026-04-19T13:32:36.864Z</time></trkpt><trkpt lat="45.7986164" lon="11.5214947"><ele>1219.8</ele><time>2026-04-19T13:32:38.869Z</time></trkpt><trkpt lat="45.7986438" lon="11.5214047"><ele>1223.2</ele><time>2026-04-19T13:32:40.868Z</time></trkpt><trkpt lat="45.7986644" lon="11.5212642"><ele>1226.6</ele><time>2026-04-19T13:32:42.87Z</time></trkpt><trkpt lat="45.7986882" lon="11.5211166"><ele>1230.0</ele><time>2026-04-19T13:32:44.874Z</time></trkpt><trkpt lat="45.7987066" lon="11.5209607"><ele>1230.0</ele><time>2026-04-19T13:32:46.863Z</time></trkpt><trkpt lat="45.7987161" lon="11.5208398"><ele>1230.0</ele><time>2026-04-19T13:32:48.869Z</time></trkpt><trkpt lat="45.7987244" lon="11.520705"><ele>1230.0</ele><time>2026-04-19T13:32:50.872Z</time></trkpt><trkpt lat="45.7987422" lon="11.5205783"><ele>1230.0</ele><time>2026-04-19T13:32:52.879Z</time></trkpt><trkpt lat="45.7987697" lon="11.5204604"><ele>1230.0</ele><time>2026-04-19T13:32:54.87Z</time></trkpt><trkpt lat="45.7988218" lon="11.52037"><ele>1230.0</ele><time>2026-04-19T13:32:56.868Z</time></trkpt><trkpt lat="45.7988922" lon="11.5202899"><ele>1229.3333333333333</ele><time>2026-04-19T13:32:58.862Z</time></trkpt><trkpt lat="45.7989541" lon="11.5202469"><ele>1228.6666666666667</ele><time>2026-04-19T13:33:28.872Z</time></trkpt><trkpt lat="45.799029" lon="11.5201514"><ele>1228.0</ele><time>2026-04-19T13:33:30.875Z</time></trkpt><trkpt lat="45.7990749" lon="11.5200705"><ele>1227.3333333333335</ele><time>2026-04-19T13:33:31.866Z</time></trkpt><trkpt lat="45.7991246" lon="11.5199827"><ele>1226.6666666666667</ele><time>2026-04-19T13:33:32.866Z</time></trkpt><trkpt lat="45.7991809" lon="11.5198907"><ele>1226.0</ele><time>2026-04-19T13:33:33.863Z</time></trkpt><trkpt lat="45.7992409" lon="11.5197976"><ele>1226.0</ele><time>2026-04-19T13:33:34.872Z</time></trkpt><trkpt lat="45.7993055" lon="11.5197131"><ele>1226.0</ele><time>2026-04-19T13:33:35.868Z</time></trkpt><trkpt lat="45.7993727" lon="11.5196251"><ele>1226.0</ele><time>2026-04-19T13:33:36.866Z</time></trkpt><trkpt lat="45.7994416" lon="11.5195366"><ele>1226.0</ele><time>2026-04-19T13:33:37.867Z</time></trkpt><trkpt lat="45.7995061" lon="11.5194422"><ele>1226.0</ele><time>2026-04-19T13:33:38.866Z</time></trkpt><trkpt lat="45.7995569" lon="11.5193468"><ele>1226.0</ele><time>2026-04-19T13:33:39.869Z</time></trkpt><trkpt lat="45.799594" lon="11.519249"><ele>1227.8333333333335</ele><time>2026-04-19T13:33:40.873Z</time></trkpt><trkpt lat="45.7996177" lon="11.5191481"><ele>1229.6666666666667</ele><time>2026-04-19T13:33:41.87Z</time></trkpt><trkpt lat="45.7996438" lon="11.5190492"><ele>1231.5</ele><time>2026-04-19T13:33:42.868Z</time></trkpt><trkpt lat="45.7996785" lon="11.518952"><ele>1233.3333333333333</ele><time>2026-04-19T13:33:43.881Z</time></trkpt><trkpt lat="45.7997312" lon="11.5188505"><ele>1235.1666666666665</ele><time>2026-04-19T13:33:44.87Z</time></trkpt><trkpt lat="45.7997878" lon="11.5187415"><ele>1237.0</ele><time>2026-04-19T13:33:45.872Z</time></trkpt><trkpt lat="45.7998415" lon="11.5186273"><ele>1237.0</ele><time>2026-04-19T13:33:46.868Z</time></trkpt><trkpt lat="45.7998914" lon="11.5185098"><ele>1237.0</ele><time>2026-04-19T13:33:47.867Z</time></trkpt><trkpt lat="45.7999392" lon="11.5183975"><ele>1237.0</ele><time>2026-04-19T13:33:48.874Z</time></trkpt><trkpt lat="45.7999976" lon="11.5182682"><ele>1237.0</ele><time>2026-04-19T13:33:49.87Z</time></trkpt><trkpt lat="45.8000606" lon="11.5181417"><ele>1237.0</ele><time>2026-04-19T13:33:50.868Z</time></trkpt><trkpt lat="45.8001212" lon="11.5180232"><ele>1239.6</ele><time>2026-04-19T13:33:51.866Z</time></trkpt><trkpt lat="45.8001836" lon="11.5179045"><ele>1242.2</ele><time>2026-04-19T13:33:52.865Z</time></trkpt><trkpt lat="45.8002351" lon="11.5177881"><ele>1244.8</ele><time>2026-04-19T13:33:53.865Z</time></trkpt><trkpt lat="45.8002751" lon="11.5176683"><ele>1247.4</ele><time>2026-04-19T13:33:54.863Z</time></trkpt><trkpt lat="45.8003025" lon="11.517541"><ele>1250.0</ele><time>2026-04-19T13:33:55.867Z</time></trkpt><trkpt lat="45.8003203" lon="11.5174042"><ele>1250.0</ele><time>2026-04-19T13:33:56.868Z</time></trkpt><trkpt lat="45.8003237" lon="11.5172612"><ele>1250.0</ele><time>2026-04-19T13:33:57.872Z</time></trkpt><trkpt lat="45.8003135" lon="11.5171268"><ele>1250.0</ele><time>2026-04-19T13:33:58.872Z</time></trkpt><trkpt lat="45.8002892" lon="11.5169961"><ele>1250.0</ele><time>2026-04-19T13:33:59.868Z</time></trkpt><trkpt lat="45.8002532" lon="11.5168652"><ele>1250.0</ele><time>2026-04-19T13:34:00.87Z</time></trkpt><trkpt lat="45.8002187" lon="11.5167347"><ele>1248.8</ele><time>2026-04-19T13:34:01.87Z</time></trkpt><trkpt lat="45.8001863" lon="11.5165957"><ele>1247.6</ele><time>2026-04-19T13:34:02.868Z</time></trkpt><trkpt lat="45.8001604" lon="11.5164557"><ele>1246.4</ele><time>2026-04-19T13:34:03.87Z</time></trkpt><trkpt lat="45.8001427" lon="11.5163182"><ele>1245.2</ele><time>2026-04-19T13:34:04.869Z</time></trkpt><trkpt lat="45.8001392" lon="11.5161809"><ele>1244.0</ele><time>2026-04-19T13:34:05.867Z</time></trkpt><trkpt lat="45.8001491" lon="11.5160401"><ele>1244.0</ele><time>2026-04-19T13:34:06.865Z</time></trkpt><trkpt lat="45.8001769" lon="11.5159022"><ele>1244.0</ele><time>2026-04-19T13:34:07.872Z</time></trkpt><trkpt lat="45.800206" lon="11.5157634"><ele>1244.0</ele><time>2026-04-19T13:34:08.869Z</time></trkpt><trkpt lat="45.8002172" lon="11.515614"><ele>1244.0</ele><time>2026-04-19T13:34:09.872Z</time></trkpt><trkpt lat="45.8002081" lon="11.5154587"><ele>1244.0</ele><time>2026-04-19T13:34:10.866Z</time></trkpt><trkpt lat="45.8001853" lon="11.515299"><ele>1242.0</ele><time>2026-04-19T13:34:11.868Z</time></trkpt><trkpt lat="45.8001618" lon="11.51515"><ele>1240.0</ele><time>2026-04-19T13:34:12.876Z</time></trkpt><trkpt lat="45.8001508" lon="11.5150063"><ele>1238.0</ele><time>2026-04-19T13:34:13.871Z</time></trkpt><trkpt lat="45.8001509" lon="11.5148623"><ele>1236.0</ele><time>2026-04-19T13:34:14.865Z</time></trkpt><trkpt lat="45.8001639" lon="11.5146997"><ele>1234.0</ele><time>2026-04-19T13:34:15.866Z</time></trkpt><trkpt lat="45.800187" lon="11.5145278"><ele>1234.0</ele><time>2026-04-19T13:34:16.865Z</time></trkpt><trkpt lat="45.8002174" lon="11.5143438"><ele>1234.0</ele><time>2026-04-19T13:34:17.863Z</time></trkpt><trkpt lat="45.800241" lon="11.5141663"><ele>1234.0</ele><time>2026-04-19T13:34:18.869Z</time></trkpt><trkpt lat="45.8002638" lon="11.5139944"><ele>1234.0</ele><time>2026-04-19T13:34:19.866Z</time></trkpt><trkpt lat="45.8002807" lon="11.5138284"><ele>1233.0</ele><time>2026-04-19T13:34:20.865Z</time></trkpt><trkpt lat="45.8002839" lon="11.5136609"><ele>1232.0</ele><time>2026-04-19T13:34:21.866Z</time></trkpt><trkpt lat="45.8002737" lon="11.5134934"><ele>1231.0</ele><time>2026-04-19T13:34:22.869Z</time></trkpt><trkpt lat="45.8002637" lon="11.5133271"><ele>1230.0</ele><time>2026-04-19T13:34:23.867Z</time></trkpt><trkpt lat="45.8002543" lon="11.5131707"><ele>1230.0</ele><time>2026-04-19T13:34:24.871Z</time></trkpt><trkpt lat="45.8002452" lon="11.5130191"><ele>1230.0</ele><time>2026-04-19T13:34:25.866Z</time></trkpt><trkpt lat="45.8002238" lon="11.5128722"><ele>1230.0</ele><time>2026-04-19T13:34:26.864Z</time></trkpt><trkpt lat="45.8001975" lon="11.512735"><ele>1230.0</ele><time>2026-04-19T13:34:27.866Z</time></trkpt><trkpt lat="45.8001564" lon="11.5126042"><ele>1230.0</ele><time>2026-04-19T13:34:28.866Z</time></trkpt><trkpt lat="45.8000997" lon="11.5124785"><ele>1223.6</ele><time>2026-04-19T13:34:29.866Z</time></trkpt><trkpt lat="45.800034" lon="11.5123549"><ele>1217.2</ele><time>2026-04-19T13:34:30.868Z</time></trkpt><trkpt lat="45.7999734" lon="11.5122371"><ele>1210.8</ele><time>2026-04-19T13:34:31.867Z</time></trkpt><trkpt lat="45.7999194" lon="11.5121303"><ele>1204.4</ele><time>2026-04-19T13:34:32.866Z</time></trkpt><trkpt lat="45.7998805" lon="11.5120182"><ele>1198.0</ele><time>2026-04-19T13:34:33.868Z</time></trkpt><trkpt lat="45.7998527" lon="11.5119056"><ele>1198.0</ele><time>2026-04-19T13:34:34.868Z</time></trkpt><trkpt lat="45.7998578" lon="11.5117601"><ele>1198.0</ele><time>2026-04-19T13:34:35.868Z</time></trkpt><trkpt lat="45.7998718" lon="11.5116051"><ele>1198.0</ele><time>2026-04-19T13:34:36.875Z</time></trkpt><trkpt lat="45.7998927" lon="11.5114286"><ele>1198.0</ele><time>2026-04-19T13:34:37.87Z</time></trkpt><trkpt lat="45.799916" lon="11.5112565"><ele>1197.0</ele><time>2026-04-19T13:34:38.868Z</time></trkpt><trkpt lat="45.7999405" lon="11.5110959"><ele>1196.0</ele><time>2026-04-19T13:34:39.865Z</time></trkpt><trkpt lat="45.7999675" lon="11.5109502"><ele>1195.0</ele><time>2026-04-19T13:34:40.866Z</time></trkpt><trkpt lat="45.7999889" lon="11.5108176"><ele>1194.0</ele><time>2026-04-19T13:34:41.878Z</time></trkpt><trkpt lat="45.8000074" lon="11.5106957"><ele>1193.0</ele><time>2026-04-19T13:34:42.869Z</time></trkpt><trkpt lat="45.8000072" lon="11.5105739"><ele>1193.0</ele><time>2026-04-19T13:34:43.876Z</time></trkpt><trkpt lat="45.7999884" lon="11.5104585"><ele>1193.0</ele><time>2026-04-19T13:34:44.868Z</time></trkpt><trkpt lat="45.7999499" lon="11.5103474"><ele>1193.0</ele><time>2026-04-19T13:34:45.868Z</time></trkpt><trkpt lat="45.7998963" lon="11.5102401"><ele>1193.0</ele><time>2026-04-19T13:34:46.867Z</time></trkpt><trkpt lat="45.7998244" lon="11.5101347"><ele>1193.0</ele><time>2026-04-19T13:34:47.864Z</time></trkpt><trkpt lat="45.7997438" lon="11.5100509"><ele>1192.2</ele><time>2026-04-19T13:34:48.871Z</time></trkpt><trkpt lat="45.7996613" lon="11.5099869"><ele>1191.4</ele><time>2026-04-19T13:34:49.875Z</time></trkpt><trkpt lat="45.799588" lon="11.5099271"><ele>1190.6000000000001</ele><time>2026-04-19T13:34:50.864Z</time></trkpt><trkpt lat="45.799528" lon="11.5098435"><ele>1189.8</ele><time>2026-04-19T13:34:51.866Z</time></trkpt><trkpt lat="45.7994745" lon="11.5097385"><ele>1189.0</ele><time>2026-04-19T13:34:52.864Z</time></trkpt><trkpt lat="45.7994198" lon="11.5096161"><ele>1189.3333333333333</ele><time>2026-04-19T13:34:53.865Z</time></trkpt><trkpt lat="45.7993776" lon="11.5094975"><ele>1189.6666666666665</ele><time>2026-04-19T13:34:54.868Z</time></trkpt><trkpt lat="45.7993423" lon="11.5093833"><ele>1190.0</ele><time>2026-04-19T13:34:55.864Z</time></trkpt><trkpt lat="45.7993271" lon="11.5092751"><ele>1190.3333333333333</ele><time>2026-04-19T13:34:56.867Z</time></trkpt><trkpt lat="45.7993332" lon="11.5091642"><ele>1190.6666666666667</ele><time>2026-04-19T13:34:57.871Z</time></trkpt><trkpt lat="45.7993568" lon="11.5090461"><ele>1191.0</ele><time>2026-04-19T13:34:58.871Z</time></trkpt><trkpt lat="45.7993909" lon="11.5089091"><ele>1191.0</ele><time>2026-04-19T13:34:59.865Z</time></trkpt><trkpt lat="45.7994219" lon="11.5087628"><ele>1191.0</ele><time>2026-04-19T13:35:00.87Z</time></trkpt><trkpt lat="45.7994449" lon="11.5086216"><ele>1191.0</ele><time>2026-04-19T13:35:01.864Z</time></trkpt><trkpt lat="45.7994566" lon="11.5084791"><ele>1191.0</ele><time>2026-04-19T13:35:02.868Z</time></trkpt><trkpt lat="45.7994558" lon="11.5083396"><ele>1191.0</ele><time>2026-04-19T13:35:03.87Z</time></trkpt><trkpt lat="45.7994464" lon="11.5081971"><ele>1190.5</ele><time>2026-04-19T13:35:04.871Z</time></trkpt><trkpt lat="45.7994269" lon="11.5080399"><ele>1190.0</ele><time>2026-04-19T13:35:05.869Z</time></trkpt><trkpt lat="45.7994029" lon="11.5078699"><ele>1189.5</ele><time>2026-04-19T13:35:06.87Z</time></trkpt><trkpt lat="45.7993732" lon="11.5076896"><ele>1189.0</ele><time>2026-04-19T13:35:07.877Z</time></trkpt><trkpt lat="45.7993419" lon="11.5075009"><ele>1183.5</ele><time>2026-04-19T13:35:08.866Z</time></trkpt><trkpt lat="45.7993032" lon="11.5073096"><ele>1178.0</ele><time>2026-04-19T13:35:09.871Z</time></trkpt><trkpt lat="45.7992576" lon="11.5071235"><ele>1172.5</ele><time>2026-04-19T13:35:10.867Z</time></trkpt><trkpt lat="45.7992025" lon="11.5069514"><ele>1167.0</ele><time>2026-04-19T13:35:11.872Z</time></trkpt><trkpt lat="45.7991374" lon="11.5067911"><ele>1167.0</ele><time>2026-04-19T13:35:12.862Z</time></trkpt><trkpt lat="45.7990649" lon="11.5066368"><ele>1167.0</ele><time>2026-04-19T13:35:13.866Z</time></trkpt><trkpt lat="45.7989966" lon="11.5065076"><ele>1167.0</ele><time>2026-04-19T13:35:14.872Z</time></trkpt><trkpt lat="45.7989332" lon="11.5063908"><ele>1167.0</ele><time>2026-04-19T13:35:15.871Z</time></trkpt><trkpt lat="45.7988815" lon="11.5062684"><ele>1167.0</ele><time>2026-04-19T13:35:16.866Z</time></trkpt><trkpt lat="45.798847" lon="11.5061254"><ele>1167.5</ele><time>2026-04-19T13:35:17.862Z</time></trkpt><trkpt lat="45.7988228" lon="11.5059752"><ele>1168.0</ele><time>2026-04-19T13:35:18.864Z</time></trkpt><trkpt lat="45.798805" lon="11.5058304"><ele>1168.5</ele><time>2026-04-19T13:35:19.863Z</time></trkpt><trkpt lat="45.7987911" lon="11.5057241"><ele>1169.0</ele><time>2026-04-19T13:35:20.866Z</time></trkpt><trkpt lat="45.7987484" lon="11.5056033"><ele>1169.5</ele><time>2026-04-19T13:35:22.863Z</time></trkpt><trkpt lat="45.7986837" lon="11.5056261"><ele>1170.0</ele><time>2026-04-19T13:35:24.869Z</time></trkpt><trkpt lat="45.7986753" lon="11.505773"><ele>1170.0</ele><time>2026-04-19T13:35:26.875Z</time></trkpt><trkpt lat="45.7986921" lon="11.5058917"><ele>1170.0</ele><time>2026-04-19T13:35:27.869Z</time></trkpt><trkpt lat="45.7987102" lon="11.5060227"><ele>1170.0</ele><time>2026-04-19T13:35:28.871Z</time></trkpt><trkpt lat="45.7987274" lon="11.5061756"><ele>1170.0</ele><time>2026-04-19T13:35:29.868Z</time></trkpt><trkpt lat="45.7987503" lon="11.506351"><ele>1170.0</ele><time>2026-04-19T13:35:30.87Z</time></trkpt><trkpt lat="45.7987792" lon="11.5065367"><ele>1169.25</ele><time>2026-04-19T13:35:31.864Z</time></trkpt><trkpt lat="45.7988131" lon="11.5067311"><ele>1168.5</ele><time>2026-04-19T13:35:32.866Z</time></trkpt><trkpt lat="45.7988503" lon="11.506919"><ele>1167.75</ele><time>2026-04-19T13:35:33.866Z</time></trkpt><trkpt lat="45.7988738" lon="11.5071009"><ele>1167.0</ele><time>2026-04-19T13:35:34.872Z</time></trkpt><trkpt lat="45.7988796" lon="11.5072816"><ele>1167.0</ele><time>2026-04-19T13:35:35.871Z</time></trkpt><trkpt lat="45.7988659" lon="11.5074641"><ele>1167.0</ele><time>2026-04-19T13:35:36.869Z</time></trkpt><trkpt lat="45.798839" lon="11.5076522"><ele>1167.0</ele><time>2026-04-19T13:35:37.865Z</time></trkpt><trkpt lat="45.7987984" lon="11.5078352"><ele>1167.0</ele><time>2026-04-19T13:35:38.873Z</time></trkpt><trkpt lat="45.7987501" lon="11.5080061"><ele>1167.0</ele><time>2026-04-19T13:35:39.868Z</time></trkpt><trkpt lat="45.7986895" lon="11.5081792"><ele>1167.0</ele><time>2026-04-19T13:35:40.865Z</time></trkpt><trkpt lat="45.7986243" lon="11.5083462"><ele>1167.0</ele><time>2026-04-19T13:35:41.862Z</time></trkpt><trkpt lat="45.7985621" lon="11.508503"><ele>1167.0</ele><time>2026-04-19T13:35:42.873Z</time></trkpt><trkpt lat="45.7985113" lon="11.508638"><ele>1164.3333333333333</ele><time>2026-04-19T13:35:43.861Z</time></trkpt><trkpt lat="45.798467" lon="11.5087529"><ele>1161.6666666666667</ele><time>2026-04-19T13:35:44.871Z</time></trkpt><trkpt lat="45.7984266" lon="11.5088598"><ele>1159.0</ele><time>2026-04-19T13:35:45.864Z</time></trkpt><trkpt lat="45.7983796" lon="11.5089437"><ele>1156.3333333333335</ele><time>2026-04-19T13:35:46.868Z</time></trkpt><trkpt lat="45.7983208" lon="11.5090012"><ele>1153.6666666666667</ele><time>2026-04-19T13:35:47.872Z</time></trkpt><trkpt lat="45.7982584" lon="11.509026"><ele>1151.0</ele><time>2026-04-19T13:35:48.874Z</time></trkpt><trkpt lat="45.798146" lon="11.5089547"><ele>1151.0</ele><time>2026-04-19T13:35:50.863Z</time></trkpt><trkpt lat="45.7981053" lon="11.5088689"><ele>1151.0</ele><time>2026-04-19T13:35:51.87Z</time></trkpt><trkpt lat="45.7980722" lon="11.5087659"><ele>1151.0</ele><time>2026-04-19T13:35:52.87Z</time></trkpt><trkpt lat="45.7980406" lon="11.5086568"><ele>1151.0</ele><time>2026-04-19T13:35:53.863Z</time></trkpt><trkpt lat="45.7980094" lon="11.5085507"><ele>1151.0</ele><time>2026-04-19T13:35:54.867Z</time></trkpt><trkpt lat="45.7979661" lon="11.5084485"><ele>1151.0</ele><time>2026-04-19T13:35:55.863Z</time></trkpt><trkpt lat="45.797904" lon="11.5083622"><ele>1149.2</ele><time>2026-04-19T13:35:56.868Z</time></trkpt><trkpt lat="45.7978243" lon="11.5082778"><ele>1147.3999999999999</ele><time>2026-04-19T13:35:57.868Z</time></trkpt><trkpt lat="45.7977375" lon="11.5081872"><ele>1145.6</ele><time>2026-04-19T13:35:58.867Z</time></trkpt><trkpt lat="45.7976449" lon="11.5080929"><ele>1143.8</ele><time>2026-04-19T13:35:59.862Z</time></trkpt><trkpt lat="45.7975466" lon="11.5079999"><ele>1142.0</ele><time>2026-04-19T13:36:00.863Z</time></trkpt><trkpt lat="45.7974471" lon="11.5079059"><ele>1137.5</ele><time>2026-04-19T13:36:01.868Z</time></trkpt><trkpt lat="45.7973528" lon="11.5078065"><ele>1133.0</ele><time>2026-04-19T13:36:02.87Z</time></trkpt><trkpt lat="45.7972562" lon="11.5077016"><ele>1128.5</ele><time>2026-04-19T13:36:03.865Z</time></trkpt><trkpt lat="45.7971558" lon="11.5075903"><ele>1124.0</ele><time>2026-04-19T13:36:04.869Z</time></trkpt><trkpt lat="45.7970511" lon="11.5074759"><ele>1124.0</ele><time>2026-04-19T13:36:05.861Z</time></trkpt><trkpt lat="45.7969418" lon="11.5073616"><ele>1124.0</ele><time>2026-04-19T13:36:06.861Z</time></trkpt><trkpt lat="45.7968332" lon="11.5072491"><ele>1124.0</ele><time>2026-04-19T13:36:07.868Z</time></trkpt><trkpt lat="45.7967197" lon="11.5071321"><ele>1124.0</ele><time>2026-04-19T13:36:08.872Z</time></trkpt><trkpt lat="45.7966096" lon="11.5070152"><ele>1122.25</ele><time>2026-04-19T13:36:09.865Z</time></trkpt><trkpt lat="45.7965006" lon="11.5068979"><ele>1120.5</ele><time>2026-04-19T13:36:10.864Z</time></trkpt><trkpt lat="45.7963924" lon="11.5067829"><ele>1118.75</ele><time>2026-04-19T13:36:11.869Z</time></trkpt><trkpt lat="45.7962876" lon="11.5066732"><ele>1117.0</ele><time>2026-04-19T13:36:12.868Z</time></trkpt><trkpt lat="45.7961772" lon="11.5065627"><ele>1117.0</ele><time>2026-04-19T13:36:13.869Z</time></trkpt><trkpt lat="45.796058" lon="11.506455"><ele>1117.0</ele><time>2026-04-19T13:36:14.867Z</time></trkpt><trkpt lat="45.7959374" lon="11.5063458"><ele>1117.0</ele><time>2026-04-19T13:36:15.868Z</time></trkpt><trkpt lat="45.7958091" lon="11.5062449"><ele>1117.0</ele><time>2026-04-19T13:36:16.867Z</time></trkpt><trkpt lat="45.7956786" lon="11.5061573"><ele>1116.25</ele><time>2026-04-19T13:36:17.864Z</time></trkpt><trkpt lat="45.7955479" lon="11.5060737"><ele>1115.5</ele><time>2026-04-19T13:36:18.871Z</time></trkpt><trkpt lat="45.7954172" lon="11.5060038"><ele>1114.75</ele><time>2026-04-19T13:36:19.877Z</time></trkpt><trkpt lat="45.7952865" lon="11.5059323"><ele>1114.0</ele><time>2026-04-19T13:36:20.868Z</time></trkpt><trkpt lat="45.7951445" lon="11.5058642"><ele>1114.0</ele><time>2026-04-19T13:36:21.864Z</time></trkpt><trkpt lat="45.7949981" lon="11.5057923"><ele>1114.0</ele><time>2026-04-19T13:36:22.866Z</time></trkpt><trkpt lat="45.794866" lon="11.5057358"><ele>1114.0</ele><time>2026-04-19T13:36:23.866Z</time></trkpt><trkpt lat="45.7947339" lon="11.5056781"><ele>1114.0</ele><time>2026-04-19T13:36:24.871Z</time></trkpt><trkpt lat="45.794608" lon="11.505627"><ele>1114.0</ele><time>2026-04-19T13:36:25.873Z</time></trkpt><trkpt lat="45.7944773" lon="11.5055896"><ele>1114.0</ele><time>2026-04-19T13:36:26.863Z</time></trkpt><trkpt lat="45.7943467" lon="11.5055596"><ele>1114.0</ele><time>2026-04-19T13:36:27.866Z</time></trkpt><trkpt lat="45.79421" lon="11.5055364"><ele>1114.0</ele><time>2026-04-19T13:36:28.87Z</time></trkpt><trkpt lat="45.7940821" lon="11.5055303"><ele>1113.5</ele><time>2026-04-19T13:36:29.866Z</time></trkpt><trkpt lat="45.7939535" lon="11.5055391"><ele>1113.0</ele><time>2026-04-19T13:36:30.872Z</time></trkpt><trkpt lat="45.7938307" lon="11.5055546"><ele>1112.5</ele><time>2026-04-19T13:36:31.87Z</time></trkpt><trkpt lat="45.7937038" lon="11.5055831"><ele>1112.0</ele><time>2026-04-19T13:36:32.873Z</time></trkpt><trkpt lat="45.793575" lon="11.5056253"><ele>1108.5</ele><time>2026-04-19T13:36:33.865Z</time></trkpt><trkpt lat="45.7934426" lon="11.5056806"><ele>1105.0</ele><time>2026-04-19T13:36:34.872Z</time></trkpt><trkpt lat="45.7933103" lon="11.5057444"><ele>1101.5</ele><time>2026-04-19T13:36:35.866Z</time></trkpt><trkpt lat="45.7931755" lon="11.5058238"><ele>1098.0</ele><time>2026-04-19T13:36:36.866Z</time></trkpt><trkpt lat="45.7930444" lon="11.5059041"><ele>1098.0</ele><time>2026-04-19T13:36:37.87Z</time></trkpt><trkpt lat="45.7929175" lon="11.5059805"><ele>1098.0</ele><time>2026-04-19T13:36:38.867Z</time></trkpt><trkpt lat="45.7927958" lon="11.5060569"><ele>1098.0</ele><time>2026-04-19T13:36:39.866Z</time></trkpt><trkpt lat="45.7926759" lon="11.5061325"><ele>1098.0</ele><time>2026-04-19T13:36:40.861Z</time></trkpt><trkpt lat="45.7925641" lon="11.5062094"><ele>1097.8</ele><time>2026-04-19T13:36:41.87Z</time></trkpt><trkpt lat="45.7924612" lon="11.5062933"><ele>1097.6</ele><time>2026-04-19T13:36:42.863Z</time></trkpt><trkpt lat="45.7923655" lon="11.5063861"><ele>1097.4</ele><time>2026-04-19T13:36:43.871Z</time></trkpt><trkpt lat="45.792268" lon="11.5064695"><ele>1097.2</ele><time>2026-04-19T13:36:44.865Z</time></trkpt><trkpt lat="45.7921948" lon="11.506563"><ele>1097.0</ele><time>2026-04-19T13:36:45.862Z</time></trkpt><trkpt lat="45.7921312" lon="11.5066695"><ele>1097.0</ele><time>2026-04-19T13:36:46.865Z</time></trkpt><trkpt lat="45.7920713" lon="11.5068025"><ele>1097.0</ele><time>2026-04-19T13:36:47.867Z</time></trkpt><trkpt lat="45.7920286" lon="11.5069485"><ele>1097.0</ele><time>2026-04-19T13:36:48.867Z</time></trkpt><trkpt lat="45.791988" lon="11.507104"><ele>1097.0</ele><time>2026-04-19T13:36:49.865Z</time></trkpt><trkpt lat="45.7919544" lon="11.5072431"><ele>1097.0</ele><time>2026-04-19T13:36:50.866Z</time></trkpt><trkpt lat="45.7919317" lon="11.5073995"><ele>1099.25</ele><time>2026-04-19T13:36:51.862Z</time></trkpt><trkpt lat="45.791912" lon="11.5075683"><ele>1101.5</ele><time>2026-04-19T13:36:52.863Z</time></trkpt><trkpt lat="45.7918981" lon="11.5077489"><ele>1103.75</ele><time>2026-04-19T13:36:53.864Z</time></trkpt><trkpt lat="45.7918875" lon="11.5079302"><ele>1106.0</ele><time>2026-04-19T13:36:54.863Z</time></trkpt><trkpt lat="45.7918739" lon="11.5081039"><ele>1107.0</ele><time>2026-04-19T13:36:55.869Z</time></trkpt><trkpt lat="45.7918549" lon="11.5082822"><ele>1108.0</ele><time>2026-04-19T13:36:56.859Z</time></trkpt><trkpt lat="45.79183" lon="11.5084641"><ele>1109.0</ele><time>2026-04-19T13:36:57.864Z</time></trkpt><trkpt lat="45.7918009" lon="11.5086438"><ele>1110.0</ele><time>2026-04-19T13:36:58.858Z</time></trkpt><trkpt lat="45.7917604" lon="11.508836"><ele>1100.75</ele><time>2026-04-19T13:36:59.869Z</time></trkpt><trkpt lat="45.7917219" lon="11.5090316"><ele>1091.5</ele><time>2026-04-19T13:37:00.862Z</time></trkpt><trkpt lat="45.7916768" lon="11.5092361"><ele>1082.25</ele><time>2026-04-19T13:37:01.864Z</time></trkpt><trkpt lat="45.7916323" lon="11.5094447"><ele>1073.0</ele><time>2026-04-19T13:37:02.869Z</time></trkpt><trkpt lat="45.7915791" lon="11.5096552"><ele>1073.0</ele><time>2026-04-19T13:37:03.871Z</time></trkpt><trkpt lat="45.7915298" lon="11.5098621"><ele>1073.0</ele><time>2026-04-19T13:37:04.877Z</time></trkpt><trkpt lat="45.7914766" lon="11.5100566"><ele>1073.0</ele><time>2026-04-19T13:37:05.871Z</time></trkpt><trkpt lat="45.7914205" lon="11.5102419"><ele>1073.0</ele><time>2026-04-19T13:37:06.866Z</time></trkpt><trkpt lat="45.7913719" lon="11.5104203"><ele>1074.75</ele><time>2026-04-19T13:37:07.863Z</time></trkpt><trkpt lat="45.7913309" lon="11.5105972"><ele>1076.5</ele><time>2026-04-19T13:37:08.867Z</time></trkpt><trkpt lat="45.7913084" lon="11.5107726"><ele>1078.25</ele><time>2026-04-19T13:37:09.863Z</time></trkpt><trkpt lat="45.7912937" lon="11.5109491"><ele>1080.0</ele><time>2026-04-19T13:37:10.867Z</time></trkpt><trkpt lat="45.79128" lon="11.5111211"><ele>1081.0</ele><time>2026-04-19T13:37:11.859Z</time></trkpt><trkpt lat="45.7912611" lon="11.511278"><ele>1082.0</ele><time>2026-04-19T13:37:12.869Z</time></trkpt><trkpt lat="45.7912333" lon="11.5114156"><ele>1083.0</ele><time>2026-04-19T13:37:13.872Z</time></trkpt><trkpt lat="45.7911933" lon="11.5115447"><ele>1084.0</ele><time>2026-04-19T13:37:14.864Z</time></trkpt><trkpt lat="45.7911357" lon="11.5116515"><ele>1085.0</ele><time>2026-04-19T13:37:15.86Z</time></trkpt><trkpt lat="45.7910585" lon="11.5117585"><ele>1077.0</ele><time>2026-04-19T13:37:16.863Z</time></trkpt><trkpt lat="45.7909703" lon="11.5118622"><ele>1069.0</ele><time>2026-04-19T13:37:17.868Z</time></trkpt><trkpt lat="45.7908839" lon="11.5119773"><ele>1061.0</ele><time>2026-04-19T13:37:18.871Z</time></trkpt><trkpt lat="45.7908061" lon="11.5121066"><ele>1053.0</ele><time>2026-04-19T13:37:19.863Z</time></trkpt><trkpt lat="45.7907336" lon="11.5122444"><ele>1053.0</ele><time>2026-04-19T13:37:20.86Z</time></trkpt><trkpt lat="45.7906528" lon="11.512367"><ele>1053.0</ele><time>2026-04-19T13:37:21.87Z</time></trkpt><trkpt lat="45.7905645" lon="11.5124784"><ele>1053.0</ele><time>2026-04-19T13:37:22.862Z</time></trkpt><trkpt lat="45.7904777" lon="11.5125788"><ele>1053.0</ele><time>2026-04-19T13:37:23.866Z</time></trkpt><trkpt lat="45.79039" lon="11.5126707"><ele>1053.0</ele><time>2026-04-19T13:37:24.867Z</time></trkpt><trkpt lat="45.790314" lon="11.5127678"><ele>1053.0</ele><time>2026-04-19T13:37:25.867Z</time></trkpt><trkpt lat="45.7902401" lon="11.5128695"><ele>1053.0</ele><time>2026-04-19T13:37:26.866Z</time></trkpt><trkpt lat="45.7901709" lon="11.5129648"><ele>1053.0</ele><time>2026-04-19T13:37:27.866Z</time></trkpt><trkpt lat="45.7901073" lon="11.5130705"><ele>1053.0</ele><time>2026-04-19T13:37:28.868Z</time></trkpt><trkpt lat="45.7900582" lon="11.5131963"><ele>1049.6</ele><time>2026-04-19T13:37:29.862Z</time></trkpt><trkpt lat="45.7900223" lon="11.5133365"><ele>1046.1999999999998</ele><time>2026-04-19T13:37:30.863Z</time></trkpt><trkpt lat="45.789998" lon="11.5134894"><ele>1042.8</ele><time>2026-04-19T13:37:31.871Z</time></trkpt><trkpt lat="45.7899845" lon="11.5136518"><ele>1039.3999999999999</ele><time>2026-04-19T13:37:32.865Z</time></trkpt><trkpt lat="45.7899737" lon="11.5138194"><ele>1036.0</ele><time>2026-04-19T13:37:33.864Z</time></trkpt><trkpt lat="45.7899723" lon="11.5139927"><ele>1036.0</ele><time>2026-04-19T13:37:34.869Z</time></trkpt><trkpt lat="45.7899773" lon="11.5141641"><ele>1036.0</ele><time>2026-04-19T13:37:35.871Z</time></trkpt><trkpt lat="45.789983" lon="11.5143362"><ele>1036.0</ele><time>2026-04-19T13:37:36.867Z</time></trkpt><trkpt lat="45.7899939" lon="11.5145087"><ele>1036.0</ele><time>2026-04-19T13:37:37.864Z</time></trkpt><trkpt lat="45.7900084" lon="11.5146817"><ele>1034.0</ele><time>2026-04-19T13:37:38.864Z</time></trkpt><trkpt lat="45.7900253" lon="11.5148574"><ele>1032.0</ele><time>2026-04-19T13:37:39.865Z</time></trkpt><trkpt lat="45.7900469" lon="11.5150417"><ele>1030.0</ele><time>2026-04-19T13:37:40.868Z</time></trkpt><trkpt lat="45.7900728" lon="11.5152349"><ele>1028.0</ele><time>2026-04-19T13:37:41.862Z</time></trkpt><trkpt lat="45.7901016" lon="11.5154361"><ele>1025.75</ele><time>2026-04-19T13:37:42.871Z</time></trkpt><trkpt lat="45.790132" lon="11.5156455"><ele>1023.5</ele><time>2026-04-19T13:37:43.866Z</time></trkpt><trkpt lat="45.7901616" lon="11.5158556"><ele>1021.25</ele><time>2026-04-19T13:37:44.864Z</time></trkpt><trkpt lat="45.7901832" lon="11.5160621"><ele>1019.0</ele><time>2026-04-19T13:37:45.864Z</time></trkpt><trkpt lat="45.7901955" lon="11.5162639"><ele>1017.5</ele><time>2026-04-19T13:37:46.873Z</time></trkpt><trkpt lat="45.7901983" lon="11.5164679"><ele>1016.0</ele><time>2026-04-19T13:37:47.867Z</time></trkpt><trkpt lat="45.7901951" lon="11.5166817"><ele>1014.5</ele><time>2026-04-19T13:37:48.862Z</time></trkpt><trkpt lat="45.790185" lon="11.5168998"><ele>1013.0</ele><time>2026-04-19T13:37:49.865Z</time></trkpt><trkpt lat="45.7901698" lon="11.5171219"><ele>1013.0</ele><time>2026-04-19T13:37:50.862Z</time></trkpt><trkpt lat="45.7901508" lon="11.5173406"><ele>1013.0</ele><time>2026-04-19T13:37:51.861Z</time></trkpt><trkpt lat="45.7901308" lon="11.517552"><ele>1013.0</ele><time>2026-04-19T13:37:52.866Z</time></trkpt><trkpt lat="45.7901175" lon="11.5177632"><ele>1011.25</ele><time>2026-04-19T13:37:53.865Z</time></trkpt><trkpt lat="45.7901114" lon="11.5179729"><ele>1009.5</ele><time>2026-04-19T13:37:54.86Z</time></trkpt><trkpt lat="45.7901099" lon="11.5181819"><ele>1007.75</ele><time>2026-04-19T13:37:55.866Z</time></trkpt><trkpt lat="45.7901068" lon="11.5183807"><ele>1006.0</ele><time>2026-04-19T13:37:56.863Z</time></trkpt><trkpt lat="45.790101" lon="11.5185577"><ele>1005.9999999999999</ele><time>2026-04-19T13:37:57.862Z</time></trkpt><trkpt lat="45.7900995" lon="11.5187186"><ele>1006.0</ele><time>2026-04-19T13:37:58.867Z</time></trkpt><trkpt lat="45.7901038" lon="11.5188557"><ele>1006.0</ele><time>2026-04-19T13:37:59.867Z</time></trkpt><trkpt lat="45.7901168" lon="11.5189857"><ele>1006.0</ele><time>2026-04-19T13:38:00.87Z</time></trkpt><trkpt lat="45.7901329" lon="11.5190912"><ele>1005.9999999999999</ele><time>2026-04-19T13:38:01.87Z</time></trkpt><trkpt lat="45.7901683" lon="11.5191793"><ele>1006.0</ele><time>2026-04-19T13:38:02.865Z</time></trkpt><trkpt lat="45.7902282" lon="11.519264"><ele>1009.5999999999999</ele><time>2026-04-19T13:38:03.869Z</time></trkpt><trkpt lat="45.7903076" lon="11.5193503"><ele>1013.1999999999999</ele><time>2026-04-19T13:38:04.881Z</time></trkpt><trkpt lat="45.7903991" lon="11.5194445"><ele>1016.8000000000001</ele><time>2026-04-19T13:38:05.872Z</time></trkpt><trkpt lat="45.7904797" lon="11.5195389"><ele>1020.4000000000001</ele><time>2026-04-19T13:38:06.871Z</time></trkpt><trkpt lat="45.7905472" lon="11.519638"><ele>1024.0</ele><time>2026-04-19T13:38:07.868Z</time></trkpt><trkpt lat="45.7906055" lon="11.5197324"><ele>1023.9999999999999</ele><time>2026-04-19T13:38:08.863Z</time></trkpt><trkpt lat="45.7906495" lon="11.5198188"><ele>1024.0</ele><time>2026-04-19T13:38:09.87Z</time></trkpt><trkpt lat="45.7906943" lon="11.5199697"><ele>1024.0</ele><time>2026-04-19T13:38:11.871Z</time></trkpt><trkpt lat="45.7906835" lon="11.5200755"><ele>1024.0</ele><time>2026-04-19T13:38:13.869Z</time></trkpt><trkpt lat="45.7906112" lon="11.5200812"><ele>1023.9999999999999</ele><time>2026-04-19T13:38:16.865Z</time></trkpt><trkpt lat="45.7905696" lon="11.5199837"><ele>1024.0</ele><time>2026-04-19T13:38:18.868Z</time></trkpt><trkpt lat="45.7905143" lon="11.519854"><ele>1024.0</ele><time>2026-04-19T13:38:20.864Z</time></trkpt><trkpt lat="45.7904469" lon="11.5197566"><ele>1024.0</ele><time>2026-04-19T13:38:22.872Z</time></trkpt><trkpt lat="45.7903799" lon="11.5196689"><ele>1024.0</ele><time>2026-04-19T13:38:24.868Z</time></trkpt><trkpt lat="45.7903009" lon="11.519586"><ele>1024.0</ele><time>2026-04-19T13:38:26.87Z</time></trkpt><trkpt lat="45.7902099" lon="11.5195209"><ele>1024.0</ele><time>2026-04-19T13:38:28.871Z</time></trkpt><trkpt lat="45.7900917" lon="11.5194554"><ele>1019.9999999999999</ele><time>2026-04-19T13:38:30.865Z</time></trkpt><trkpt lat="45.790029" lon="11.5194252"><ele>1016.0</ele><time>2026-04-19T13:38:31.867Z</time></trkpt><trkpt lat="45.7899682" lon="11.5193963"><ele>1012.0</ele><time>2026-04-19T13:38:32.869Z</time></trkpt><trkpt lat="45.7898837" lon="11.5193121"><ele>1008.0</ele><time>2026-04-19T13:38:34.866Z</time></trkpt><trkpt lat="45.7898445" lon="11.5191725"><ele>1003.9999999999999</ele><time>2026-04-19T13:38:36.865Z</time></trkpt><trkpt lat="45.7898295" lon="11.5190147"><ele>1000.0</ele><time>2026-04-19T13:38:38.87Z</time></trkpt><trkpt lat="45.7898132" lon="11.5189224"><ele>1000.0</ele><time>2026-04-19T13:38:40.866Z</time></trkpt><trkpt lat="45.7897858" lon="11.518819"><ele>1000.0</ele><time>2026-04-19T13:38:53.875Z</time></trkpt><trkpt lat="45.7897578" lon="11.5186549"><ele>1000.0</ele><time>2026-04-19T13:38:55.879Z</time></trkpt><trkpt lat="45.7897373" lon="11.5185392"><ele>1000.0</ele><time>2026-04-19T13:38:56.865Z</time></trkpt><trkpt lat="45.7897145" lon="11.5184028"><ele>1000.0</ele><time>2026-04-19T13:38:57.864Z</time></trkpt><trkpt lat="45.789692" lon="11.518263"><ele>1001.2</ele><time>2026-04-19T13:38:58.87Z</time></trkpt><trkpt lat="45.7896702" lon="11.5181324"><ele>1002.4</ele><time>2026-04-19T13:38:59.864Z</time></trkpt><trkpt lat="45.7896446" lon="11.5180031"><ele>1003.5999999999999</ele><time>2026-04-19T13:39:00.866Z</time></trkpt><trkpt lat="45.7896148" lon="11.5178535"><ele>1004.8</ele><time>2026-04-19T13:39:01.87Z</time></trkpt><trkpt lat="45.7895899" lon="11.5177003"><ele>1006.0</ele><time>2026-04-19T13:39:02.866Z</time></trkpt><trkpt lat="45.7895622" lon="11.5175399"><ele>1007.75</ele><time>2026-04-19T13:39:03.87Z</time></trkpt><trkpt lat="45.789534" lon="11.5173764"><ele>1009.5</ele><time>2026-04-19T13:39:04.872Z</time></trkpt><trkpt lat="45.7895057" lon="11.5172012"><ele>1011.25</ele><time>2026-04-19T13:39:05.866Z</time></trkpt><trkpt lat="45.7894748" lon="11.5170344"><ele>1013.0</ele><time>2026-04-19T13:39:06.877Z</time></trkpt><trkpt lat="45.7894399" lon="11.51687"><ele>1013.0</ele><time>2026-04-19T13:39:07.864Z</time></trkpt><trkpt lat="45.7894017" lon="11.516699"><ele>1013.0</ele><time>2026-04-19T13:39:08.869Z</time></trkpt><trkpt lat="45.789353" lon="11.5165298"><ele>1013.0</ele><time>2026-04-19T13:39:09.861Z</time></trkpt><trkpt lat="45.7892958" lon="11.5163618"><ele>1013.0</ele><time>2026-04-19T13:39:10.871Z</time></trkpt><trkpt lat="45.789235" lon="11.516192"><ele>1003.5</ele><time>2026-04-19T13:39:11.868Z</time></trkpt><trkpt lat="45.7891713" lon="11.5160196"><ele>994.0</ele><time>2026-04-19T13:39:12.867Z</time></trkpt><trkpt lat="45.7891058" lon="11.5158503"><ele>984.5</ele><time>2026-04-19T13:39:13.875Z</time></trkpt><trkpt lat="45.7890384" lon="11.5156836"><ele>975.0</ele><time>2026-04-19T13:39:14.861Z</time></trkpt><trkpt lat="45.7889656" lon="11.5155248"><ele>977.6</ele><time>2026-04-19T13:39:15.866Z</time></trkpt><trkpt lat="45.7888937" lon="11.5153746"><ele>980.2</ele><time>2026-04-19T13:39:16.869Z</time></trkpt><trkpt lat="45.7888258" lon="11.5152342"><ele>982.8</ele><time>2026-04-19T13:39:17.874Z</time></trkpt><trkpt lat="45.7887624" lon="11.5151103"><ele>985.4</ele><time>2026-04-19T13:39:18.863Z</time></trkpt><trkpt lat="45.7887111" lon="11.5149995"><ele>988.0</ele><time>2026-04-19T13:39:19.862Z</time></trkpt><trkpt lat="45.7886713" lon="11.5148978"><ele>987.9999999999999</ele><time>2026-04-19T13:39:20.868Z</time></trkpt><trkpt lat="45.7886424" lon="11.5147947"><ele>988.0</ele><time>2026-04-19T13:39:21.872Z</time></trkpt><trkpt lat="45.7886353" lon="11.514684"><ele>988.0</ele><time>2026-04-19T13:39:22.863Z</time></trkpt><trkpt lat="45.7886462" lon="11.5145627"><ele>988.0</ele><time>2026-04-19T13:39:23.875Z</time></trkpt><trkpt lat="45.7886596" lon="11.5144209"><ele>987.9999999999999</ele><time>2026-04-19T13:39:24.873Z</time></trkpt><trkpt lat="45.7886534" lon="11.5142751"><ele>988.0</ele><time>2026-04-19T13:39:25.869Z</time></trkpt><trkpt lat="45.7886333" lon="11.5141365"><ele>1000.0</ele><time>2026-04-19T13:39:26.867Z</time></trkpt><trkpt lat="45.7898132" lon="11.5189224"><ele>1000.0</ele><time>2026-04-19T13:38:40.866Z</time></trkpt><trkpt lat="45.7897858" lon="11.518819"><ele>1000.0</ele><time>2026-04-19T13:38:53.875Z</time></trkpt><trkpt lat="45.7897578" lon="11.5186549"><ele>1000.0</ele><time>2026-04-19T13:38:55.879Z</time></trkpt><trkpt lat="45.7897373" lon="11.5185392"><ele>1000.0</ele><time>2026-04-19T13:38:56.865Z</time></trkpt><trkpt lat="45.7897145" lon="11.5184028"><ele>1000.0</ele><time>2026-04-19T13:38:57.864Z</time></trkpt><trkpt lat="45.789692" lon="11.518263"><ele>1001.2</ele><time>2026-04-19T13:38:58.87Z</time></trkpt><trkpt lat="45.7896702" lon="11.5181324"><ele>1002.4</ele><time>2026-04-19T13:38:59.864Z</time></trkpt><trkpt lat="45.7896446" lon="11.5180031"><ele>1003.5999999999999</ele><time>2026-04-19T13:39:00.866Z</time></trkpt><trkpt lat="45.7896148" lon="11.5178535"><ele>1004.8</ele><time>2026-04-19T13:39:01.87Z</time></trkpt><trkpt lat="45.7895899" lon="11.5177003"><ele>1006.0</ele><time>2026-04-19T13:39:02.866Z</time></trkpt><trkpt lat="45.7895622" lon="11.5175399"><ele>1007.75</ele><time>2026-04-19T13:39:03.87Z</time></trkpt><trkpt lat="45.789534" lon="11.5173764"><ele>1009.5</ele><time>2026-04-19T13:39:04.872Z</time></trkpt><trkpt lat="45.7895057" lon="11.5172012"><ele>1011.25</ele><time>2026-04-19T13:39:05.866Z</time></trkpt><trkpt lat="45.7894748" lon="11.5170344"><ele>1013.0</ele><time>2026-04-19T13:39:06.877Z</time></trkpt><trkpt lat="45.7894399" lon="11.51687"><ele>1013.0</ele><time>2026-04-19T13:39:07.864Z</time></trkpt><trkpt lat="45.7894017" lon="11.516699"><ele>1013.0</ele><time>2026-04-19T13:39:08.869Z</time></trkpt><trkpt lat="45.789353" lon="11.5165298"><ele>1013.0</ele><time>2026-04-19T13:39:09.861Z</time></trkpt><trkpt lat="45.7892958" lon="11.5163618"><ele>1013.0</ele><time>2026-04-19T13:39:10.871Z</time></trkpt><trkpt lat="45.789235" lon="11.516192"><ele>1003.5</ele><time>2026-04-19T13:39:11.868Z</time></trkpt><trkpt lat="45.7891713" lon="11.5160196"><ele>994.0</ele><time>2026-04-19T13:39:12.867Z</time></trkpt><trkpt lat="45.7891058" lon="11.5158503"><ele>984.5</ele><time>2026-04-19T13:39:13.875Z</time></trkpt><trkpt lat="45.7890384" lon="11.5156836"><ele>975.0</ele><time>2026-04-19T13:39:14.861Z</time></trkpt><trkpt lat="45.7889656" lon="11.5155248"><ele>977.6</ele><time>2026-04-19T13:39:15.866Z</time></trkpt><trkpt lat="45.7888937" lon="11.5153746"><ele>980.2</ele><time>2026-04-19T13:39:16.869Z</time></trkpt><trkpt lat="45.7888258" lon="11.5152342"><ele>982.8</ele><time>2026-04-19T13:39:17.874Z</time></trkpt><trkpt lat="45.7887624" lon="11.5151103"><ele>985.4</ele><time>2026-04-19T13:39:18.863Z</time></trkpt><trkpt lat="45.7887111" lon="11.5149995"><ele>988.0</ele><time>2026-04-19T13:39:19.862Z</time></trkpt><trkpt lat="45.7886713" lon="11.5148978"><ele>987.9999999999999</ele><time>2026-04-19T13:39:20.868Z</time></trkpt><trkpt lat="45.7886424" lon="11.5147947"><ele>988.0</ele><time>2026-04-19T13:39:21.872Z</time></trkpt><trkpt lat="45.7886353" lon="11.514684"><ele>988.0</ele><time>2026-04-19T13:39:22.863Z</time></trkpt><trkpt lat="45.7886462" lon="11.5145627"><ele>988.0</ele><time>2026-04-19T13:39:23.875Z</time></trkpt><trkpt lat="45.7886596" lon="11.5144209"><ele>987.9999999999999</ele><time>2026-04-19T13:39:24.873Z</time></trkpt><trkpt lat="45.7886534" lon="11.5142751"><ele>988.0</ele><time>2026-04-19T13:39:25.869Z</time></trkpt><trkpt lat="45.7886333" lon="11.5141365"><ele>989.4</ele><time>2026-04-19T13:39:26.867Z</time></trkpt><trkpt lat="45.7886034" lon="11.5140086"><ele>990.8</ele><time>2026-04-19T13:39:27.865Z</time></trkpt><trkpt lat="45.7885662" lon="11.5138796"><ele>992.2</ele><time>2026-04-19T13:39:28.867Z</time></trkpt><trkpt lat="45.7885292" lon="11.5137374"><ele>993.6</ele><time>2026-04-19T13:39:29.865Z</time></trkpt><trkpt lat="45.788493" lon="11.5135914"><ele>995.0</ele><time>2026-04-19T13:39:30.864Z</time></trkpt><trkpt lat="45.7884744" lon="11.5134466"><ele>993.4</ele><time>2026-04-19T13:39:31.865Z</time></trkpt><trkpt lat="45.7884658" lon="11.5133036"><ele>991.8</ele><time>2026-04-19T13:39:32.864Z</time></trkpt><trkpt lat="45.7884664" lon="11.5131683"><ele>990.2</ele><time>2026-04-19T13:39:33.866Z</time></trkpt><trkpt lat="45.7884796" lon="11.513028"><ele>988.6</ele><time>2026-04-19T13:39:34.866Z</time></trkpt><trkpt lat="45.7885075" lon="11.5128923"><ele>987.0</ele><time>2026-04-19T13:39:35.861Z</time></trkpt><trkpt lat="45.7885422" lon="11.5127671"><ele>987.0</ele><time>2026-04-19T13:39:36.866Z</time></trkpt><trkpt lat="45.7885769" lon="11.5126622"><ele>987.0</ele><time>2026-04-19T13:39:37.87Z</time></trkpt><trkpt lat="45.7885986" lon="11.5125763"><ele>987.0</ele><time>2026-04-19T13:39:38.876Z</time></trkpt><trkpt lat="45.7885761" lon="11.5124497"><ele>987.0</ele><time>2026-04-19T13:39:40.865Z</time></trkpt><trkpt lat="45.7884971" lon="11.5125036"><ele>987.0</ele><time>2026-04-19T13:39:43.861Z</time></trkpt><trkpt lat="45.7884751" lon="11.5125903"><ele>987.0</ele><time>2026-04-19T13:39:44.873Z</time></trkpt><trkpt lat="45.7884515" lon="11.5127146"><ele>980.2</ele><time>2026-04-19T13:39:45.866Z</time></trkpt><trkpt lat="45.7884129" lon="11.5128566"><ele>973.4000000000001</ele><time>2026-04-19T13:39:46.869Z</time></trkpt><trkpt lat="45.7883757" lon="11.51301"><ele>966.5999999999999</ele><time>2026-04-19T13:39:47.864Z</time></trkpt><trkpt lat="45.7883462" lon="11.5131693"><ele>959.8</ele><time>2026-04-19T13:39:48.864Z</time></trkpt><trkpt lat="45.788328" lon="11.5133255"><ele>953.0</ele><time>2026-04-19T13:39:49.87Z</time></trkpt><trkpt lat="45.7883275" lon="11.5134893"><ele>953.0</ele><time>2026-04-19T13:39:50.87Z</time></trkpt><trkpt lat="45.788341" lon="11.5136664"><ele>953.0</ele><time>2026-04-19T13:39:51.882Z</time></trkpt><trkpt lat="45.7883504" lon="11.5138501"><ele>953.0</ele><time>2026-04-19T13:39:52.875Z</time></trkpt><trkpt lat="45.7883568" lon="11.5140234"><ele>953.0</ele><time>2026-04-19T13:39:53.869Z</time></trkpt><trkpt lat="45.788347" lon="11.5141974"><ele>952.8</ele><time>2026-04-19T13:39:54.861Z</time></trkpt><trkpt lat="45.7883268" lon="11.5143555"><ele>952.5999999999999</ele><time>2026-04-19T13:39:55.869Z</time></trkpt><trkpt lat="45.7882868" lon="11.5145048"><ele>952.4000000000001</ele><time>2026-04-19T13:39:56.864Z</time></trkpt><trkpt lat="45.7882503" lon="11.5146436"><ele>952.2</ele><time>2026-04-19T13:39:57.869Z</time></trkpt><trkpt lat="45.7882284" lon="11.5147754"><ele>952.0</ele><time>2026-04-19T13:39:58.872Z</time></trkpt><trkpt lat="45.7882236" lon="11.5149047"><ele>951.4000000000001</ele><time>2026-04-19T13:39:59.868Z</time></trkpt><trkpt lat="45.7882321" lon="11.5150349"><ele>950.8000000000001</ele><time>2026-04-19T13:40:00.873Z</time></trkpt><trkpt lat="45.7882532" lon="11.515183"><ele>950.2</ele><time>2026-04-19T13:40:01.862Z</time></trkpt><trkpt lat="45.7882895" lon="11.5153301"><ele>949.6</ele><time>2026-04-19T13:40:02.868Z</time></trkpt><trkpt lat="45.7883286" lon="11.5154891"><ele>949.0</ele><time>2026-04-19T13:40:03.863Z</time></trkpt><trkpt lat="45.7883692" lon="11.5156553"><ele>946.5</ele><time>2026-04-19T13:40:04.87Z</time></trkpt><trkpt lat="45.7884164" lon="11.51583"><ele>944.0</ele><time>2026-04-19T13:40:05.871Z</time></trkpt><trkpt lat="45.7884632" lon="11.5160049"><ele>941.5</ele><time>2026-04-19T13:40:06.864Z</time></trkpt><trkpt lat="45.7885004" lon="11.5161722"><ele>939.0</ele><time>2026-04-19T13:40:07.866Z</time></trkpt><trkpt lat="45.7885369" lon="11.5163449"><ele>944.25</ele><time>2026-04-19T13:40:08.867Z</time></trkpt><trkpt lat="45.7885701" lon="11.5165229"><ele>949.5</ele><time>2026-04-19T13:40:09.862Z</time></trkpt><trkpt lat="45.7885942" lon="11.5167056"><ele>954.75</ele><time>2026-04-19T13:40:10.863Z</time></trkpt><trkpt lat="45.7886101" lon="11.5169009"><ele>960.0</ele><time>2026-04-19T13:40:11.862Z</time></trkpt><trkpt lat="45.7886229" lon="11.517102"><ele>960.0</ele><time>2026-04-19T13:40:12.875Z</time></trkpt><trkpt lat="45.788635" lon="11.5173095"><ele>960.0</ele><time>2026-04-19T13:40:13.87Z</time></trkpt><trkpt lat="45.7886463" lon="11.517518"><ele>960.0</ele><time>2026-04-19T13:40:14.87Z</time></trkpt><trkpt lat="45.7886609" lon="11.5177271"><ele>960.0</ele><time>2026-04-19T13:40:15.868Z</time></trkpt><trkpt lat="45.7886728" lon="11.5179287"><ele>959.25</ele><time>2026-04-19T13:40:16.864Z</time></trkpt><trkpt lat="45.788678" lon="11.5181258"><ele>958.5</ele><time>2026-04-19T13:40:17.872Z</time></trkpt><trkpt lat="45.7886742" lon="11.5183285"><ele>957.75</ele><time>2026-04-19T13:40:18.869Z</time></trkpt><trkpt lat="45.7886624" lon="11.5185361"><ele>957.0</ele><time>2026-04-19T13:40:19.864Z</time></trkpt><trkpt lat="45.7886435" lon="11.5187475"><ele>956.25</ele><time>2026-04-19T13:40:20.864Z</time></trkpt><trkpt lat="45.7886218" lon="11.5189576"><ele>955.5</ele><time>2026-04-19T13:40:21.871Z</time></trkpt><trkpt lat="45.7886002" lon="11.5191621"><ele>954.75</ele><time>2026-04-19T13:40:22.876Z</time></trkpt><trkpt lat="45.7885775" lon="11.5193665"><ele>954.0</ele><time>2026-04-19T13:40:23.867Z</time></trkpt><trkpt lat="45.7885501" lon="11.5195737"><ele>954.0</ele><time>2026-04-19T13:40:24.865Z</time></trkpt><trkpt lat="45.7885148" lon="11.5197766"><ele>954.0</ele><time>2026-04-19T13:40:25.864Z</time></trkpt><trkpt lat="45.7884713" lon="11.5199903"><ele>954.0</ele><time>2026-04-19T13:40:26.864Z</time></trkpt><trkpt lat="45.7884212" lon="11.5202025"><ele>944.5</ele><time>2026-04-19T13:40:27.88Z</time></trkpt><trkpt lat="45.7883697" lon="11.5204062"><ele>935.0</ele><time>2026-04-19T13:40:28.877Z</time></trkpt><trkpt lat="45.7883178" lon="11.5206056"><ele>925.5</ele><time>2026-04-19T13:40:29.867Z</time></trkpt><trkpt lat="45.7882642" lon="11.5207964"><ele>916.0</ele><time>2026-04-19T13:40:30.866Z</time></trkpt><trkpt lat="45.7882026" lon="11.5209877"><ele>916.0</ele><time>2026-04-19T13:40:31.868Z</time></trkpt><trkpt lat="45.7881363" lon="11.5211695"><ele>916.0</ele><time>2026-04-19T13:40:32.873Z</time></trkpt><trkpt lat="45.7880635" lon="11.5213416"><ele>916.0</ele><time>2026-04-19T13:40:33.861Z</time></trkpt><trkpt lat="45.7879838" lon="11.5214994"><ele>916.0</ele><time>2026-04-19T13:40:34.867Z</time></trkpt><trkpt lat="45.7878931" lon="11.521658"><ele>918.5</ele><time>2026-04-19T13:40:35.867Z</time></trkpt><trkpt lat="45.7877934" lon="11.5218132"><ele>921.0</ele><time>2026-04-19T13:40:36.869Z</time></trkpt><trkpt lat="45.7877034" lon="11.521951"><ele>923.5</ele><time>2026-04-19T13:40:37.866Z</time></trkpt><trkpt lat="45.7876259" lon="11.5220787"><ele>926.0</ele><time>2026-04-19T13:40:38.866Z</time></trkpt><trkpt lat="45.787566" lon="11.5221972"><ele>920.8</ele><time>2026-04-19T13:40:39.867Z</time></trkpt><trkpt lat="45.7875237" lon="11.522303"><ele>915.5999999999999</ele><time>2026-04-19T13:40:40.871Z</time></trkpt><trkpt lat="45.7874669" lon="11.5224256"><ele>910.4</ele><time>2026-04-19T13:40:42.863Z</time></trkpt><trkpt lat="45.7874119" lon="11.5223554"><ele>905.2</ele><time>2026-04-19T13:40:45.871Z</time></trkpt><trkpt lat="45.7874755" lon="11.5221941"><ele>900.0</ele><time>2026-04-19T13:40:47.867Z</time></trkpt><trkpt lat="45.7875155" lon="11.522084"><ele>898.5</ele><time>2026-04-19T13:40:48.867Z</time></trkpt><trkpt lat="45.787563" lon="11.5219454"><ele>897.0</ele><time>2026-04-19T13:40:49.865Z</time></trkpt><trkpt lat="45.7876115" lon="11.5217929"><ele>895.5</ele><time>2026-04-19T13:40:50.862Z</time></trkpt><trkpt lat="45.7876665" lon="11.5216254"><ele>894.0</ele><time>2026-04-19T13:40:51.861Z</time></trkpt><trkpt lat="45.7877294" lon="11.5214554"><ele>899.5</ele><time>2026-04-19T13:40:52.866Z</time></trkpt><trkpt lat="45.7877899" lon="11.5212876"><ele>905.0</ele><time>2026-04-19T13:40:53.864Z</time></trkpt><trkpt lat="45.7878404" lon="11.5211219"><ele>910.5</ele><time>2026-04-19T13:40:54.866Z</time></trkpt><trkpt lat="45.7878742" lon="11.5209513"><ele>916.0</ele><time>2026-04-19T13:40:55.879Z</time></trkpt><trkpt lat="45.7878938" lon="11.52077"><ele>916.0</ele><time>2026-04-19T13:40:56.862Z</time></trkpt><trkpt lat="45.7879083" lon="11.5205716"><ele>916.0</ele><time>2026-04-19T13:40:57.868Z</time></trkpt><trkpt lat="45.7879253" lon="11.5203606"><ele>916.0</ele><time>2026-04-19T13:40:58.865Z</time></trkpt><trkpt lat="45.7879415" lon="11.520149"><ele>916.0</ele><time>2026-04-19T13:40:59.869Z</time></trkpt><trkpt lat="45.7879571" lon="11.5199481"><ele>913.5</ele><time>2026-04-19T13:41:00.864Z</time></trkpt><trkpt lat="45.7879679" lon="11.5197442"><ele>911.0</ele><time>2026-04-19T13:41:01.87Z</time></trkpt><trkpt lat="45.7879691" lon="11.5195372"><ele>908.5</ele><time>2026-04-19T13:41:02.862Z</time></trkpt><trkpt lat="45.787963" lon="11.5193301"><ele>906.0</ele><time>2026-04-19T13:41:03.865Z</time></trkpt><trkpt lat="45.7879516" lon="11.5191203"><ele>905.75</ele><time>2026-04-19T13:41:04.869Z</time></trkpt><trkpt lat="45.7879361" lon="11.5189075"><ele>905.5</ele><time>2026-04-19T13:41:05.863Z</time></trkpt><trkpt lat="45.7879095" lon="11.5187112"><ele>905.25</ele><time>2026-04-19T13:41:06.862Z</time></trkpt><trkpt lat="45.7878701" lon="11.5185224"><ele>905.0</ele><time>2026-04-19T13:41:07.87Z</time></trkpt><trkpt lat="45.7878223" lon="11.518341"><ele>905.75</ele><time>2026-04-19T13:41:08.869Z</time></trkpt><trkpt lat="45.787767" lon="11.5181514"><ele>906.5</ele><time>2026-04-19T13:41:09.864Z</time></trkpt><trkpt lat="45.7877076" lon="11.5179603"><ele>907.25</ele><time>2026-04-19T13:41:10.863Z</time></trkpt><trkpt lat="45.7876433" lon="11.5177678"><ele>908.0</ele><time>2026-04-19T13:41:11.869Z</time></trkpt><trkpt lat="45.7875787" lon="11.5175827"><ele>901.0</ele><time>2026-04-19T13:41:12.866Z</time></trkpt><trkpt lat="45.7875138" lon="11.517409"><ele>894.0</ele><time>2026-04-19T13:41:13.862Z</time></trkpt><trkpt lat="45.7874573" lon="11.5172339"><ele>887.0</ele><time>2026-04-19T13:41:14.864Z</time></trkpt><trkpt lat="45.7874035" lon="11.5170457"><ele>880.0</ele><time>2026-04-19T13:41:15.87Z</time></trkpt><trkpt lat="45.7873516" lon="11.5168483"><ele>880.0</ele><time>2026-04-19T13:41:16.863Z</time></trkpt><trkpt lat="45.7872983" lon="11.516643"><ele>880.0</ele><time>2026-04-19T13:41:17.864Z</time></trkpt><trkpt lat="45.7872351" lon="11.5164395"><ele>880.0</ele><time>2026-04-19T13:41:18.867Z</time></trkpt><trkpt lat="45.7871613" lon="11.5162381"><ele>884.3333333333333</ele><time>2026-04-19T13:41:19.866Z</time></trkpt><trkpt lat="45.7870818" lon="11.5160311"><ele>888.6666666666667</ele><time>2026-04-19T13:41:20.871Z</time></trkpt><trkpt lat="45.787001" lon="11.5158301"><ele>893.0</ele><time>2026-04-19T13:41:21.866Z</time></trkpt><trkpt lat="45.7869157" lon="11.5156441"><ele>886.5</ele><time>2026-04-19T13:41:22.864Z</time></trkpt><trkpt lat="45.7868202" lon="11.5154771"><ele>880.0</ele><time>2026-04-19T13:41:23.87Z</time></trkpt><trkpt lat="45.7867162" lon="11.5153241"><ele>873.5</ele><time>2026-04-19T13:41:24.87Z</time></trkpt><trkpt lat="45.7866103" lon="11.5151826"><ele>867.0</ele><time>2026-04-19T13:41:25.865Z</time></trkpt><trkpt lat="45.7865077" lon="11.5150431"><ele>867.0</ele><time>2026-04-19T13:41:26.865Z</time></trkpt><trkpt lat="45.7864198" lon="11.5148972"><ele>867.0</ele><time>2026-04-19T13:41:27.867Z</time></trkpt><trkpt lat="45.7863378" lon="11.5147455"><ele>867.0</ele><time>2026-04-19T13:41:28.866Z</time></trkpt><trkpt lat="45.7862656" lon="11.5145813"><ele>867.0</ele><time>2026-04-19T13:41:29.861Z</time></trkpt><trkpt lat="45.7862051" lon="11.5144098"><ele>867.75</ele><time>2026-04-19T13:41:30.862Z</time></trkpt><trkpt lat="45.786163" lon="11.5142377"><ele>868.5</ele><time>2026-04-19T13:41:31.864Z</time></trkpt><trkpt lat="45.7861312" lon="11.5140575"><ele>869.25</ele><time>2026-04-19T13:41:32.862Z</time></trkpt><trkpt lat="45.7861095" lon="11.5138771"><ele>870.0</ele><time>2026-04-19T13:41:33.868Z</time></trkpt><trkpt lat="45.7860995" lon="11.5137147"><ele>870.0</ele><time>2026-04-19T13:41:34.868Z</time></trkpt><trkpt lat="45.7861026" lon="11.5135548"><ele>870.0</ele><time>2026-04-19T13:41:35.86Z</time></trkpt><trkpt lat="45.7861219" lon="11.5134027"><ele>870.0</ele><time>2026-04-19T13:41:36.883Z</time></trkpt><trkpt lat="45.7861506" lon="11.5132344"><ele>870.0</ele><time>2026-04-19T13:41:37.871Z</time></trkpt><trkpt lat="45.7861797" lon="11.5130775"><ele>870.0</ele><time>2026-04-19T13:41:38.866Z</time></trkpt><trkpt lat="45.7861915" lon="11.5129318"><ele>870.0</ele><time>2026-04-19T13:41:39.864Z</time></trkpt><trkpt lat="45.7861738" lon="11.5127827"><ele>870.0</ele><time>2026-04-19T13:41:40.863Z</time></trkpt><trkpt lat="45.7861355" lon="11.5126266"><ele>870.0</ele><time>2026-04-19T13:41:41.867Z</time></trkpt><trkpt lat="45.786086" lon="11.5124819"><ele>870.0</ele><time>2026-04-19T13:41:42.863Z</time></trkpt><trkpt lat="45.7860607" lon="11.5123415"><ele>869.25</ele><time>2026-04-19T13:41:43.866Z</time></trkpt><trkpt lat="45.7860537" lon="11.5121875"><ele>868.5</ele><time>2026-04-19T13:41:44.871Z</time></trkpt><trkpt lat="45.7860509" lon="11.5120043"><ele>867.75</ele><time>2026-04-19T13:41:45.863Z</time></trkpt><trkpt lat="45.7860382" lon="11.5117983"><ele>867.0</ele><time>2026-04-19T13:41:46.872Z</time></trkpt><trkpt lat="45.7860148" lon="11.5115949"><ele>857.75</ele><time>2026-04-19T13:41:47.87Z</time></trkpt><trkpt lat="45.7859899" lon="11.5114042"><ele>848.5</ele><time>2026-04-19T13:41:48.87Z</time></trkpt><trkpt lat="45.7859719" lon="11.5112213"><ele>839.25</ele><time>2026-04-19T13:41:49.864Z</time></trkpt><trkpt lat="45.785973" lon="11.5110459"><ele>830.0</ele><time>2026-04-19T13:41:50.864Z</time></trkpt><trkpt lat="45.7859899" lon="11.5108578"><ele>828.75</ele><time>2026-04-19T13:41:51.868Z</time></trkpt><trkpt lat="45.7860148" lon="11.5106723"><ele>827.5</ele><time>2026-04-19T13:41:52.862Z</time></trkpt><trkpt lat="45.7860343" lon="11.5104994"><ele>826.25</ele><time>2026-04-19T13:41:53.872Z</time></trkpt><trkpt lat="45.7860331" lon="11.5103284"><ele>825.0</ele><time>2026-04-19T13:41:54.869Z</time></trkpt><trkpt lat="45.7860084" lon="11.5101695"><ele>825.0</ele><time>2026-04-19T13:41:55.864Z</time></trkpt><trkpt lat="45.7859645" lon="11.5100114"><ele>825.0</ele><time>2026-04-19T13:41:56.866Z</time></trkpt><trkpt lat="45.7859037" lon="11.5098477"><ele>825.0</ele><time>2026-04-19T13:41:57.858Z</time></trkpt><trkpt lat="45.7858379" lon="11.5096801"><ele>825.0</ele><time>2026-04-19T13:41:58.861Z</time></trkpt><trkpt lat="45.7857869" lon="11.5095051"><ele>825.0</ele><time>2026-04-19T13:41:59.868Z</time></trkpt><trkpt lat="45.7857518" lon="11.5093339"><ele>825.0</ele><time>2026-04-19T13:42:00.87Z</time></trkpt><trkpt lat="45.7857296" lon="11.5091696"><ele>825.0</ele><time>2026-04-19T13:42:01.87Z</time></trkpt><trkpt lat="45.7857253" lon="11.5090143"><ele>825.0</ele><time>2026-04-19T13:42:02.864Z</time></trkpt><trkpt lat="45.7857399" lon="11.5088702"><ele>825.0</ele><time>2026-04-19T13:42:03.866Z</time></trkpt><trkpt lat="45.7857715" lon="11.5087449"><ele>825.0</ele><time>2026-04-19T13:42:04.868Z</time></trkpt><trkpt lat="45.7858259" lon="11.508641"><ele>825.0</ele><time>2026-04-19T13:42:05.867Z</time></trkpt><trkpt lat="45.7859009" lon="11.5085257"><ele>825.0</ele><time>2026-04-19T13:42:06.862Z</time></trkpt><trkpt lat="45.7859894" lon="11.5083971"><ele>825.0</ele><time>2026-04-19T13:42:07.867Z</time></trkpt><trkpt lat="45.786081" lon="11.5082646"><ele>825.0</ele><time>2026-04-19T13:42:08.878Z</time></trkpt><trkpt lat="45.786156" lon="11.5081401"><ele>825.0</ele><time>2026-04-19T13:42:09.871Z</time></trkpt><trkpt lat="45.7862142" lon="11.5080121"><ele>825.0</ele><time>2026-04-19T13:42:10.865Z</time></trkpt><trkpt lat="45.786256" lon="11.507877"><ele>825.0</ele><time>2026-04-19T13:42:11.863Z</time></trkpt><trkpt lat="45.7862811" lon="11.5077333"><ele>825.0</ele><time>2026-04-19T13:42:12.868Z</time></trkpt><trkpt lat="45.7862965" lon="11.5075903"><ele>825.0</ele><time>2026-04-19T13:42:13.864Z</time></trkpt><trkpt lat="45.7863157" lon="11.5074585"><ele>825.0</ele><time>2026-04-19T13:42:14.865Z</time></trkpt><trkpt lat="45.7863335" lon="11.5073413"><ele>825.0</ele><time>2026-04-19T13:42:15.87Z</time></trkpt><trkpt lat="45.7863439" lon="11.5072488"><ele>825.0</ele><time>2026-04-19T13:42:16.865Z</time></trkpt><trkpt lat="45.7863163" lon="11.5071548"><ele>825.0</ele><time>2026-04-19T13:42:18.864Z</time></trkpt><trkpt lat="45.7862429" lon="11.5072107"><ele>825.0</ele><time>2026-04-19T13:42:21.868Z</time></trkpt><trkpt lat="45.7862193" lon="11.507409"><ele>825.0</ele><time>2026-04-19T13:42:23.871Z</time></trkpt><trkpt lat="45.7862094" lon="11.5075287"><ele>825.0</ele><time>2026-04-19T13:42:24.867Z</time></trkpt><trkpt lat="45.7861814" lon="11.5076464"><ele>825.0</ele><time>2026-04-19T13:42:25.866Z</time></trkpt><trkpt lat="45.7861364" lon="11.5077603"><ele>825.0</ele><time>2026-04-19T13:42:26.871Z</time></trkpt><trkpt lat="45.7860827" lon="11.5078581"><ele>825.0</ele><time>2026-04-19T13:42:27.867Z</time></trkpt><trkpt lat="45.7860099" lon="11.5079375"><ele>825.0</ele><time>2026-04-19T13:42:28.865Z</time></trkpt><trkpt lat="45.7859247" lon="11.5079792"><ele>823.0</ele><time>2026-04-19T13:42:29.867Z</time></trkpt><trkpt lat="45.7858359" lon="11.5079859"><ele>821.0</ele><time>2026-04-19T13:42:30.862Z</time></trkpt><trkpt lat="45.785741" lon="11.5079614"><ele>819.0</ele><time>2026-04-19T13:42:31.862Z</time></trkpt><trkpt lat="45.7856463" lon="11.5079275"><ele>817.0</ele><time>2026-04-19T13:42:32.869Z</time></trkpt><trkpt lat="45.7855577" lon="11.5079066"><ele>815.0</ele><time>2026-04-19T13:42:33.866Z</time></trkpt><trkpt lat="45.7854683" lon="11.5078967"><ele>815.0000000000001</ele><time>2026-04-19T13:42:34.862Z</time></trkpt><trkpt lat="45.7853755" lon="11.5078956"><ele>815.0</ele><time>2026-04-19T13:42:35.864Z</time></trkpt><trkpt lat="45.7852849" lon="11.507918"><ele>815.0</ele><time>2026-04-19T13:42:36.859Z</time></trkpt><trkpt lat="45.7852058" lon="11.5079585"><ele>815.0</ele><time>2026-04-19T13:42:37.864Z</time></trkpt><trkpt lat="45.7851455" lon="11.5080211"><ele>815.0000000000001</ele><time>2026-04-19T13:42:38.864Z</time></trkpt><trkpt lat="45.7850958" lon="11.5081006"><ele>815.0</ele><time>2026-04-19T13:42:39.869Z</time></trkpt><trkpt lat="45.785059" lon="11.5081978"><ele>810.6</ele><time>2026-04-19T13:42:40.862Z</time></trkpt><trkpt lat="45.785034" lon="11.5083046"><ele>806.2</ele><time>2026-04-19T13:42:41.873Z</time></trkpt><trkpt lat="45.7850116" lon="11.5084153"><ele>801.8</ele><time>2026-04-19T13:42:42.87Z</time></trkpt><trkpt lat="45.7849876" lon="11.508542"><ele>797.4</ele><time>2026-04-19T13:42:43.868Z</time></trkpt><trkpt lat="45.7849586" lon="11.5086788"><ele>793.0</ele><time>2026-04-19T13:42:44.877Z</time></trkpt><trkpt lat="45.7849317" lon="11.5088194"><ele>793.0</ele><time>2026-04-19T13:42:45.872Z</time></trkpt><trkpt lat="45.7849098" lon="11.5089695"><ele>793.0</ele><time>2026-04-19T13:42:46.865Z</time></trkpt><trkpt lat="45.7848984" lon="11.5091386"><ele>793.0</ele><time>2026-04-19T13:42:47.868Z</time></trkpt><trkpt lat="45.7848947" lon="11.5093166"><ele>793.0</ele><time>2026-04-19T13:42:48.867Z</time></trkpt><trkpt lat="45.784899" lon="11.5095054"><ele>793.0</ele><time>2026-04-19T13:42:49.865Z</time></trkpt><trkpt lat="45.7849019" lon="11.5096944"><ele>793.0</ele><time>2026-04-19T13:42:50.87Z</time></trkpt><trkpt lat="45.784901" lon="11.5098828"><ele>793.0</ele><time>2026-04-19T13:42:51.875Z</time></trkpt><trkpt lat="45.784896" lon="11.5100648"><ele>793.0</ele><time>2026-04-19T13:42:52.865Z</time></trkpt><trkpt lat="45.7848893" lon="11.5102436"><ele>793.25</ele><time>2026-04-19T13:42:53.867Z</time></trkpt><trkpt lat="45.7848783" lon="11.5104222"><ele>793.5</ele><time>2026-04-19T13:42:54.867Z</time></trkpt><trkpt lat="45.7848602" lon="11.5105889"><ele>793.75</ele><time>2026-04-19T13:42:55.865Z</time></trkpt><trkpt lat="45.7848307" lon="11.5107479"><ele>794.0</ele><time>2026-04-19T13:42:56.87Z</time></trkpt><trkpt lat="45.7847896" lon="11.5108905"><ele>794.0</ele><time>2026-04-19T13:42:57.864Z</time></trkpt><trkpt lat="45.7847327" lon="11.511012"><ele>794.0</ele><time>2026-04-19T13:42:58.872Z</time></trkpt><trkpt lat="45.7846597" lon="11.5111186"><ele>794.0</ele><time>2026-04-19T13:42:59.866Z</time></trkpt><trkpt lat="45.7845715" lon="11.5112214"><ele>794.0</ele><time>2026-04-19T13:43:00.866Z</time></trkpt><trkpt lat="45.7844928" lon="11.5113237"><ele>794.0</ele><time>2026-04-19T13:43:01.865Z</time></trkpt><trkpt lat="45.7844166" lon="11.5114419"><ele>795.4000000000001</ele><time>2026-04-19T13:43:02.863Z</time></trkpt><trkpt lat="45.7843511" lon="11.5115711"><ele>796.8</ele><time>2026-04-19T13:43:03.864Z</time></trkpt><trkpt lat="45.7842975" lon="11.5117016"><ele>798.2</ele><time>2026-04-19T13:43:04.875Z</time></trkpt><trkpt lat="45.7842626" lon="11.5118333"><ele>799.5999999999999</ele><time>2026-04-19T13:43:05.868Z</time></trkpt><trkpt lat="45.7842471" lon="11.5119751"><ele>801.0</ele><time>2026-04-19T13:43:06.862Z</time></trkpt><trkpt lat="45.784251" lon="11.5121338"><ele>801.5</ele><time>2026-04-19T13:43:07.871Z</time></trkpt><trkpt lat="45.784271" lon="11.5122991"><ele>802.0</ele><time>2026-04-19T13:43:08.86Z</time></trkpt><trkpt lat="45.7842985" lon="11.5124738"><ele>802.5</ele><time>2026-04-19T13:43:09.867Z</time></trkpt><trkpt lat="45.7843264" lon="11.5126544"><ele>803.0</ele><time>2026-04-19T13:43:10.87Z</time></trkpt><trkpt lat="45.7843587" lon="11.5128392"><ele>801.5</ele><time>2026-04-19T13:43:11.863Z</time></trkpt><trkpt lat="45.7843929" lon="11.5130236"><ele>800.0</ele><time>2026-04-19T13:43:12.865Z</time></trkpt><trkpt lat="45.7844283" lon="11.5132144"><ele>798.5</ele><time>2026-04-19T13:43:13.867Z</time></trkpt><trkpt lat="45.7844626" lon="11.5134048"><ele>797.0</ele><time>2026-04-19T13:43:14.863Z</time></trkpt><trkpt lat="45.7844945" lon="11.5135935"><ele>795.25</ele><time>2026-04-19T13:43:15.858Z</time></trkpt><trkpt lat="45.7845274" lon="11.5137815"><ele>793.5</ele><time>2026-04-19T13:43:16.867Z</time></trkpt><trkpt lat="45.7845586" lon="11.5139657"><ele>791.75</ele><time>2026-04-19T13:43:17.859Z</time></trkpt><trkpt lat="45.7845832" lon="11.5141563"><ele>790.0</ele><time>2026-04-19T13:43:18.864Z</time></trkpt><trkpt lat="45.7845961" lon="11.5143489"><ele>790.0</ele><time>2026-04-19T13:43:19.871Z</time></trkpt><trkpt lat="45.7846052" lon="11.5145401"><ele>790.0</ele><time>2026-04-19T13:43:20.863Z</time></trkpt><trkpt lat="45.7846177" lon="11.5147299"><ele>790.0</ele><time>2026-04-19T13:43:21.878Z</time></trkpt><trkpt lat="45.7846306" lon="11.5149149"><ele>790.0</ele><time>2026-04-19T13:43:22.865Z</time></trkpt><trkpt lat="45.784649" lon="11.5150945"><ele>787.5</ele><time>2026-04-19T13:43:23.865Z</time></trkpt><trkpt lat="45.7846683" lon="11.5152784"><ele>785.0</ele><time>2026-04-19T13:43:24.88Z</time></trkpt><trkpt lat="45.784686" lon="11.5154646"><ele>782.5</ele><time>2026-04-19T13:43:25.868Z</time></trkpt><trkpt lat="45.7847062" lon="11.5156508"><ele>780.0</ele><time>2026-04-19T13:43:26.864Z</time></trkpt><trkpt lat="45.7847278" lon="11.5158379"><ele>776.5</ele><time>2026-04-19T13:43:27.863Z</time></trkpt><trkpt lat="45.7847528" lon="11.5160174"><ele>773.0</ele><time>2026-04-19T13:43:28.864Z</time></trkpt><trkpt lat="45.784781" lon="11.5161948"><ele>769.5</ele><time>2026-04-19T13:43:29.862Z</time></trkpt><trkpt lat="45.7848173" lon="11.5163786"><ele>766.0</ele><time>2026-04-19T13:43:30.871Z</time></trkpt><trkpt lat="45.7848591" lon="11.5165588"><ele>762.25</ele><time>2026-04-19T13:43:31.871Z</time></trkpt><trkpt lat="45.7849069" lon="11.5167296"><ele>758.5</ele><time>2026-04-19T13:43:32.867Z</time></trkpt><trkpt lat="45.7849589" lon="11.5168992"><ele>754.75</ele><time>2026-04-19T13:43:33.87Z</time></trkpt><trkpt lat="45.7850135" lon="11.5170675"><ele>751.0</ele><time>2026-04-19T13:43:34.868Z</time></trkpt><trkpt lat="45.7850659" lon="11.5172335"><ele>746.75</ele><time>2026-04-19T13:43:35.863Z</time></trkpt><trkpt lat="45.7851135" lon="11.5173978"><ele>742.5</ele><time>2026-04-19T13:43:36.868Z</time></trkpt><trkpt lat="45.7851513" lon="11.5175599"><ele>738.25</ele><time>2026-04-19T13:43:37.87Z</time></trkpt><trkpt lat="45.7851785" lon="11.5177234"><ele>734.0</ele><time>2026-04-19T13:43:38.862Z</time></trkpt><trkpt lat="45.7851912" lon="11.5178831"><ele>732.6</ele><time>2026-04-19T13:43:39.868Z</time></trkpt><trkpt lat="45.7851911" lon="11.5180391"><ele>731.2</ele><time>2026-04-19T13:43:40.865Z</time></trkpt><trkpt lat="45.7851738" lon="11.5181859"><ele>729.8000000000001</ele><time>2026-04-19T13:43:41.863Z</time></trkpt><trkpt lat="45.7851425" lon="11.5183331"><ele>728.4000000000001</ele><time>2026-04-19T13:43:42.871Z</time></trkpt><trkpt lat="45.7850977" lon="11.5184919"><ele>727.0</ele><time>2026-04-19T13:43:43.862Z</time></trkpt><trkpt lat="45.7850446" lon="11.518632"><ele>729.2</ele><time>2026-04-19T13:43:44.872Z</time></trkpt><trkpt lat="45.78498" lon="11.518761"><ele>731.4000000000001</ele><time>2026-04-19T13:43:45.867Z</time></trkpt><trkpt lat="45.7849078" lon="11.5188716"><ele>733.5999999999999</ele><time>2026-04-19T13:43:46.862Z</time></trkpt><trkpt lat="45.7848222" lon="11.5189611"><ele>735.8</ele><time>2026-04-19T13:43:47.866Z</time></trkpt><trkpt lat="45.7847289" lon="11.5190253"><ele>738.0</ele><time>2026-04-19T13:43:48.865Z</time></trkpt><trkpt lat="45.7846189" lon="11.5190757"><ele>738.0</ele><time>2026-04-19T13:43:49.867Z</time></trkpt><trkpt lat="45.784499" lon="11.5191147"><ele>738.0</ele><time>2026-04-19T13:43:50.867Z</time></trkpt><trkpt lat="45.7843743" lon="11.519157"><ele>738.0</ele><time>2026-04-19T13:43:51.863Z</time></trkpt><trkpt lat="45.7842525" lon="11.5192148"><ele>738.0</ele><time>2026-04-19T13:43:52.865Z</time></trkpt><trkpt lat="45.7841344" lon="11.5192768"><ele>733.5</ele><time>2026-04-19T13:43:53.862Z</time></trkpt><trkpt lat="45.7840166" lon="11.5193394"><ele>729.0</ele><time>2026-04-19T13:43:54.874Z</time></trkpt><trkpt lat="45.7839045" lon="11.5194043"><ele>724.5</ele><time>2026-04-19T13:43:55.867Z</time></trkpt><trkpt lat="45.7837941" lon="11.5194595"><ele>720.0</ele><time>2026-04-19T13:43:56.863Z</time></trkpt><trkpt lat="45.7836923" lon="11.519514"><ele>719.0</ele><time>2026-04-19T13:43:57.872Z</time></trkpt><trkpt lat="45.7836008" lon="11.5195698"><ele>718.0</ele><time>2026-04-19T13:43:58.872Z</time></trkpt><trkpt lat="45.7835142" lon="11.5196341"><ele>717.0</ele><time>2026-04-19T13:43:59.867Z</time></trkpt><trkpt lat="45.7834319" lon="11.5197083"><ele>716.0</ele><time>2026-04-19T13:44:00.861Z</time></trkpt><trkpt lat="45.7833603" lon="11.5197907"><ele>715.0</ele><time>2026-04-19T13:44:01.859Z</time></trkpt><trkpt lat="45.783295" lon="11.5198745"><ele>715.0</ele><time>2026-04-19T13:44:02.861Z</time></trkpt><trkpt lat="45.7832328" lon="11.5199589"><ele>715.0</ele><time>2026-04-19T13:44:03.861Z</time></trkpt><trkpt lat="45.7831726" lon="11.5200457"><ele>715.0</ele><time>2026-04-19T13:44:04.864Z</time></trkpt><trkpt lat="45.7831057" lon="11.5201344"><ele>715.0</ele><time>2026-04-19T13:44:05.859Z</time></trkpt><trkpt lat="45.7830262" lon="11.5202238"><ele>715.0</ele><time>2026-04-19T13:44:06.859Z</time></trkpt><trkpt lat="45.7829335" lon="11.5203124"><ele>715.0</ele><time>2026-04-19T13:44:07.866Z</time></trkpt><trkpt lat="45.7828292" lon="11.5203879"><ele>715.0</ele><time>2026-04-19T13:44:08.864Z</time></trkpt><trkpt lat="45.7827283" lon="11.5204498"><ele>715.0</ele><time>2026-04-19T13:44:09.862Z</time></trkpt><trkpt lat="45.7826292" lon="11.5205039"><ele>715.0</ele><time>2026-04-19T13:44:10.862Z</time></trkpt><trkpt lat="45.782532" lon="11.5205435"><ele>715.0</ele><time>2026-04-19T13:44:11.866Z</time></trkpt><trkpt lat="45.7824364" lon="11.5205777"><ele>714.2</ele><time>2026-04-19T13:44:12.865Z</time></trkpt><trkpt lat="45.7823473" lon="11.5206277"><ele>713.4</ele><time>2026-04-19T13:44:13.859Z</time></trkpt><trkpt lat="45.7822553" lon="11.5206933"><ele>712.5999999999999</ele><time>2026-04-19T13:44:14.859Z</time></trkpt><trkpt lat="45.7821706" lon="11.5207688"><ele>711.8</ele><time>2026-04-19T13:44:15.87Z</time></trkpt><trkpt lat="45.7820925" lon="11.5208473"><ele>711.0</ele><time>2026-04-19T13:44:16.87Z</time></trkpt><trkpt lat="45.7820257" lon="11.520929"><ele>711.0</ele><time>2026-04-19T13:44:17.866Z</time></trkpt><trkpt lat="45.7819682" lon="11.5210193"><ele>711.0</ele><time>2026-04-19T13:44:18.862Z</time></trkpt><trkpt lat="45.7819292" lon="11.5211267"><ele>711.0</ele><time>2026-04-19T13:44:19.859Z</time></trkpt><trkpt lat="45.78191" lon="11.5212475"><ele>711.0</ele><time>2026-04-19T13:44:20.86Z</time></trkpt><trkpt lat="45.7819092" lon="11.5213801"><ele>711.0</ele><time>2026-04-19T13:44:21.868Z</time></trkpt><trkpt lat="45.781928" lon="11.5215057"><ele>711.0</ele><time>2026-04-19T13:44:22.868Z</time></trkpt><trkpt lat="45.7819591" lon="11.5216216"><ele>710.6666666666666</ele><time>2026-04-19T13:44:23.859Z</time></trkpt><trkpt lat="45.7820018" lon="11.5217313"><ele>710.3333333333334</ele><time>2026-04-19T13:44:24.862Z</time></trkpt><trkpt lat="45.7820514" lon="11.5218289"><ele>710.0</ele><time>2026-04-19T13:44:25.868Z</time></trkpt><trkpt lat="45.7821045" lon="11.5219089"><ele>709.6666666666667</ele><time>2026-04-19T13:44:26.874Z</time></trkpt><trkpt lat="45.7821804" lon="11.5220085"><ele>709.3333333333334</ele><time>2026-04-19T13:44:28.869Z</time></trkpt><trkpt lat="45.7821717" lon="11.5221111"><ele>709.0</ele><time>2026-04-19T13:44:31.87Z</time></trkpt><trkpt lat="45.782109" lon="11.5220784"><ele>709.0</ele><time>2026-04-19T13:44:34.865Z</time></trkpt><trkpt lat="45.7820232" lon="11.5219983"><ele>709.0</ele><time>2026-04-19T13:44:36.865Z</time></trkpt><trkpt lat="45.7819541" lon="11.5219499"><ele>709.0</ele><time>2026-04-19T13:44:37.872Z</time></trkpt><trkpt lat="45.7818641" lon="11.5219027"><ele>709.0</ele><time>2026-04-19T13:44:38.871Z</time></trkpt><trkpt lat="45.7817574" lon="11.5218538"><ele>709.0</ele><time>2026-04-19T13:44:39.87Z</time></trkpt><trkpt lat="45.7816447" lon="11.5218139"><ele>709.5</ele><time>2026-04-19T13:44:40.865Z</time></trkpt><trkpt lat="45.7815345" lon="11.5217893"><ele>710.0</ele><time>2026-04-19T13:44:41.863Z</time></trkpt><trkpt lat="45.7814205" lon="11.5217671"><ele>710.5</ele><time>2026-04-19T13:44:42.865Z</time></trkpt><trkpt lat="45.781308" lon="11.5217354"><ele>711.0</ele><time>2026-04-19T13:44:43.868Z</time></trkpt><trkpt lat="45.7823473" lon="11.5206277"><ele>711.0</ele><time>2026-04-19T13:44:13.859Z</time></trkpt><trkpt lat="45.7822553" lon="11.5206933"><ele>711.0</ele><time>2026-04-19T13:44:14.859Z</time></trkpt><trkpt lat="45.7821706" lon="11.5207688"><ele>711.0</ele><time>2026-04-19T13:44:15.87Z</time></trkpt><trkpt lat="45.7820925" lon="11.5208473"><ele>711.0</ele><time>2026-04-19T13:44:16.87Z</time></trkpt><trkpt lat="45.7820257" lon="11.520929"><ele>711.0</ele><time>2026-04-19T13:44:17.866Z</time></trkpt><trkpt lat="45.7819682" lon="11.5210193"><ele>711.0</ele><time>2026-04-19T13:44:18.862Z</time></trkpt><trkpt lat="45.7819292" lon="11.5211267"><ele>711.0</ele><time>2026-04-19T13:44:19.859Z</time></trkpt><trkpt lat="45.78191" lon="11.5212475"><ele>711.0</ele><time>2026-04-19T13:44:20.86Z</time></trkpt><trkpt lat="45.7819092" lon="11.5213801"><ele>711.0</ele><time>2026-04-19T13:44:21.868Z</time></trkpt><trkpt lat="45.781928" lon="11.5215057"><ele>711.0</ele><time>2026-04-19T13:44:22.868Z</time></trkpt><trkpt lat="45.7819591" lon="11.5216216"><ele>711.0</ele><time>2026-04-19T13:44:23.859Z</time></trkpt><trkpt lat="45.7820018" lon="11.5217313"><ele>710.6666666666666</ele><time>2026-04-19T13:44:24.862Z</time></trkpt><trkpt lat="45.7820514" lon="11.5218289"><ele>710.3333333333334</ele><time>2026-04-19T13:44:25.868Z</time></trkpt><trkpt lat="45.7821045" lon="11.5219089"><ele>710.0</ele><time>2026-04-19T13:44:26.874Z</time></trkpt><trkpt lat="45.7821804" lon="11.5220085"><ele>709.6666666666667</ele><time>2026-04-19T13:44:28.869Z</time></trkpt><trkpt lat="45.7821717" lon="11.5221111"><ele>709.3333333333334</ele><time>2026-04-19T13:44:31.87Z</time></trkpt><trkpt lat="45.782109" lon="11.5220784"><ele>709.0</ele><time>2026-04-19T13:44:34.865Z</time></trkpt><trkpt lat="45.7820232" lon="11.5219983"><ele>709.0</ele><time>2026-04-19T13:44:36.865Z</time></trkpt><trkpt lat="45.7819541" lon="11.5219499"><ele>709.0</ele><time>2026-04-19T13:44:37.872Z</time></trkpt><trkpt lat="45.7818641" lon="11.5219027"><ele>709.0</ele><time>2026-04-19T13:44:38.871Z</time></trkpt><trkpt lat="45.7817574" lon="11.5218538"><ele>709.0</ele><time>2026-04-19T13:44:39.87Z</time></trkpt><trkpt lat="45.7816447" lon="11.5218139"><ele>709.0</ele><time>2026-04-19T13:44:40.865Z</time></trkpt><trkpt lat="45.7815345" lon="11.5217893"><ele>706.0</ele><time>2026-04-19T13:44:41.863Z</time></trkpt><trkpt lat="45.7814205" lon="11.5217671"><ele>703.0</ele><time>2026-04-19T13:44:42.865Z</time></trkpt><trkpt lat="45.781308" lon="11.5217354"><ele>700.0</ele><time>2026-04-19T13:44:43.868Z</time></trkpt><trkpt lat="45.7811994" lon="11.5217023"><ele>697.0</ele><time>2026-04-19T13:44:44.866Z</time></trkpt><trkpt lat="45.7810966" lon="11.5216626"><ele>694.0</ele><time>2026-04-19T13:44:45.863Z</time></trkpt><trkpt lat="45.7810033" lon="11.5216149"><ele>693.2</ele><time>2026-04-19T13:44:46.87Z</time></trkpt><trkpt lat="45.7809155" lon="11.5215538"><ele>692.4000000000001</ele><time>2026-04-19T13:44:47.862Z</time></trkpt><trkpt lat="45.7808318" lon="11.5214724"><ele>691.6</ele><time>2026-04-19T13:44:48.868Z</time></trkpt><trkpt lat="45.7807488" lon="11.5213611"><ele>690.8</ele><time>2026-04-19T13:44:49.871Z</time></trkpt><trkpt lat="45.7806714" lon="11.5212301"><ele>690.0</ele><time>2026-04-19T13:44:50.868Z</time></trkpt><trkpt lat="45.7805955" lon="11.5210928"><ele>690.0</ele><time>2026-04-19T13:44:51.866Z</time></trkpt><trkpt lat="45.7805305" lon="11.5209594"><ele>690.0</ele><time>2026-04-19T13:44:52.864Z</time></trkpt><trkpt lat="45.7804783" lon="11.5208263"><ele>690.0</ele><time>2026-04-19T13:44:53.865Z</time></trkpt><trkpt lat="45.7804386" lon="11.5206789"><ele>690.0</ele><time>2026-04-19T13:44:54.872Z</time></trkpt><trkpt lat="45.7804029" lon="11.5205253"><ele>690.0</ele><time>2026-04-19T13:44:55.865Z</time></trkpt><trkpt lat="45.7803753" lon="11.5203814"><ele>688.2</ele><time>2026-04-19T13:44:56.87Z</time></trkpt><trkpt lat="45.7803631" lon="11.520251"><ele>686.4</ele><time>2026-04-19T13:44:57.869Z</time></trkpt><trkpt lat="45.7803708" lon="11.5201186"><ele>684.5999999999999</ele><time>2026-04-19T13:44:58.871Z</time></trkpt><trkpt lat="45.780402" lon="11.5199844"><ele>682.8</ele><time>2026-04-19T13:44:59.86Z</time></trkpt><trkpt lat="45.7804548" lon="11.519848"><ele>681.0</ele><time>2026-04-19T13:45:00.862Z</time></trkpt><trkpt lat="45.7805209" lon="11.5196997"><ele>677.5</ele><time>2026-04-19T13:45:01.867Z</time></trkpt><trkpt lat="45.7805918" lon="11.5195497"><ele>674.0</ele><time>2026-04-19T13:45:02.862Z</time></trkpt><trkpt lat="45.7806624" lon="11.519404"><ele>670.5</ele><time>2026-04-19T13:45:03.864Z</time></trkpt><trkpt lat="45.7807353" lon="11.5192707"><ele>667.0</ele><time>2026-04-19T13:45:04.868Z</time></trkpt><trkpt lat="45.7808158" lon="11.5191547"><ele>667.0</ele><time>2026-04-19T13:45:05.86Z</time></trkpt><trkpt lat="45.7808994" lon="11.5190555"><ele>667.0</ele><time>2026-04-19T13:45:06.867Z</time></trkpt><trkpt lat="45.7809824" lon="11.5189641"><ele>667.0</ele><time>2026-04-19T13:45:07.867Z</time></trkpt><trkpt lat="45.7810589" lon="11.5188965"><ele>667.0</ele><time>2026-04-19T13:45:08.873Z</time></trkpt><trkpt lat="45.781138" lon="11.5188544"><ele>667.0</ele><time>2026-04-19T13:45:09.862Z</time></trkpt><trkpt lat="45.7812177" lon="11.518845"><ele>667.1666666666667</ele><time>2026-04-19T13:45:10.862Z</time></trkpt><trkpt lat="45.7812961" lon="11.5188809"><ele>667.3333333333334</ele><time>2026-04-19T13:45:11.864Z</time></trkpt><trkpt lat="45.7813775" lon="11.5189526"><ele>667.5</ele><time>2026-04-19T13:45:12.864Z</time></trkpt><trkpt lat="45.781458" lon="11.5190117"><ele>667.6666666666666</ele><time>2026-04-19T13:45:13.871Z</time></trkpt><trkpt lat="45.7815405" lon="11.5190311"><ele>667.8333333333333</ele><time>2026-04-19T13:45:14.87Z</time></trkpt><trkpt lat="45.7816209" lon="11.5190149"><ele>668.0</ele><time>2026-04-19T13:45:15.869Z</time></trkpt><trkpt lat="45.7816981" lon="11.5189761"><ele>668.0</ele><time>2026-04-19T13:45:16.865Z</time></trkpt><trkpt lat="45.7817751" lon="11.5189247"><ele>668.0</ele><time>2026-04-19T13:45:17.867Z</time></trkpt><trkpt lat="45.7818513" lon="11.5188554"><ele>668.0</ele><time>2026-04-19T13:45:18.862Z</time></trkpt><trkpt lat="45.7819189" lon="11.5187633"><ele>668.0</ele><time>2026-04-19T13:45:19.863Z</time></trkpt><trkpt lat="45.7819757" lon="11.5186575"><ele>668.0</ele><time>2026-04-19T13:45:20.861Z</time></trkpt><trkpt lat="45.7820206" lon="11.5185555"><ele>668.0</ele><time>2026-04-19T13:45:21.871Z</time></trkpt><trkpt lat="45.7820623" lon="11.5184597"><ele>666.0</ele><time>2026-04-19T13:45:22.864Z</time></trkpt><trkpt lat="45.7821156" lon="11.5183833"><ele>664.0</ele><time>2026-04-19T13:45:23.865Z</time></trkpt><trkpt lat="45.7821926" lon="11.5183245"><ele>662.0</ele><time>2026-04-19T13:45:24.863Z</time></trkpt><trkpt lat="45.7822889" lon="11.5182788"><ele>660.0</ele><time>2026-04-19T13:45:25.876Z</time></trkpt><trkpt lat="45.7824012" lon="11.5182504"><ele>658.0</ele><time>2026-04-19T13:45:26.864Z</time></trkpt><trkpt lat="45.7825166" lon="11.5182244"><ele>658.0</ele><time>2026-04-19T13:45:27.865Z</time></trkpt><trkpt lat="45.7826288" lon="11.5182028"><ele>658.0</ele><time>2026-04-19T13:45:28.865Z</time></trkpt><trkpt lat="45.7827348" lon="11.5181742"><ele>658.0</ele><time>2026-04-19T13:45:29.863Z</time></trkpt><trkpt lat="45.7828233" lon="11.5181458"><ele>658.0</ele><time>2026-04-19T13:45:30.868Z</time></trkpt><trkpt lat="45.7828973" lon="11.5181079"><ele>658.0</ele><time>2026-04-19T13:45:31.864Z</time></trkpt><trkpt lat="45.7829493" lon="11.5180454"><ele>658.8</ele><time>2026-04-19T13:45:32.865Z</time></trkpt><trkpt lat="45.7829799" lon="11.5179661"><ele>659.5999999999999</ele><time>2026-04-19T13:45:33.863Z</time></trkpt><trkpt lat="45.7829754" lon="11.5177814"><ele>660.4000000000001</ele><time>2026-04-19T13:45:35.864Z</time></trkpt><trkpt lat="45.7829473" lon="11.5176706"><ele>661.2</ele><time>2026-04-19T13:45:36.872Z</time></trkpt><trkpt lat="45.7829082" lon="11.5175417"><ele>662.0</ele><time>2026-04-19T13:45:37.867Z</time></trkpt><trkpt lat="45.7828623" lon="11.517387"><ele>662.0</ele><time>2026-04-19T13:45:38.868Z</time></trkpt><trkpt lat="45.782816" lon="11.5172253"><ele>662.0</ele><time>2026-04-19T13:45:39.865Z</time></trkpt><trkpt lat="45.7827668" lon="11.5170566"><ele>662.0</ele><time>2026-04-19T13:45:40.861Z</time></trkpt><trkpt lat="45.7827189" lon="11.5168888"><ele>662.0</ele><time>2026-04-19T13:45:41.863Z</time></trkpt><trkpt lat="45.7826738" lon="11.5167237"><ele>656.0</ele><time>2026-04-19T13:45:42.864Z</time></trkpt><trkpt lat="45.7826251" lon="11.5165633"><ele>650.0</ele><time>2026-04-19T13:45:43.863Z</time></trkpt><trkpt lat="45.7825725" lon="11.5164098"><ele>644.0</ele><time>2026-04-19T13:45:44.864Z</time></trkpt><trkpt lat="45.7825044" lon="11.5162587"><ele>638.0</ele><time>2026-04-19T13:45:45.861Z</time></trkpt><trkpt lat="45.782426" lon="11.5161119"><ele>638.0</ele><time>2026-04-19T13:45:46.864Z</time></trkpt><trkpt lat="45.7823435" lon="11.5159779"><ele>638.0</ele><time>2026-04-19T13:45:47.862Z</time></trkpt><trkpt lat="45.7822638" lon="11.5158441"><ele>638.0</ele><time>2026-04-19T13:45:48.871Z</time></trkpt><trkpt lat="45.7821919" lon="11.5157041"><ele>638.0</ele><time>2026-04-19T13:45:49.861Z</time></trkpt><trkpt lat="45.7821239" lon="11.5155552"><ele>640.75</ele><time>2026-04-19T13:45:50.864Z</time></trkpt><trkpt lat="45.7820611" lon="11.5153982"><ele>643.5</ele><time>2026-04-19T13:45:51.866Z</time></trkpt><trkpt lat="45.782005" lon="11.5152273"><ele>646.25</ele><time>2026-04-19T13:45:52.866Z</time></trkpt><trkpt lat="45.7819528" lon="11.5150495"><ele>649.0</ele><time>2026-04-19T13:45:53.866Z</time></trkpt><trkpt lat="45.781905" lon="11.5148701"><ele>649.0</ele><time>2026-04-19T13:45:54.867Z</time></trkpt><trkpt lat="45.781859" lon="11.5146881"><ele>649.0</ele><time>2026-04-19T13:45:55.865Z</time></trkpt><trkpt lat="45.7818158" lon="11.5145067"><ele>649.0</ele><time>2026-04-19T13:45:56.862Z</time></trkpt><trkpt lat="45.7817744" lon="11.5143312"><ele>649.0</ele><time>2026-04-19T13:45:57.862Z</time></trkpt><trkpt lat="45.781733" lon="11.5141631"><ele>644.25</ele><time>2026-04-19T13:45:58.872Z</time></trkpt><trkpt lat="45.781685" lon="11.5140103"><ele>639.5</ele><time>2026-04-19T13:45:59.878Z</time></trkpt><trkpt lat="45.7816229" lon="11.5138737"><ele>634.75</ele><time>2026-04-19T13:46:00.861Z</time></trkpt><trkpt lat="45.7815497" lon="11.5137486"><ele>630.0</ele><time>2026-04-19T13:46:01.86Z</time></trkpt><trkpt lat="45.7814706" lon="11.5136309"><ele>630.0</ele><time>2026-04-19T13:46:02.862Z</time></trkpt><trkpt lat="45.7813921" lon="11.5135165"><ele>630.0</ele><time>2026-04-19T13:46:03.864Z</time></trkpt><trkpt lat="45.7813158" lon="11.5134007"><ele>630.0</ele><time>2026-04-19T13:46:04.867Z</time></trkpt><trkpt lat="45.7812378" lon="11.5132856"><ele>630.0</ele><time>2026-04-19T13:46:05.868Z</time></trkpt><trkpt lat="45.7811661" lon="11.5131726"><ele>630.0</ele><time>2026-04-19T13:46:06.866Z</time></trkpt><trkpt lat="45.7810972" lon="11.513063"><ele>630.0</ele><time>2026-04-19T13:46:07.866Z</time></trkpt><trkpt lat="45.7810285" lon="11.5129674"><ele>630.0</ele><time>2026-04-19T13:46:08.863Z</time></trkpt><trkpt lat="45.7809629" lon="11.5128877"><ele>630.0</ele><time>2026-04-19T13:46:09.864Z</time></trkpt><trkpt lat="45.7809046" lon="11.512812"><ele>630.0</ele><time>2026-04-19T13:46:10.867Z</time></trkpt><trkpt lat="45.780863" lon="11.5127181"><ele>630.0</ele><time>2026-04-19T13:46:11.867Z</time></trkpt><trkpt lat="45.7808375" lon="11.512607"><ele>630.0</ele><time>2026-04-19T13:46:12.866Z</time></trkpt><trkpt lat="45.7808347" lon="11.5124898"><ele>625.8333333333334</ele><time>2026-04-19T13:46:13.861Z</time></trkpt><trkpt lat="45.7808505" lon="11.5123826"><ele>621.6666666666666</ele><time>2026-04-19T13:46:14.865Z</time></trkpt><trkpt lat="45.7808716" lon="11.5122854"><ele>617.5</ele><time>2026-04-19T13:46:15.87Z</time></trkpt><trkpt lat="45.7808575" lon="11.5121673"><ele>613.3333333333333</ele><time>2026-04-19T13:46:17.864Z</time></trkpt><trkpt lat="45.7807881" lon="11.5121935"><ele>609.1666666666666</ele><time>2026-04-19T13:46:19.867Z</time></trkpt><trkpt lat="45.7807203" lon="11.5123508"><ele>605.0</ele><time>2026-04-19T13:46:21.866Z</time></trkpt><trkpt lat="45.7806694" lon="11.5124434"><ele>605.0</ele><time>2026-04-19T13:46:22.872Z</time></trkpt><trkpt lat="45.7806052" lon="11.5125241"><ele>605.0</ele><time>2026-04-19T13:46:23.863Z</time></trkpt><trkpt lat="45.7805398" lon="11.5126062"><ele>605.0</ele><time>2026-04-19T13:46:24.865Z</time></trkpt><trkpt lat="45.7804889" lon="11.5126928"><ele>605.0</ele><time>2026-04-19T13:46:25.862Z</time></trkpt><trkpt lat="45.7804585" lon="11.5127907"><ele>605.0</ele><time>2026-04-19T13:46:26.873Z</time></trkpt><trkpt lat="45.7804474" lon="11.5128935"><ele>605.0</ele><time>2026-04-19T13:46:27.866Z</time></trkpt><trkpt lat="45.780448" lon="11.513021"><ele>604.6666666666666</ele><time>2026-04-19T13:46:28.865Z</time></trkpt><trkpt lat="45.7804572" lon="11.5131475"><ele>604.3333333333333</ele><time>2026-04-19T13:46:29.872Z</time></trkpt><trkpt lat="45.7804705" lon="11.5132761"><ele>604.0</ele><time>2026-04-19T13:46:30.865Z</time></trkpt><trkpt lat="45.7804901" lon="11.513392"><ele>603.6666666666666</ele><time>2026-04-19T13:46:31.863Z</time></trkpt><trkpt lat="45.7805204" lon="11.513503"><ele>603.3333333333334</ele><time>2026-04-19T13:46:32.867Z</time></trkpt><trkpt lat="45.7805627" lon="11.5136113"><ele>603.0</ele><time>2026-04-19T13:46:33.866Z</time></trkpt><trkpt lat="45.7806117" lon="11.513716"><ele>601.6</ele><time>2026-04-19T13:46:34.86Z</time></trkpt><trkpt lat="45.7806623" lon="11.5138247"><ele>600.1999999999999</ele><time>2026-04-19T13:46:35.869Z</time></trkpt><trkpt lat="45.7807205" lon="11.5139368"><ele>598.8</ele><time>2026-04-19T13:46:36.866Z</time></trkpt><trkpt lat="45.7807794" lon="11.5140428"><ele>597.4</ele><time>2026-04-19T13:46:37.861Z</time></trkpt><trkpt lat="45.7808403" lon="11.5141451"><ele>596.0</ele><time>2026-04-19T13:46:38.868Z</time></trkpt><trkpt lat="45.78091" lon="11.514255"><ele>596.0</ele><time>2026-04-19T13:46:39.869Z</time></trkpt><trkpt lat="45.7809811" lon="11.5143543"><ele>596.0</ele><time>2026-04-19T13:46:40.867Z</time></trkpt><trkpt lat="45.7810399" lon="11.5144426"><ele>596.0</ele><time>2026-04-19T13:46:41.868Z</time></trkpt><trkpt lat="45.780863" lon="11.5127181"><ele>597.5</ele><time>2026-04-19T13:46:11.867Z</time></trkpt><trkpt lat="45.7808375" lon="11.512607"><ele>599.0</ele><time>2026-04-19T13:46:12.866Z</time></trkpt><trkpt lat="45.7808347" lon="11.5124898"><ele>600.5</ele><time>2026-04-19T13:46:13.861Z</time></trkpt><trkpt lat="45.7808505" lon="11.5123826"><ele>602.0</ele><time>2026-04-19T13:46:14.865Z</time></trkpt><trkpt lat="45.7808716" lon="11.5122854"><ele>603.5</ele><time>2026-04-19T13:46:15.87Z</time></trkpt><trkpt lat="45.7808575" lon="11.5121673"><ele>605.0</ele><time>2026-04-19T13:46:17.864Z</time></trkpt><trkpt lat="45.7807881" lon="11.5121935"><ele>605.0</ele><time>2026-04-19T13:46:19.867Z</time></trkpt><trkpt lat="45.7807203" lon="11.5123508"><ele>605.0</ele><time>2026-04-19T13:46:21.866Z</time></trkpt><trkpt lat="45.7806694" lon="11.5124434"><ele>605.0</ele><time>2026-04-19T13:46:22.872Z</time></trkpt><trkpt lat="45.7806052" lon="11.5125241"><ele>605.0</ele><time>2026-04-19T13:46:23.863Z</time></trkpt><trkpt lat="45.7805398" lon="11.5126062"><ele>605.0</ele><time>2026-04-19T13:46:24.865Z</time></trkpt><trkpt lat="45.7804889" lon="11.5126928"><ele>605.0</ele><time>2026-04-19T13:46:25.862Z</time></trkpt><trkpt lat="45.7804585" lon="11.5127907"><ele>605.0</ele><time>2026-04-19T13:46:26.873Z</time></trkpt><trkpt lat="45.7804474" lon="11.5128935"><ele>605.0</ele><time>2026-04-19T13:46:27.866Z</time></trkpt><trkpt lat="45.780448" lon="11.513021"><ele>605.0</ele><time>2026-04-19T13:46:28.865Z</time></trkpt><trkpt lat="45.7804572" lon="11.5131475"><ele>605.0</ele><time>2026-04-19T13:46:29.872Z</time></trkpt><trkpt lat="45.7804705" lon="11.5132761"><ele>605.0</ele><time>2026-04-19T13:46:30.865Z</time></trkpt><trkpt lat="45.7804901" lon="11.513392"><ele>604.6666666666666</ele><time>2026-04-19T13:46:31.863Z</time></trkpt><trkpt lat="45.7805204" lon="11.513503"><ele>604.3333333333333</ele><time>2026-04-19T13:46:32.867Z</time></trkpt><trkpt lat="45.7805627" lon="11.5136113"><ele>604.0</ele><time>2026-04-19T13:46:33.866Z</time></trkpt><trkpt lat="45.7806117" lon="11.513716"><ele>603.6666666666666</ele><time>2026-04-19T13:46:34.86Z</time></trkpt><trkpt lat="45.7806623" lon="11.5138247"><ele>603.3333333333334</ele><time>2026-04-19T13:46:35.869Z</time></trkpt><trkpt lat="45.7807205" lon="11.5139368"><ele>603.0</ele><time>2026-04-19T13:46:36.866Z</time></trkpt><trkpt lat="45.7807794" lon="11.5140428"><ele>601.6</ele><time>2026-04-19T13:46:37.861Z</time></trkpt><trkpt lat="45.7808403" lon="11.5141451"><ele>600.1999999999999</ele><time>2026-04-19T13:46:38.868Z</time></trkpt><trkpt lat="45.78091" lon="11.514255"><ele>598.8</ele><time>2026-04-19T13:46:39.869Z</time></trkpt><trkpt lat="45.7809811" lon="11.5143543"><ele>597.4</ele><time>2026-04-19T13:46:40.867Z</time></trkpt><trkpt lat="45.7810399" lon="11.5144426"><ele>596.0</ele><time>2026-04-19T13:46:41.868Z</time></trkpt><trkpt lat="45.7810812" lon="11.5145399"><ele>599.2</ele><time>2026-04-19T13:46:42.867Z</time></trkpt><trkpt lat="45.781098" lon="11.514652"><ele>602.4000000000001</ele><time>2026-04-19T13:46:43.863Z</time></trkpt><trkpt lat="45.78109" lon="11.5147767"><ele>605.6</ele><time>2026-04-19T13:46:44.872Z</time></trkpt><trkpt lat="45.7810861" lon="11.5149221"><ele>608.8000000000001</ele><time>2026-04-19T13:46:45.866Z</time></trkpt><trkpt lat="45.7810951" lon="11.5150791"><ele>612.0</ele><time>2026-04-19T13:46:46.866Z</time></trkpt><trkpt lat="45.7811046" lon="11.5152357"><ele>612.0</ele><time>2026-04-19T13:46:47.866Z</time></trkpt><trkpt lat="45.7811235" lon="11.5153858"><ele>612.0</ele><time>2026-04-19T13:46:48.872Z</time></trkpt><trkpt lat="45.7811533" lon="11.5155166"><ele>612.0</ele><time>2026-04-19T13:46:49.865Z</time></trkpt><trkpt lat="45.7811975" lon="11.5156334"><ele>612.0</ele><time>2026-04-19T13:46:50.862Z</time></trkpt><trkpt lat="45.7812553" lon="11.515759"><ele>612.0</ele><time>2026-04-19T13:46:51.86Z</time></trkpt><trkpt lat="45.7813181" lon="11.5158813"><ele>610.8333333333334</ele><time>2026-04-19T13:46:52.861Z</time></trkpt><trkpt lat="45.7813829" lon="11.5159927"><ele>609.6666666666666</ele><time>2026-04-19T13:46:53.874Z</time></trkpt><trkpt lat="45.7814407" lon="11.5160979"><ele>608.5</ele><time>2026-04-19T13:46:54.871Z</time></trkpt><trkpt lat="45.7814769" lon="11.5161978"><ele>607.3333333333333</ele><time>2026-04-19T13:46:55.871Z</time></trkpt><trkpt lat="45.7814831" lon="11.5163013"><ele>606.1666666666666</ele><time>2026-04-19T13:46:56.867Z</time></trkpt><trkpt lat="45.7814567" lon="11.516392"><ele>605.0</ele><time>2026-04-19T13:46:57.872Z</time></trkpt><trkpt lat="45.7814025" lon="11.5164465"><ele>605.0</ele><time>2026-04-19T13:46:58.866Z</time></trkpt><trkpt lat="45.7813338" lon="11.5164598"><ele>605.0</ele><time>2026-04-19T13:46:59.866Z</time></trkpt><trkpt lat="45.7812541" lon="11.5164435"><ele>605.0</ele><time>2026-04-19T13:47:00.865Z</time></trkpt><trkpt lat="45.7811569" lon="11.5164187"><ele>605.0</ele><time>2026-04-19T13:47:01.863Z</time></trkpt><trkpt lat="45.7810494" lon="11.5163962"><ele>605.0</ele><time>2026-04-19T13:47:02.862Z</time></trkpt><trkpt lat="45.780931" lon="11.5163837"><ele>602.0</ele><time>2026-04-19T13:47:03.869Z</time></trkpt><trkpt lat="45.7808062" lon="11.5163777"><ele>599.0</ele><time>2026-04-19T13:47:04.872Z</time></trkpt><trkpt lat="45.7806825" lon="11.5163703"><ele>596.0</ele><time>2026-04-19T13:47:05.864Z</time></trkpt><trkpt lat="45.7805571" lon="11.5163713"><ele>593.0</ele><time>2026-04-19T13:47:06.866Z</time></trkpt><trkpt lat="45.7804309" lon="11.5163875"><ele>593.0</ele><time>2026-04-19T13:47:07.864Z</time></trkpt><trkpt lat="45.780305" lon="11.516414"><ele>593.0</ele><time>2026-04-19T13:47:08.863Z</time></trkpt><trkpt lat="45.7801776" lon="11.5164509"><ele>593.0</ele><time>2026-04-19T13:47:09.867Z</time></trkpt><trkpt lat="45.7800492" lon="11.516494"><ele>593.0</ele><time>2026-04-19T13:47:10.864Z</time></trkpt><trkpt lat="45.7799197" lon="11.5165439"><ele>590.0</ele><time>2026-04-19T13:47:11.86Z</time></trkpt><trkpt lat="45.7797901" lon="11.5165937"><ele>587.0</ele><time>2026-04-19T13:47:12.862Z</time></trkpt><trkpt lat="45.7796613" lon="11.5166452"><ele>584.0</ele><time>2026-04-19T13:47:13.861Z</time></trkpt><trkpt lat="45.7795327" lon="11.5166926"><ele>581.0</ele><time>2026-04-19T13:47:14.861Z</time></trkpt><trkpt lat="45.7794044" lon="11.5167424"><ele>575.2</ele><time>2026-04-19T13:47:15.866Z</time></trkpt><trkpt lat="45.7792847" lon="11.516785"><ele>569.4000000000001</ele><time>2026-04-19T13:47:16.866Z</time></trkpt><trkpt lat="45.7791778" lon="11.5168294"><ele>563.6</ele><time>2026-04-19T13:47:17.868Z</time></trkpt><trkpt lat="45.7790877" lon="11.5168917"><ele>557.8000000000001</ele><time>2026-04-19T13:47:18.866Z</time></trkpt><trkpt lat="45.7790106" lon="11.5169676"><ele>552.0</ele><time>2026-04-19T13:47:19.865Z</time></trkpt><trkpt lat="45.7789502" lon="11.5170687"><ele>559.25</ele><time>2026-04-19T13:47:20.862Z</time></trkpt><trkpt lat="45.7788947" lon="11.5171939"><ele>566.5</ele><time>2026-04-19T13:47:21.866Z</time></trkpt><trkpt lat="45.7788366" lon="11.5173422"><ele>573.75</ele><time>2026-04-19T13:47:22.864Z</time></trkpt><trkpt lat="45.7787693" lon="11.5174813"><ele>581.0</ele><time>2026-04-19T13:47:23.879Z</time></trkpt><trkpt lat="45.7786853" lon="11.517596"><ele>581.0</ele><time>2026-04-19T13:47:24.859Z</time></trkpt><trkpt lat="45.7785924" lon="11.5177009"><ele>581.0</ele><time>2026-04-19T13:47:25.866Z</time></trkpt><trkpt lat="45.7784967" lon="11.5178118"><ele>581.0</ele><time>2026-04-19T13:47:26.862Z</time></trkpt><trkpt lat="45.7783997" lon="11.5179266"><ele>581.0</ele><time>2026-04-19T13:47:27.864Z</time></trkpt><trkpt lat="45.7783102" lon="11.5180592"><ele>576.0</ele><time>2026-04-19T13:47:28.867Z</time></trkpt><trkpt lat="45.77822" lon="11.5181967"><ele>571.0</ele><time>2026-04-19T13:47:29.868Z</time></trkpt><trkpt lat="45.7781286" lon="11.5183375"><ele>566.0</ele><time>2026-04-19T13:47:30.865Z</time></trkpt><trkpt lat="45.7780361" lon="11.518475"><ele>561.0</ele><time>2026-04-19T13:47:31.869Z</time></trkpt><trkpt lat="45.7779498" lon="11.5186139"><ele>559.0</ele><time>2026-04-19T13:47:32.866Z</time></trkpt><trkpt lat="45.777876" lon="11.5187516"><ele>557.0</ele><time>2026-04-19T13:47:33.863Z</time></trkpt><trkpt lat="45.7778097" lon="11.5188851"><ele>555.0</ele><time>2026-04-19T13:47:34.863Z</time></trkpt><trkpt lat="45.7777419" lon="11.5190061"><ele>553.0</ele><time>2026-04-19T13:47:35.866Z</time></trkpt><trkpt lat="45.777662" lon="11.5191039"><ele>551.0</ele><time>2026-04-19T13:47:36.867Z</time></trkpt><trkpt lat="45.7775628" lon="11.5191874"><ele>551.0</ele><time>2026-04-19T13:47:37.861Z</time></trkpt><trkpt lat="45.7774483" lon="11.5192594"><ele>551.0</ele><time>2026-04-19T13:47:38.865Z</time></trkpt><trkpt lat="45.7773294" lon="11.5193424"><ele>551.0</ele><time>2026-04-19T13:47:39.87Z</time></trkpt><trkpt lat="45.7772065" lon="11.5194128"><ele>551.0</ele><time>2026-04-19T13:47:40.863Z</time></trkpt><trkpt lat="45.7770869" lon="11.5194659"><ele>551.0</ele><time>2026-04-19T13:47:41.865Z</time></trkpt><trkpt lat="45.7769739" lon="11.5195167"><ele>551.0</ele><time>2026-04-19T13:47:42.863Z</time></trkpt><trkpt lat="45.7768633" lon="11.5195638"><ele>551.0</ele><time>2026-04-19T13:47:43.869Z</time></trkpt><trkpt lat="45.7767619" lon="11.5196264"><ele>551.0</ele><time>2026-04-19T13:47:44.856Z</time></trkpt><trkpt lat="45.7766643" lon="11.5197087"><ele>549.5</ele><time>2026-04-19T13:47:45.863Z</time></trkpt><trkpt lat="45.7765694" lon="11.5198034"><ele>548.0</ele><time>2026-04-19T13:47:46.866Z</time></trkpt><trkpt lat="45.776481" lon="11.5199188"><ele>546.5</ele><time>2026-04-19T13:47:47.864Z</time></trkpt><trkpt lat="45.776393" lon="11.5200444"><ele>545.0</ele><time>2026-04-19T13:47:48.872Z</time></trkpt><trkpt lat="45.7763102" lon="11.5201744"><ele>545.0</ele><time>2026-04-19T13:47:49.867Z</time></trkpt><trkpt lat="45.7762351" lon="11.5203172"><ele>545.0</ele><time>2026-04-19T13:47:50.863Z</time></trkpt><trkpt lat="45.7761694" lon="11.5204694"><ele>545.0</ele><time>2026-04-19T13:47:51.864Z</time></trkpt><trkpt lat="45.7761078" lon="11.5206153"><ele>545.0</ele><time>2026-04-19T13:47:52.865Z</time></trkpt><trkpt lat="45.7760555" lon="11.5207521"><ele>542.1666666666666</ele><time>2026-04-19T13:47:53.862Z</time></trkpt><trkpt lat="45.7760161" lon="11.5208867"><ele>539.3333333333333</ele><time>2026-04-19T13:47:54.863Z</time></trkpt><trkpt lat="45.7759966" lon="11.5210195"><ele>536.5</ele><time>2026-04-19T13:47:55.871Z</time></trkpt><trkpt lat="45.7759955" lon="11.5211417"><ele>533.6666666666666</ele><time>2026-04-19T13:47:56.866Z</time></trkpt><trkpt lat="45.7760046" lon="11.5212475"><ele>530.8333333333334</ele><time>2026-04-19T13:47:57.863Z</time></trkpt><trkpt lat="45.7759861" lon="11.5213589"><ele>528.0</ele><time>2026-04-19T13:47:59.868Z</time></trkpt><trkpt lat="45.7759232" lon="11.5212689"><ele>528.0</ele><time>2026-04-19T13:48:02.863Z</time></trkpt><trkpt lat="45.7759274" lon="11.521177"><ele>528.0</ele><time>2026-04-19T13:48:03.872Z</time></trkpt><trkpt lat="45.7759365" lon="11.5210633"><ele>528.0</ele><time>2026-04-19T13:48:04.87Z</time></trkpt><trkpt lat="45.7759378" lon="11.5209491"><ele>528.0</ele><time>2026-04-19T13:48:05.869Z</time></trkpt><trkpt lat="45.775937" lon="11.5208184"><ele>528.0</ele><time>2026-04-19T13:48:06.868Z</time></trkpt><trkpt lat="45.7759362" lon="11.5206814"><ele>528.0</ele><time>2026-04-19T13:48:07.866Z</time></trkpt><trkpt lat="45.775933" lon="11.5205359"><ele>527.8</ele><time>2026-04-19T13:48:08.869Z</time></trkpt><trkpt lat="45.7759274" lon="11.5203879"><ele>527.5999999999999</ele><time>2026-04-19T13:48:09.87Z</time></trkpt><trkpt lat="45.7759201" lon="11.5202293"><ele>527.4000000000001</ele><time>2026-04-19T13:48:10.871Z</time></trkpt><trkpt lat="45.7759056" lon="11.520074"><ele>527.2</ele><time>2026-04-19T13:48:11.867Z</time></trkpt><trkpt lat="45.7758882" lon="11.5199236"><ele>527.0</ele><time>2026-04-19T13:48:12.863Z</time></trkpt><trkpt lat="45.7758739" lon="11.5197775"><ele>527.0</ele><time>2026-04-19T13:48:13.864Z</time></trkpt><trkpt lat="45.775874" lon="11.5196313"><ele>527.0</ele><time>2026-04-19T13:48:14.865Z</time></trkpt><trkpt lat="45.7758871" lon="11.5194745"><ele>527.0</ele><time>2026-04-19T13:48:15.868Z</time></trkpt><trkpt lat="45.7759169" lon="11.5193163"><ele>527.0</ele><time>2026-04-19T13:48:16.86Z</time></trkpt><trkpt lat="45.7759613" lon="11.5191689"><ele>527.0</ele><time>2026-04-19T13:48:17.864Z</time></trkpt><trkpt lat="45.7760201" lon="11.5190463"><ele>527.6</ele><time>2026-04-19T13:48:18.865Z</time></trkpt><trkpt lat="45.7760933" lon="11.5189467"><ele>528.2</ele><time>2026-04-19T13:48:19.863Z</time></trkpt><trkpt lat="45.7761824" lon="11.5188579"><ele>528.8</ele><time>2026-04-19T13:48:20.861Z</time></trkpt><trkpt lat="45.7762615" lon="11.5187871"><ele>529.4</ele><time>2026-04-19T13:48:21.862Z</time></trkpt><trkpt lat="45.7763129" lon="11.518725"><ele>530.0</ele><time>2026-04-19T13:48:22.863Z</time></trkpt><trkpt lat="45.7763062" lon="11.5185972"><ele>528.4</ele><time>2026-04-19T13:48:24.864Z</time></trkpt><trkpt lat="45.7761994" lon="11.518593"><ele>526.8</ele><time>2026-04-19T13:48:26.868Z</time></trkpt><trkpt lat="45.7761209" lon="11.5186363"><ele>525.2</ele><time>2026-04-19T13:48:27.866Z</time></trkpt><trkpt lat="45.7760253" lon="11.5186868"><ele>523.6</ele><time>2026-04-19T13:48:28.863Z</time></trkpt><trkpt lat="45.7759205" lon="11.5187355"><ele>522.0</ele><time>2026-04-19T13:48:29.869Z</time></trkpt><trkpt lat="45.7758158" lon="11.5187731"><ele>522.0</ele><time>2026-04-19T13:48:30.87Z</time></trkpt><trkpt lat="45.7757197" lon="11.5188037"><ele>522.0</ele><time>2026-04-19T13:48:31.866Z</time></trkpt><trkpt lat="45.7756306" lon="11.5188499"><ele>522.0</ele><time>2026-04-19T13:48:32.864Z</time></trkpt><trkpt lat="45.7755476" lon="11.5189248"><ele>522.0</ele><time>2026-04-19T13:48:33.857Z</time></trkpt><trkpt lat="45.7754765" lon="11.5190287"><ele>522.0</ele><time>2026-04-19T13:48:34.879Z</time></trkpt><trkpt lat="45.7754218" lon="11.5191576"><ele>522.0</ele><time>2026-04-19T13:48:35.861Z</time></trkpt><trkpt lat="45.7753814" lon="11.5193008"><ele>522.0</ele><time>2026-04-19T13:48:36.865Z</time></trkpt><trkpt lat="45.7753425" lon="11.5194551"><ele>522.0</ele><time>2026-04-19T13:48:37.868Z</time></trkpt><trkpt lat="45.7752973" lon="11.5196152"><ele>522.0</ele><time>2026-04-19T13:48:38.863Z</time></trkpt><trkpt lat="45.7752518" lon="11.5197804"><ele>523.25</ele><time>2026-04-19T13:48:39.862Z</time></trkpt><trkpt lat="45.7752113" lon="11.5199531"><ele>524.5</ele><time>2026-04-19T13:48:40.863Z</time></trkpt><trkpt lat="45.7751769" lon="11.5201325"><ele>525.75</ele><time>2026-04-19T13:48:41.864Z</time></trkpt><trkpt lat="45.7751495" lon="11.52031"><ele>527.0</ele><time>2026-04-19T13:48:42.868Z</time></trkpt><trkpt lat="45.7751239" lon="11.520483"><ele>517.75</ele><time>2026-04-19T13:48:43.869Z</time></trkpt><trkpt lat="45.7751034" lon="11.5206581"><ele>508.5</ele><time>2026-04-19T13:48:44.871Z</time></trkpt><trkpt lat="45.7750839" lon="11.5208324"><ele>499.25</ele><time>2026-04-19T13:48:45.864Z</time></trkpt><trkpt lat="45.7750618" lon="11.5210074"><ele>490.0</ele><time>2026-04-19T13:48:46.874Z</time></trkpt><trkpt lat="45.7750444" lon="11.5211756"><ele>489.75</ele><time>2026-04-19T13:48:47.872Z</time></trkpt><trkpt lat="45.7750341" lon="11.5213518"><ele>489.5</ele><time>2026-04-19T13:48:48.867Z</time></trkpt><trkpt lat="45.7750376" lon="11.5215222"><ele>489.25</ele><time>2026-04-19T13:48:49.861Z</time></trkpt><trkpt lat="45.7750562" lon="11.5216851"><ele>489.0</ele><time>2026-04-19T13:48:50.867Z</time></trkpt><trkpt lat="45.7750903" lon="11.5218409"><ele>489.0</ele><time>2026-04-19T13:48:51.862Z</time></trkpt><trkpt lat="45.77513" lon="11.5219836"><ele>489.0</ele><time>2026-04-19T13:48:52.864Z</time></trkpt><trkpt lat="45.7751598" lon="11.5221175"><ele>489.0</ele><time>2026-04-19T13:48:53.859Z</time></trkpt><trkpt lat="45.7751704" lon="11.5222456"><ele>489.0</ele><time>2026-04-19T13:48:54.867Z</time></trkpt><trkpt lat="45.7751541" lon="11.5223669"><ele>489.0</ele><time>2026-04-19T13:48:55.866Z</time></trkpt><trkpt lat="45.7751127" lon="11.5224745"><ele>487.8333333333333</ele><time>2026-04-19T13:48:56.87Z</time></trkpt><trkpt lat="45.7750804" lon="11.5225731"><ele>486.66666666666663</ele><time>2026-04-19T13:48:57.865Z</time></trkpt><trkpt lat="45.7750832" lon="11.522677"><ele>485.5</ele><time>2026-04-19T13:48:58.877Z</time></trkpt><trkpt lat="45.775112" lon="11.5227863"><ele>484.3333333333333</ele><time>2026-04-19T13:48:59.866Z</time></trkpt><trkpt lat="45.7751586" lon="11.5229143"><ele>483.16666666666663</ele><time>2026-04-19T13:49:00.862Z</time></trkpt><trkpt lat="45.7752102" lon="11.5230618"><ele>482.0</ele><time>2026-04-19T13:49:01.867Z</time></trkpt><trkpt lat="45.7752632" lon="11.5232165"><ele>481.20000000000005</ele><time>2026-04-19T13:49:02.862Z</time></trkpt><trkpt lat="45.7753172" lon="11.5233592"><ele>480.40000000000003</ele><time>2026-04-19T13:49:03.866Z</time></trkpt><trkpt lat="45.7753737" lon="11.523492"><ele>479.59999999999997</ele><time>2026-04-19T13:49:04.861Z</time></trkpt><trkpt lat="45.7754288" lon="11.5236207"><ele>478.79999999999995</ele><time>2026-04-19T13:49:05.859Z</time></trkpt><trkpt lat="45.7754865" lon="11.5237416"><ele>478.0</ele><time>2026-04-19T13:49:06.863Z</time></trkpt><trkpt lat="45.7755498" lon="11.5238673"><ele>478.0</ele><time>2026-04-19T13:49:07.86Z</time></trkpt><trkpt lat="45.775622" lon="11.5239928"><ele>477.99999999999994</ele><time>2026-04-19T13:49:08.864Z</time></trkpt><trkpt lat="45.7756963" lon="11.5241108"><ele>477.99999999999994</ele><time>2026-04-19T13:49:09.871Z</time></trkpt><trkpt lat="45.7757747" lon="11.5242206"><ele>478.0</ele><time>2026-04-19T13:49:10.87Z</time></trkpt><trkpt lat="45.775859" lon="11.5243175"><ele>478.0</ele><time>2026-04-19T13:49:11.867Z</time></trkpt><trkpt lat="45.7759522" lon="11.524404"><ele>481.75</ele><time>2026-04-19T13:49:12.862Z</time></trkpt><trkpt lat="45.776051" lon="11.5244733"><ele>485.5</ele><time>2026-04-19T13:49:13.861Z</time></trkpt><trkpt lat="45.7761547" lon="11.5245163"><ele>489.25</ele><time>2026-04-19T13:49:14.874Z</time></trkpt><trkpt lat="45.7762689" lon="11.5245448"><ele>493.0</ele><time>2026-04-19T13:49:15.872Z</time></trkpt><trkpt lat="45.7763884" lon="11.52458"><ele>486.25</ele><time>2026-04-19T13:49:16.87Z</time></trkpt><trkpt lat="45.7765119" lon="11.5246249"><ele>479.5</ele><time>2026-04-19T13:49:17.869Z</time></trkpt><trkpt lat="45.7766332" lon="11.5246774"><ele>472.75</ele><time>2026-04-19T13:49:18.862Z</time></trkpt><trkpt lat="45.7767599" lon="11.5247302"><ele>466.0</ele><time>2026-04-19T13:49:19.866Z</time></trkpt><trkpt lat="45.776888" lon="11.5247732"><ele>466.0</ele><time>2026-04-19T13:49:20.866Z</time></trkpt><trkpt lat="45.7770159" lon="11.5248094"><ele>466.0</ele><time>2026-04-19T13:49:21.865Z</time></trkpt><trkpt lat="45.777145" lon="11.5248452"><ele>466.0</ele><time>2026-04-19T13:49:22.864Z</time></trkpt><trkpt lat="45.7772712" lon="11.5248778"><ele>466.0</ele><time>2026-04-19T13:49:23.866Z</time></trkpt><trkpt lat="45.7773926" lon="11.5249006"><ele>466.0</ele><time>2026-04-19T13:49:24.872Z</time></trkpt><trkpt lat="45.7775068" lon="11.5249171"><ele>466.0</ele><time>2026-04-19T13:49:25.87Z</time></trkpt><trkpt lat="45.7775992" lon="11.5249453"><ele>466.0</ele><time>2026-04-19T13:49:26.862Z</time></trkpt><trkpt lat="45.7776972" lon="11.5250099"><ele>466.0</ele><time>2026-04-19T13:49:27.865Z</time></trkpt><trkpt lat="45.7777984" lon="11.52507"><ele>466.0</ele><time>2026-04-19T13:49:28.867Z</time></trkpt><trkpt lat="45.7779084" lon="11.5251977"><ele>464.6</ele><time>2026-04-19T13:49:29.866Z</time></trkpt><trkpt lat="45.7780055" lon="11.5252853"><ele>463.20000000000005</ele><time>2026-04-19T13:49:30.864Z</time></trkpt><trkpt lat="45.7781015" lon="11.5253629"><ele>461.79999999999995</ele><time>2026-04-19T13:49:31.866Z</time></trkpt><trkpt lat="45.7781971" lon="11.525432"><ele>460.4</ele><time>2026-04-19T13:49:32.864Z</time></trkpt><trkpt lat="45.778302" lon="11.5254751"><ele>459.0</ele><time>2026-04-19T13:49:33.862Z</time></trkpt><trkpt lat="45.7784169" lon="11.5255234"><ele>463.75</ele><time>2026-04-19T13:49:34.863Z</time></trkpt><trkpt lat="45.7785355" lon="11.5255708"><ele>468.5</ele><time>2026-04-19T13:49:35.867Z</time></trkpt><trkpt lat="45.7786483" lon="11.5256326"><ele>473.25</ele><time>2026-04-19T13:49:36.863Z</time></trkpt><trkpt lat="45.7787538" lon="11.5256995"><ele>478.0</ele><time>2026-04-19T13:49:37.86Z</time></trkpt><trkpt lat="45.7788525" lon="11.5257564"><ele>478.0</ele><time>2026-04-19T13:49:38.869Z</time></trkpt><trkpt lat="45.778926" lon="11.5258035"><ele>477.99999999999994</ele><time>2026-04-19T13:49:39.866Z</time></trkpt><trkpt lat="45.7789987" lon="11.5259134"><ele>477.99999999999994</ele><time>2026-04-19T13:49:41.863Z</time></trkpt><trkpt lat="45.7789551" lon="11.5260103"><ele>478.0</ele><time>2026-04-19T13:49:43.869Z</time></trkpt><trkpt lat="45.7788366" lon="11.526029"><ele>478.0</ele><time>2026-04-19T13:49:45.862Z</time></trkpt><trkpt lat="45.778753" lon="11.5260373"><ele>478.0</ele><time>2026-04-19T13:49:46.86Z</time></trkpt><trkpt lat="45.7786616" lon="11.5260666"><ele>477.99999999999994</ele><time>2026-04-19T13:49:47.867Z</time></trkpt><trkpt lat="45.7785637" lon="11.5261257"><ele>477.99999999999994</ele><time>2026-04-19T13:49:48.864Z</time></trkpt><trkpt lat="45.7784618" lon="11.5261899"><ele>478.0</ele><time>2026-04-19T13:49:49.864Z</time></trkpt><trkpt lat="45.7783587" lon="11.5262366"><ele>478.0</ele><time>2026-04-19T13:49:50.867Z</time></trkpt><trkpt lat="45.7782452" lon="11.5262604"><ele>478.0</ele><time>2026-04-19T13:49:51.873Z</time></trkpt><trkpt lat="45.7781236" lon="11.5262681"><ele>478.0</ele><time>2026-04-19T13:49:52.864Z</time></trkpt><trkpt lat="45.7780138" lon="11.526236"><ele>478.0</ele><time>2026-04-19T13:49:53.868Z</time></trkpt><trkpt lat="45.7779077" lon="11.5262001"><ele>478.0</ele><time>2026-04-19T13:49:54.873Z</time></trkpt><trkpt lat="45.7777852" lon="11.5261819"><ele>468.75</ele><time>2026-04-19T13:49:55.869Z</time></trkpt><trkpt lat="45.7776586" lon="11.5261768"><ele>459.5</ele><time>2026-04-19T13:49:56.865Z</time></trkpt><trkpt lat="45.7775256" lon="11.5261734"><ele>450.25</ele><time>2026-04-19T13:49:57.864Z</time></trkpt><trkpt lat="45.777387" lon="11.5261703"><ele>441.0</ele><time>2026-04-19T13:49:58.87Z</time></trkpt><trkpt lat="45.7772553" lon="11.5261638"><ele>441.0</ele><time>2026-04-19T13:49:59.871Z</time></trkpt><trkpt lat="45.7771293" lon="11.5261593"><ele>441.0</ele><time>2026-04-19T13:50:00.866Z</time></trkpt><trkpt lat="45.7770198" lon="11.5261719"><ele>441.0</ele><time>2026-04-19T13:50:01.869Z</time></trkpt><trkpt lat="45.7769102" lon="11.526238"><ele>441.0</ele><time>2026-04-19T13:50:02.87Z</time></trkpt><trkpt lat="45.7767986" lon="11.5262996"><ele>442.0</ele><time>2026-04-19T13:50:03.871Z</time></trkpt><trkpt lat="45.7766902" lon="11.5263321"><ele>443.0</ele><time>2026-04-19T13:50:04.862Z</time></trkpt><trkpt lat="45.7765814" lon="11.5263393"><ele>444.0</ele><time>2026-04-19T13:50:05.863Z</time></trkpt><trkpt lat="45.7764679" lon="11.5263538"><ele>445.0</ele><time>2026-04-19T13:50:06.862Z</time></trkpt><trkpt lat="45.776349" lon="11.5263998"><ele>445.0</ele><time>2026-04-19T13:50:07.863Z</time></trkpt><trkpt lat="45.7762352" lon="11.5264711"><ele>445.0</ele><time>2026-04-19T13:50:08.867Z</time></trkpt><trkpt lat="45.7761179" lon="11.5265517"><ele>445.0</ele><time>2026-04-19T13:50:09.863Z</time></trkpt><trkpt lat="45.7759947" lon="11.5266352"><ele>445.0</ele><time>2026-04-19T13:50:10.858Z</time></trkpt><trkpt lat="45.7758683" lon="11.5267193"><ele>438.0</ele><time>2026-04-19T13:50:11.86Z</time></trkpt><trkpt lat="45.7757473" lon="11.5268045"><ele>431.0</ele><time>2026-04-19T13:50:12.862Z</time></trkpt><trkpt lat="45.7756319" lon="11.5268946"><ele>424.0</ele><time>2026-04-19T13:50:13.869Z</time></trkpt><trkpt lat="45.7755181" lon="11.5269629"><ele>417.0</ele><time>2026-04-19T13:50:14.874Z</time></trkpt><trkpt lat="45.7754151" lon="11.5270177"><ele>414.5</ele><time>2026-04-19T13:50:15.87Z</time></trkpt><trkpt lat="45.7753273" lon="11.5270882"><ele>412.0</ele><time>2026-04-19T13:50:16.867Z</time></trkpt><trkpt lat="45.7752568" lon="11.5271681"><ele>409.5</ele><time>2026-04-19T13:50:17.864Z</time></trkpt><trkpt lat="45.7752017" lon="11.5272509"><ele>407.0</ele><time>2026-04-19T13:50:18.868Z</time></trkpt><trkpt lat="45.7751697" lon="11.5273457"><ele>404.5</ele><time>2026-04-19T13:50:19.878Z</time></trkpt><trkpt lat="45.7751517" lon="11.5274695"><ele>402.0</ele><time>2026-04-19T13:50:20.863Z</time></trkpt><trkpt lat="45.7751448" lon="11.5276192"><ele>402.0</ele><time>2026-04-19T13:50:21.867Z</time></trkpt><trkpt lat="45.7751368" lon="11.5277874"><ele>402.0</ele><time>2026-04-19T13:50:22.866Z</time></trkpt><trkpt lat="45.7751255" lon="11.5279668"><ele>402.0</ele><time>2026-04-19T13:50:23.868Z</time></trkpt><trkpt lat="45.775115" lon="11.5281454"><ele>402.0</ele><time>2026-04-19T13:50:24.865Z</time></trkpt><trkpt lat="45.7751016" lon="11.5283272"><ele>402.0</ele><time>2026-04-19T13:50:25.87Z</time></trkpt><trkpt lat="45.7750841" lon="11.5285114"><ele>402.0</ele><time>2026-04-19T13:50:26.865Z</time></trkpt><trkpt lat="45.7750661" lon="11.5287062"><ele>402.0</ele><time>2026-04-19T13:50:27.87Z</time></trkpt><trkpt lat="45.7750593" lon="11.5288994"><ele>402.0</ele><time>2026-04-19T13:50:28.863Z</time></trkpt><trkpt lat="45.7750592" lon="11.5290828"><ele>402.0</ele><time>2026-04-19T13:50:29.867Z</time></trkpt><trkpt lat="45.7750635" lon="11.5292625"><ele>402.0</ele><time>2026-04-19T13:50:30.868Z</time></trkpt><trkpt lat="45.7750695" lon="11.5294473"><ele>402.0</ele><time>2026-04-19T13:50:31.867Z</time></trkpt><trkpt lat="45.7750742" lon="11.5296337"><ele>402.0</ele><time>2026-04-19T13:50:32.864Z</time></trkpt><trkpt lat="45.7750778" lon="11.5298234"><ele>401.0</ele><time>2026-04-19T13:50:33.861Z</time></trkpt><trkpt lat="45.775079" lon="11.5300126"><ele>400.0</ele><time>2026-04-19T13:50:34.865Z</time></trkpt><trkpt lat="45.7750801" lon="11.5302027"><ele>399.0</ele><time>2026-04-19T13:50:35.871Z</time></trkpt><trkpt lat="45.7750822" lon="11.5303849"><ele>398.0</ele><time>2026-04-19T13:50:36.863Z</time></trkpt><trkpt lat="45.7750837" lon="11.5305626"><ele>395.75</ele><time>2026-04-19T13:50:37.862Z</time></trkpt><trkpt lat="45.7750831" lon="11.5307311"><ele>393.5</ele><time>2026-04-19T13:50:38.865Z</time></trkpt><trkpt lat="45.7750799" lon="11.5308879"><ele>391.25</ele><time>2026-04-19T13:50:39.875Z</time></trkpt><trkpt lat="45.7750771" lon="11.5310471"><ele>389.0</ele><time>2026-04-19T13:50:40.863Z</time></trkpt><trkpt lat="45.7750786" lon="11.5312137"><ele>388.4</ele><time>2026-04-19T13:50:41.862Z</time></trkpt><trkpt lat="45.7750833" lon="11.5313795"><ele>387.79999999999995</ele><time>2026-04-19T13:50:42.871Z</time></trkpt><trkpt lat="45.7750909" lon="11.5315352"><ele>387.20000000000005</ele><time>2026-04-19T13:50:43.863Z</time></trkpt><trkpt lat="45.7751057" lon="11.5316857"><ele>386.6</ele><time>2026-04-19T13:50:44.863Z</time></trkpt><trkpt lat="45.7751323" lon="11.5318272"><ele>386.0</ele><time>2026-04-19T13:50:45.868Z</time></trkpt><trkpt lat="45.7751657" lon="11.5319427"><ele>386.0</ele><time>2026-04-19T13:50:46.871Z</time></trkpt><trkpt lat="45.7751822" lon="11.5320922"><ele>386.0</ele><time>2026-04-19T13:50:48.865Z</time></trkpt><trkpt lat="45.7751027" lon="11.5320744"><ele>386.0</ele><time>2026-04-19T13:50:51.87Z</time></trkpt><trkpt lat="45.7750568" lon="11.531891"><ele>386.0</ele><time>2026-04-19T13:50:53.859Z</time></trkpt><trkpt lat="45.7750231" lon="11.5317626"><ele>386.0</ele><time>2026-04-19T13:50:54.864Z</time></trkpt><trkpt lat="45.7749855" lon="11.5316195"><ele>386.0</ele><time>2026-04-19T13:50:55.86Z</time></trkpt><trkpt lat="45.7749473" lon="11.531473"><ele>386.0</ele><time>2026-04-19T13:50:56.867Z</time></trkpt><trkpt lat="45.7749114" lon="11.5313221"><ele>386.0</ele><time>2026-04-19T13:50:57.867Z</time></trkpt><trkpt lat="45.7748761" lon="11.5311656"><ele>386.0</ele><time>2026-04-19T13:50:58.862Z</time></trkpt><trkpt lat="45.77483" lon="11.5310025"><ele>386.75</ele><time>2026-04-19T13:50:59.865Z</time></trkpt><trkpt lat="45.7747804" lon="11.5308444"><ele>387.5</ele><time>2026-04-19T13:51:00.864Z</time></trkpt><trkpt lat="45.7747282" lon="11.5306896"><ele>388.25</ele><time>2026-04-19T13:51:01.864Z</time></trkpt><trkpt lat="45.7746735" lon="11.5305373"><ele>389.0</ele><time>2026-04-19T13:51:02.859Z</time></trkpt><trkpt lat="45.7746203" lon="11.5303894"><ele>390.79999999999995</ele><time>2026-04-19T13:51:03.867Z</time></trkpt><trkpt lat="45.7745693" lon="11.5302457"><ele>392.59999999999997</ele><time>2026-04-19T13:51:04.867Z</time></trkpt><trkpt lat="45.7745176" lon="11.5301065"><ele>394.4</ele><time>2026-04-19T13:51:05.869Z</time></trkpt><trkpt lat="45.7744642" lon="11.5299725"><ele>396.2</ele><time>2026-04-19T13:51:06.864Z</time></trkpt><trkpt lat="45.7744089" lon="11.5298465"><ele>398.0</ele><time>2026-04-19T13:51:07.867Z</time></trkpt><trkpt lat="45.774354" lon="11.5297287"><ele>392.8333333333333</ele><time>2026-04-19T13:51:08.868Z</time></trkpt><trkpt lat="45.7743015" lon="11.5296151"><ele>387.66666666666663</ele><time>2026-04-19T13:51:09.864Z</time></trkpt><trkpt lat="45.7742603" lon="11.5295001"><ele>382.5</ele><time>2026-04-19T13:51:10.865Z</time></trkpt><trkpt lat="45.7742334" lon="11.5293856"><ele>377.3333333333333</ele><time>2026-04-19T13:51:11.86Z</time></trkpt><trkpt lat="45.7742134" lon="11.5292703"><ele>372.16666666666663</ele><time>2026-04-19T13:51:12.867Z</time></trkpt><trkpt lat="45.7741975" lon="11.5291509"><ele>367.0</ele><time>2026-04-19T13:51:13.863Z</time></trkpt><trkpt lat="45.7741836" lon="11.5290238"><ele>367.0</ele><time>2026-04-19T13:51:14.87Z</time></trkpt><trkpt lat="45.7741636" lon="11.5288884"><ele>367.0</ele><time>2026-04-19T13:51:15.868Z</time></trkpt><trkpt lat="45.7741372" lon="11.5287429"><ele>367.0</ele><time>2026-04-19T13:51:16.872Z</time></trkpt><trkpt lat="45.7741119" lon="11.528606"><ele>367.0</ele><time>2026-04-19T13:51:17.861Z</time></trkpt><trkpt lat="45.7740874" lon="11.5284655"><ele>367.0</ele><time>2026-04-19T13:51:18.863Z</time></trkpt><trkpt lat="45.7740675" lon="11.5283175"><ele>366.20000000000005</ele><time>2026-04-19T13:51:19.863Z</time></trkpt><trkpt lat="45.7740517" lon="11.5281568"><ele>365.4</ele><time>2026-04-19T13:51:20.868Z</time></trkpt><trkpt lat="45.7740385" lon="11.5279986"><ele>364.6</ele><time>2026-04-19T13:51:21.869Z</time></trkpt><trkpt lat="45.7740314" lon="11.5278541"><ele>363.79999999999995</ele><time>2026-04-19T13:51:22.872Z</time></trkpt><trkpt lat="45.7740312" lon="11.5277263"><ele>363.0</ele><time>2026-04-19T13:51:23.863Z</time></trkpt><trkpt lat="45.7740412" lon="11.5276239"><ele>361.4</ele><time>2026-04-19T13:51:24.865Z</time></trkpt><trkpt lat="45.7741159" lon="11.5274718"><ele>359.79999999999995</ele><time>2026-04-19T13:51:26.873Z</time></trkpt><trkpt lat="45.7741833" lon="11.5273915"><ele>358.2</ele><time>2026-04-19T13:51:27.865Z</time></trkpt><trkpt lat="45.7742631" lon="11.5273018"><ele>356.6</ele><time>2026-04-19T13:51:28.863Z</time></trkpt><trkpt lat="45.7743366" lon="11.5272006"><ele>355.0</ele><time>2026-04-19T13:51:29.87Z</time></trkpt><trkpt lat="45.77439" lon="11.527111"><ele>355.66666666666663</ele><time>2026-04-19T13:51:30.865Z</time></trkpt><trkpt lat="45.7744202" lon="11.5270156"><ele>356.3333333333333</ele><time>2026-04-19T13:51:31.865Z</time></trkpt><trkpt lat="45.7744225" lon="11.5269253"><ele>357.0</ele><time>2026-04-19T13:51:32.863Z</time></trkpt><trkpt lat="45.7743512" lon="11.5267889"><ele>357.6666666666667</ele><time>2026-04-19T13:51:34.87Z</time></trkpt><trkpt lat="45.7742758" lon="11.5267289"><ele>358.33333333333337</ele><time>2026-04-19T13:51:35.867Z</time></trkpt><trkpt lat="45.7741848" lon="11.5266663"><ele>359.0</ele><time>2026-04-19T13:51:36.864Z</time></trkpt><trkpt lat="45.7740942" lon="11.5265873"><ele>359.0</ele><time>2026-04-19T13:51:37.861Z</time></trkpt><trkpt lat="45.7740117" lon="11.5265068"><ele>359.0</ele><time>2026-04-19T13:51:38.864Z</time></trkpt><trkpt lat="45.7739315" lon="11.5264303"><ele>359.0</ele><time>2026-04-19T13:51:39.861Z</time></trkpt><trkpt lat="45.7738523" lon="11.5263438"><ele>359.0</ele><time>2026-04-19T13:51:40.867Z</time></trkpt><trkpt lat="45.7737713" lon="11.5262417"><ele>359.0</ele><time>2026-04-19T13:51:41.871Z</time></trkpt><trkpt lat="45.7737037" lon="11.5261233"><ele>356.5</ele><time>2026-04-19T13:51:42.863Z</time></trkpt><trkpt lat="45.7736457" lon="11.525995"><ele>354.0</ele><time>2026-04-19T13:51:43.871Z</time></trkpt><trkpt lat="45.7735942" lon="11.52586"><ele>351.5</ele><time>2026-04-19T13:51:44.862Z</time></trkpt><trkpt lat="45.7735424" lon="11.5257059"><ele>349.0</ele><time>2026-04-19T13:51:45.862Z</time></trkpt><trkpt lat="45.7734929" lon="11.5255451"><ele>351.75</ele><time>2026-04-19T13:51:46.869Z</time></trkpt><trkpt lat="45.7734483" lon="11.5253859"><ele>354.5</ele><time>2026-04-19T13:51:47.871Z</time></trkpt><trkpt lat="45.7733952" lon="11.5252262"><ele>357.25</ele><time>2026-04-19T13:51:48.865Z</time></trkpt><trkpt lat="45.7733277" lon="11.5250767"><ele>360.0</ele><time>2026-04-19T13:51:49.864Z</time></trkpt><trkpt lat="45.7732499" lon="11.5249324"><ele>360.0</ele><time>2026-04-19T13:51:50.868Z</time></trkpt><trkpt lat="45.7731654" lon="11.52479"><ele>360.0</ele><time>2026-04-19T13:51:51.861Z</time></trkpt><trkpt lat="45.7730822" lon="11.5246452"><ele>360.0</ele><time>2026-04-19T13:51:52.863Z</time></trkpt><trkpt lat="45.7730072" lon="11.524495"><ele>360.0</ele><time>2026-04-19T13:51:53.863Z</time></trkpt><trkpt lat="45.7729352" lon="11.5243493"><ele>364.5</ele><time>2026-04-19T13:51:54.865Z</time></trkpt><trkpt lat="45.772862" lon="11.5242073"><ele>369.0</ele><time>2026-04-19T13:51:55.865Z</time></trkpt><trkpt lat="45.7727871" lon="11.524053"><ele>373.5</ele><time>2026-04-19T13:51:56.865Z</time></trkpt><trkpt lat="45.7727222" lon="11.5238974"><ele>378.0</ele><time>2026-04-19T13:51:57.866Z</time></trkpt><trkpt lat="45.772664" lon="11.52376"><ele>372.0</ele><time>2026-04-19T13:51:58.864Z</time></trkpt><trkpt lat="45.7725913" lon="11.5236483"><ele>366.0</ele><time>2026-04-19T13:51:59.869Z</time></trkpt><trkpt lat="45.772502" lon="11.5235503"><ele>360.0</ele><time>2026-04-19T13:52:00.861Z</time></trkpt><trkpt lat="45.7724112" lon="11.5234675"><ele>354.0</ele><time>2026-04-19T13:52:01.865Z</time></trkpt><trkpt lat="45.7723326" lon="11.5233674"><ele>348.0</ele><time>2026-04-19T13:52:02.868Z</time></trkpt><trkpt lat="45.7722566" lon="11.5232464"><ele>348.0</ele><time>2026-04-19T13:52:03.865Z</time></trkpt><trkpt lat="45.7721971" lon="11.5231221"><ele>348.0</ele><time>2026-04-19T13:52:04.864Z</time></trkpt><trkpt lat="45.7721508" lon="11.5229844"><ele>348.0</ele><time>2026-04-19T13:52:05.861Z</time></trkpt><trkpt lat="45.7721137" lon="11.5228322"><ele>348.0</ele><time>2026-04-19T13:52:06.863Z</time></trkpt><trkpt lat="45.7720889" lon="11.5226742"><ele>348.0</ele><time>2026-04-19T13:52:07.859Z</time></trkpt><trkpt lat="45.7720803" lon="11.5225187"><ele>349.5</ele><time>2026-04-19T13:52:08.865Z</time></trkpt><trkpt lat="45.7720866" lon="11.5223642"><ele>351.0</ele><time>2026-04-19T13:52:09.863Z</time></trkpt><trkpt lat="45.7721058" lon="11.5222136"><ele>352.5</ele><time>2026-04-19T13:52:10.862Z</time></trkpt><trkpt lat="45.7721198" lon="11.5220921"><ele>354.0</ele><time>2026-04-19T13:52:11.862Z</time></trkpt><trkpt lat="45.772118" lon="11.5219942"><ele>355.5</ele><time>2026-04-19T13:52:12.861Z</time></trkpt><trkpt lat="45.772094" lon="11.5219097"><ele>357.0</ele><time>2026-04-19T13:52:13.863Z</time></trkpt><trkpt lat="45.7720445" lon="11.5218456"><ele>358.20000000000005</ele><time>2026-04-19T13:52:14.861Z</time></trkpt><trkpt lat="45.7719722" lon="11.5217836"><ele>359.4</ele><time>2026-04-19T13:52:15.861Z</time></trkpt><trkpt lat="45.7719013" lon="11.5217138"><ele>360.6</ele><time>2026-04-19T13:52:16.86Z</time></trkpt><trkpt lat="45.7718475" lon="11.5216148"><ele>361.79999999999995</ele><time>2026-04-19T13:52:17.86Z</time></trkpt><trkpt lat="45.7717904" lon="11.5214881"><ele>363.0</ele><time>2026-04-19T13:52:18.862Z</time></trkpt><trkpt lat="45.7717417" lon="11.521356"><ele>351.25</ele><time>2026-04-19T13:52:19.861Z</time></trkpt><trkpt lat="45.7716992" lon="11.5211969"><ele>339.5</ele><time>2026-04-19T13:52:20.859Z</time></trkpt><trkpt lat="45.7716611" lon="11.5210167"><ele>327.75</ele><time>2026-04-19T13:52:21.858Z</time></trkpt><trkpt lat="45.7716254" lon="11.5208228"><ele>316.0</ele><time>2026-04-19T13:52:22.867Z</time></trkpt><trkpt lat="45.7715913" lon="11.520626"><ele>316.0</ele><time>2026-04-19T13:52:23.861Z</time></trkpt><trkpt lat="45.771561" lon="11.5204228"><ele>316.0</ele><time>2026-04-19T13:52:24.861Z</time></trkpt><trkpt lat="45.7715327" lon="11.5202279"><ele>316.0</ele><time>2026-04-19T13:52:25.863Z</time></trkpt><trkpt lat="45.7715068" lon="11.5200352"><ele>316.0</ele><time>2026-04-19T13:52:26.875Z</time></trkpt><trkpt lat="45.7714799" lon="11.5198444"><ele>316.0</ele><time>2026-04-19T13:52:27.861Z</time></trkpt><trkpt lat="45.7714489" lon="11.5196437"><ele>316.0</ele><time>2026-04-19T13:52:28.86Z</time></trkpt><trkpt lat="45.7714182" lon="11.5194433"><ele>316.0</ele><time>2026-04-19T13:52:29.863Z</time></trkpt><trkpt lat="45.7713898" lon="11.5192589"><ele>316.0</ele><time>2026-04-19T13:52:30.858Z</time></trkpt><trkpt lat="45.771366" lon="11.5190924"><ele>315.75</ele><time>2026-04-19T13:52:31.866Z</time></trkpt><trkpt lat="45.7713533" lon="11.5189207"><ele>315.5</ele><time>2026-04-19T13:52:32.858Z</time></trkpt><trkpt lat="45.7713543" lon="11.5187514"><ele>315.25</ele><time>2026-04-19T13:52:33.866Z</time></trkpt><trkpt lat="45.7713681" lon="11.5185894"><ele>315.0</ele><time>2026-04-19T13:52:34.86Z</time></trkpt><trkpt lat="45.771385" lon="11.518448"><ele>315.0</ele><time>2026-04-19T13:52:35.863Z</time></trkpt><trkpt lat="45.7713977" lon="11.51833"><ele>315.0</ele><time>2026-04-19T13:52:36.865Z</time></trkpt><trkpt lat="45.7713819" lon="11.5181917"><ele>315.0</ele><time>2026-04-19T13:52:38.86Z</time></trkpt><trkpt lat="45.7712994" lon="11.5182046"><ele>315.0</ele><time>2026-04-19T13:52:41.862Z</time></trkpt><trkpt lat="45.7712581" lon="11.5183696"><ele>315.0</ele><time>2026-04-19T13:52:43.859Z</time></trkpt><trkpt lat="45.7712436" lon="11.518498"><ele>315.0</ele><time>2026-04-19T13:52:44.865Z</time></trkpt><trkpt lat="45.7712236" lon="11.5186453"><ele>315.0</ele><time>2026-04-19T13:52:45.86Z</time></trkpt><trkpt lat="45.7712022" lon="11.5188027"><ele>315.0</ele><time>2026-04-19T13:52:46.869Z</time></trkpt><trkpt lat="45.7711788" lon="11.5189598"><ele>315.0</ele><time>2026-04-19T13:52:47.863Z</time></trkpt><trkpt lat="45.7711554" lon="11.5191285"><ele>315.0</ele><time>2026-04-19T13:52:48.86Z</time></trkpt><trkpt lat="45.7711343" lon="11.5192863"><ele>315.0</ele><time>2026-04-19T13:52:49.863Z</time></trkpt><trkpt lat="45.7711091" lon="11.5194457"><ele>315.0</ele><time>2026-04-19T13:52:50.861Z</time></trkpt><trkpt lat="45.7710801" lon="11.5195979"><ele>315.0</ele><time>2026-04-19T13:52:51.864Z</time></trkpt><trkpt lat="45.7710395" lon="11.5197426"><ele>315.0</ele><time>2026-04-19T13:52:52.864Z</time></trkpt><trkpt lat="45.7709884" lon="11.5198791"><ele>315.0</ele><time>2026-04-19T13:52:53.869Z</time></trkpt><trkpt lat="45.7709368" lon="11.5200083"><ele>307.4</ele><time>2026-04-19T13:52:54.864Z</time></trkpt><trkpt lat="45.7708907" lon="11.5201309"><ele>299.8</ele><time>2026-04-19T13:52:55.864Z</time></trkpt><trkpt lat="45.7708627" lon="11.5202568"><ele>292.2</ele><time>2026-04-19T13:52:56.864Z</time></trkpt><trkpt lat="45.7708452" lon="11.520408"><ele>284.6</ele><time>2026-04-19T13:52:57.864Z</time></trkpt><trkpt lat="45.7708415" lon="11.52058"><ele>277.0</ele><time>2026-04-19T13:52:58.864Z</time></trkpt><trkpt lat="45.7708397" lon="11.5207623"><ele>276.5</ele><time>2026-04-19T13:52:59.863Z</time></trkpt><trkpt lat="45.7708423" lon="11.5209456"><ele>276.0</ele><time>2026-04-19T13:53:00.865Z</time></trkpt><trkpt lat="45.770851" lon="11.5211192"><ele>275.5</ele><time>2026-04-19T13:53:01.859Z</time></trkpt><trkpt lat="45.7708657" lon="11.5212812"><ele>275.0</ele><time>2026-04-19T13:53:02.865Z</time></trkpt><trkpt lat="45.77089" lon="11.5214255"><ele>274.1666666666667</ele><time>2026-04-19T13:53:03.861Z</time></trkpt><trkpt lat="45.7709197" lon="11.5215489"><ele>273.33333333333337</ele><time>2026-04-19T13:53:04.864Z</time></trkpt><trkpt lat="45.7709446" lon="11.5216428"><ele>272.5</ele><time>2026-04-19T13:53:05.862Z</time></trkpt><trkpt lat="45.7709604" lon="11.5217532"><ele>271.6666666666667</ele><time>2026-04-19T13:53:07.865Z</time></trkpt><trkpt lat="45.7708843" lon="11.5217642"><ele>270.8333333333333</ele><time>2026-04-19T13:53:10.869Z</time></trkpt><trkpt lat="45.7708381" lon="11.5216327"><ele>270.0</ele><time>2026-04-19T13:53:12.866Z</time></trkpt><trkpt lat="45.7708205" lon="11.5215244"><ele>270.0</ele><time>2026-04-19T13:53:13.866Z</time></trkpt><trkpt lat="45.7707997" lon="11.5213909"><ele>270.0</ele><time>2026-04-19T13:53:14.864Z</time></trkpt><trkpt lat="45.7707776" lon="11.5212446"><ele>270.0</ele><time>2026-04-19T13:53:15.863Z</time></trkpt><trkpt lat="45.7707544" lon="11.5210924"><ele>270.0</ele><time>2026-04-19T13:53:16.869Z</time></trkpt><trkpt lat="45.7707271" lon="11.520933"><ele>270.0</ele><time>2026-04-19T13:53:17.862Z</time></trkpt><trkpt lat="45.7706978" lon="11.5207742"><ele>271.25</ele><time>2026-04-19T13:53:18.868Z</time></trkpt><trkpt lat="45.7706687" lon="11.5206157"><ele>272.5</ele><time>2026-04-19T13:53:19.862Z</time></trkpt><trkpt lat="45.7706433" lon="11.5204566"><ele>273.75</ele><time>2026-04-19T13:53:20.863Z</time></trkpt><trkpt lat="45.7706224" lon="11.5202816"><ele>275.0</ele><time>2026-04-19T13:53:21.862Z</time></trkpt><trkpt lat="45.7706024" lon="11.5200982"><ele>275.5</ele><time>2026-04-19T13:53:22.866Z</time></trkpt><trkpt lat="45.7705871" lon="11.5199079"><ele>276.0</ele><time>2026-04-19T13:53:23.868Z</time></trkpt><trkpt lat="45.770578" lon="11.5197132"><ele>276.5</ele><time>2026-04-19T13:53:24.862Z</time></trkpt><trkpt lat="45.770572" lon="11.5195146"><ele>277.0</ele><time>2026-04-19T13:53:25.864Z</time></trkpt><trkpt lat="45.7705666" lon="11.5193165"><ele>276.0</ele><time>2026-04-19T13:53:26.861Z</time></trkpt><trkpt lat="45.7705587" lon="11.5191281"><ele>275.0</ele><time>2026-04-19T13:53:27.864Z</time></trkpt><trkpt lat="45.770548" lon="11.5189464"><ele>274.0</ele><time>2026-04-19T13:53:28.864Z</time></trkpt><trkpt lat="45.77054" lon="11.5187833"><ele>273.0</ele><time>2026-04-19T13:53:29.864Z</time></trkpt><trkpt lat="45.7705362" lon="11.5186283"><ele>272.5</ele><time>2026-04-19T13:53:30.866Z</time></trkpt><trkpt lat="45.7705456" lon="11.5184723"><ele>272.0</ele><time>2026-04-19T13:53:31.866Z</time></trkpt><trkpt lat="45.7705652" lon="11.5182989"><ele>271.5</ele><time>2026-04-19T13:53:32.863Z</time></trkpt><trkpt lat="45.7705901" lon="11.5181204"><ele>271.0</ele><time>2026-04-19T13:53:33.862Z</time></trkpt><trkpt lat="45.7706143" lon="11.5179404"><ele>268.0</ele><time>2026-04-19T13:53:34.862Z</time></trkpt><trkpt lat="45.7706346" lon="11.517751"><ele>265.0</ele><time>2026-04-19T13:53:35.865Z</time></trkpt><trkpt lat="45.770654" lon="11.5175642"><ele>262.0</ele><time>2026-04-19T13:53:36.867Z</time></trkpt><trkpt lat="45.7706731" lon="11.5173755"><ele>259.0</ele><time>2026-04-19T13:53:37.868Z</time></trkpt><trkpt lat="45.770687" lon="11.5171881"><ele>256.25</ele><time>2026-04-19T13:53:38.866Z</time></trkpt><trkpt lat="45.7706921" lon="11.5170076"><ele>253.5</ele><time>2026-04-19T13:53:39.866Z</time></trkpt><trkpt lat="45.7706935" lon="11.5168321"><ele>250.75</ele><time>2026-04-19T13:53:40.866Z</time></trkpt><trkpt lat="45.770693" lon="11.5166693"><ele>248.0</ele><time>2026-04-19T13:53:41.867Z</time></trkpt><trkpt lat="45.7706897" lon="11.5165312"><ele>248.0</ele><time>2026-04-19T13:53:42.864Z</time></trkpt><trkpt lat="45.770682" lon="11.5164212"><ele>248.0</ele><time>2026-04-19T13:53:43.869Z</time></trkpt><trkpt lat="45.7706391" lon="11.5162665"><ele>248.0</ele><time>2026-04-19T13:53:45.863Z</time></trkpt><trkpt lat="45.7705272" lon="11.5161937"><ele>248.0</ele><time>2026-04-19T13:53:47.867Z</time></trkpt><trkpt lat="45.770444" lon="11.5161595"><ele>248.0</ele><time>2026-04-19T13:53:48.861Z</time></trkpt><trkpt lat="45.7703556" lon="11.5161111"><ele>248.8</ele><time>2026-04-19T13:53:49.864Z</time></trkpt><trkpt lat="45.7702649" lon="11.5160512"><ele>249.60000000000002</ele><time>2026-04-19T13:53:50.866Z</time></trkpt><trkpt lat="45.7701644" lon="11.5159847"><ele>250.39999999999998</ele><time>2026-04-19T13:53:51.866Z</time></trkpt><trkpt lat="45.7700678" lon="11.5159137"><ele>251.2</ele><time>2026-04-19T13:53:52.861Z</time></trkpt><trkpt lat="45.769978" lon="11.5158329"><ele>252.0</ele><time>2026-04-19T13:53:53.861Z</time></trkpt><trkpt lat="45.7698798" lon="11.5157376"><ele>250.25</ele><time>2026-04-19T13:53:54.863Z</time></trkpt><trkpt lat="45.7697776" lon="11.5156335"><ele>248.5</ele><time>2026-04-19T13:53:55.864Z</time></trkpt><trkpt lat="45.7696737" lon="11.5155272"><ele>246.75</ele><time>2026-04-19T13:53:56.862Z</time></trkpt><trkpt lat="45.7695698" lon="11.5154216"><ele>245.0</ele><time>2026-04-19T13:53:57.86Z</time></trkpt><trkpt lat="45.7694667" lon="11.5153141"><ele>245.0</ele><time>2026-04-19T13:53:58.867Z</time></trkpt><trkpt lat="45.7693605" lon="11.5152059"><ele>245.0</ele><time>2026-04-19T13:53:59.865Z</time></trkpt><trkpt lat="45.7692543" lon="11.5151017"><ele>245.0</ele><time>2026-04-19T13:54:00.861Z</time></trkpt><trkpt lat="45.7691551" lon="11.5150114"><ele>245.0</ele><time>2026-04-19T13:54:01.867Z</time></trkpt><trkpt lat="45.7690573" lon="11.5149323"><ele>241.6</ele><time>2026-04-19T13:54:02.865Z</time></trkpt><trkpt lat="45.768954" lon="11.5148697"><ele>238.2</ele><time>2026-04-19T13:54:03.863Z</time></trkpt><trkpt lat="45.7688474" lon="11.5148179"><ele>234.8</ele><time>2026-04-19T13:54:04.87Z</time></trkpt><trkpt lat="45.7687402" lon="11.5147692"><ele>231.4</ele><time>2026-04-19T13:54:05.872Z</time></trkpt><trkpt lat="45.7686474" lon="11.5147265"><ele>228.0</ele><time>2026-04-19T13:54:06.864Z</time></trkpt><trkpt lat="45.7685592" lon="11.5146874"><ele>226.0</ele><time>2026-04-19T13:54:07.867Z</time></trkpt><trkpt lat="45.7684707" lon="11.5146488"><ele>224.0</ele><time>2026-04-19T13:54:08.866Z</time></trkpt><trkpt lat="45.7683777" lon="11.514604"><ele>222.0</ele><time>2026-04-19T13:54:09.87Z</time></trkpt><trkpt lat="45.7682824" lon="11.5145499"><ele>220.0</ele><time>2026-04-19T13:54:10.874Z</time></trkpt><trkpt lat="45.7681884" lon="11.5144845"><ele>218.0</ele><time>2026-04-19T13:54:11.863Z</time></trkpt><trkpt lat="45.768093" lon="11.5144105"><ele>217.75</ele><time>2026-04-19T13:54:12.865Z</time></trkpt><trkpt lat="45.7679967" lon="11.5143243"><ele>217.5</ele><time>2026-04-19T13:54:13.866Z</time></trkpt><trkpt lat="45.767896" lon="11.5142236"><ele>217.25</ele><time>2026-04-19T13:54:14.87Z</time></trkpt><trkpt lat="45.767795" lon="11.5141165"><ele>217.0</ele><time>2026-04-19T13:54:15.861Z</time></trkpt><trkpt lat="45.7676983" lon="11.5140104"><ele>215.25</ele><time>2026-04-19T13:54:16.86Z</time></trkpt><trkpt lat="45.7676034" lon="11.5139051"><ele>213.5</ele><time>2026-04-19T13:54:17.865Z</time></trkpt><trkpt lat="45.7675008" lon="11.5137944"><ele>211.75</ele><time>2026-04-19T13:54:18.866Z</time></trkpt><trkpt lat="45.767396" lon="11.5136822"><ele>210.0</ele><time>2026-04-19T13:54:19.864Z</time></trkpt><trkpt lat="45.7672899" lon="11.513577"><ele>209.75</ele><time>2026-04-19T13:54:20.862Z</time></trkpt><trkpt lat="45.767188" lon="11.5134806"><ele>209.5</ele><time>2026-04-19T13:54:21.868Z</time></trkpt><trkpt lat="45.7670882" lon="11.5133932"><ele>209.25</ele><time>2026-04-19T13:54:22.868Z</time></trkpt><trkpt lat="45.7669873" lon="11.5133034"><ele>209.0</ele><time>2026-04-19T13:54:23.864Z</time></trkpt><trkpt lat="45.7668862" lon="11.5132138"><ele>207.5</ele><time>2026-04-19T13:54:24.863Z</time></trkpt><trkpt lat="45.7667858" lon="11.5131249"><ele>206.0</ele><time>2026-04-19T13:54:25.876Z</time></trkpt><trkpt lat="45.7666826" lon="11.5130387"><ele>204.5</ele><time>2026-04-19T13:54:26.866Z</time></trkpt><trkpt lat="45.766585" lon="11.5129583"><ele>203.0</ele><time>2026-04-19T13:54:27.866Z</time></trkpt><trkpt lat="45.7664904" lon="11.5128818"><ele>202.8</ele><time>2026-04-19T13:54:28.861Z</time></trkpt><trkpt lat="45.7664016" lon="11.5128098"><ele>202.60000000000002</ele><time>2026-04-19T13:54:29.866Z</time></trkpt><trkpt lat="45.766319" lon="11.5127435"><ele>202.39999999999998</ele><time>2026-04-19T13:54:30.868Z</time></trkpt><trkpt lat="45.7662443" lon="11.5126736"><ele>202.2</ele><time>2026-04-19T13:54:31.864Z</time></trkpt><trkpt lat="45.7661804" lon="11.5125978"><ele>202.0</ele><time>2026-04-19T13:54:32.867Z</time></trkpt><trkpt lat="45.76612" lon="11.51251"><ele>202.0</ele><time>2026-04-19T13:54:33.868Z</time></trkpt><trkpt lat="45.7660542" lon="11.5124198"><ele>202.0</ele><time>2026-04-19T13:54:34.86Z</time></trkpt><trkpt lat="45.7659801" lon="11.5123354"><ele>202.0</ele><time>2026-04-19T13:54:35.867Z</time></trkpt><trkpt lat="45.7658997" lon="11.5122555"><ele>202.0</ele><time>2026-04-19T13:54:36.862Z</time></trkpt><trkpt lat="45.7658133" lon="11.5121912"><ele>202.0</ele><time>2026-04-19T13:54:37.863Z</time></trkpt><trkpt lat="45.7657176" lon="11.5121434"><ele>201.0</ele><time>2026-04-19T13:54:38.865Z</time></trkpt><trkpt lat="45.765614" lon="11.5120983"><ele>200.0</ele><time>2026-04-19T13:54:39.869Z</time></trkpt><trkpt lat="45.7655021" lon="11.5120603"><ele>199.0</ele><time>2026-04-19T13:54:40.862Z</time></trkpt><trkpt lat="45.7653826" lon="11.5120236"><ele>198.0</ele><time>2026-04-19T13:54:41.868Z</time></trkpt><trkpt lat="45.7652615" lon="11.511984"><ele>196.75</ele><time>2026-04-19T13:54:42.866Z</time></trkpt><trkpt lat="45.7651409" lon="11.5119422"><ele>195.5</ele><time>2026-04-19T13:54:43.865Z</time></trkpt><trkpt lat="45.7650212" lon="11.5118999"><ele>194.25</ele><time>2026-04-19T13:54:44.866Z</time></trkpt><trkpt lat="45.764903" lon="11.5118548"><ele>193.0</ele><time>2026-04-19T13:54:45.878Z</time></trkpt><trkpt lat="45.7647861" lon="11.5118108"><ele>193.0</ele><time>2026-04-19T13:54:46.861Z</time></trkpt><trkpt lat="45.7646716" lon="11.5117617"><ele>193.0</ele><time>2026-04-19T13:54:47.862Z</time></trkpt><trkpt lat="45.7645567" lon="11.5117103"><ele>193.0</ele><time>2026-04-19T13:54:48.863Z</time></trkpt><trkpt lat="45.7644433" lon="11.5116552"><ele>193.0</ele><time>2026-04-19T13:54:49.86Z</time></trkpt><trkpt lat="45.7643315" lon="11.5115969"><ele>191.60000000000002</ele><time>2026-04-19T13:54:50.867Z</time></trkpt><trkpt lat="45.7642254" lon="11.5115337"><ele>190.20000000000002</ele><time>2026-04-19T13:54:51.862Z</time></trkpt><trkpt lat="45.7641263" lon="11.5114738"><ele>188.8</ele><time>2026-04-19T13:54:52.863Z</time></trkpt><trkpt lat="45.7640425" lon="11.5114216"><ele>187.4</ele><time>2026-04-19T13:54:53.865Z</time></trkpt><trkpt lat="45.7639671" lon="11.5113747"><ele>186.0</ele><time>2026-04-19T13:54:54.873Z</time></trkpt><trkpt lat="45.7638908" lon="11.5113256"><ele>186.0</ele><time>2026-04-19T13:54:55.863Z</time></trkpt><trkpt lat="45.7638096" lon="11.5112668"><ele>186.0</ele><time>2026-04-19T13:54:56.872Z</time></trkpt><trkpt lat="45.7637241" lon="11.5111941"><ele>186.0</ele><time>2026-04-19T13:54:57.869Z</time></trkpt><trkpt lat="45.7636424" lon="11.5111173"><ele>186.0</ele><time>2026-04-19T13:54:58.859Z</time></trkpt><trkpt lat="45.7635725" lon="11.5110371"><ele>186.0</ele><time>2026-04-19T13:54:59.863Z</time></trkpt><trkpt lat="45.7635093" lon="11.5109646"><ele>184.0</ele><time>2026-04-19T13:55:00.866Z</time></trkpt><trkpt lat="45.76345" lon="11.5109"><ele>182.0</ele><time>2026-04-19T13:55:01.867Z</time></trkpt><trkpt lat="45.763396" lon="11.5108335"><ele>180.0</ele><time>2026-04-19T13:55:02.869Z</time></trkpt><trkpt lat="45.7633464" lon="11.5107763"><ele>178.0</ele><time>2026-04-19T13:55:03.87Z</time></trkpt><trkpt lat="45.7632635" lon="11.5106855"><ele>176.0</ele><time>2026-04-19T13:55:05.869Z</time></trkpt><trkpt lat="45.7631855" lon="11.5106378"><ele>174.0</ele><time>2026-04-19T13:55:08.862Z</time></trkpt><trkpt lat="45.7631087" lon="11.5106868"><ele>174.0</ele><time>2026-04-19T13:55:10.865Z</time></trkpt><trkpt lat="45.7630116" lon="11.5108168"><ele>174.0</ele><time>2026-04-19T13:55:12.866Z</time></trkpt><trkpt lat="45.7629564" lon="11.5108918"><ele>174.0</ele><time>2026-04-19T13:55:13.87Z</time></trkpt><trkpt lat="45.7629006" lon="11.5109634"><ele>174.0</ele><time>2026-04-19T13:55:14.873Z</time></trkpt><trkpt lat="45.7628285" lon="11.5110742"><ele>174.0</ele><time>2026-04-19T13:55:16.861Z</time></trkpt><trkpt lat="45.7627878" lon="11.511155"><ele>174.0</ele><time>2026-04-19T13:55:19.863Z</time></trkpt></trkseg></trk></gpx>